[[{"header":{"parameterUnit":"m.s-1","parameterCategory":1,"la1":30.6,"la2":29.2853,"lo1":-89.7004,"lo2":-87.6739,"dy":0.0162,"dx":0.0183,"nx":112,"ny":82,"refTime":"2024-08-31T00:00:00:Z","depth":0,"parameterNumber":2,"parameterNumberName":"U-component_of_WINDS"},"data":[0.0,0.0,0.0,0.0,0.0,0.0,0.0,0.0,0.0,0.0,0.0,0.0,0.0,0.0,0.0,0.0,0.0,0.0,0.0,0.0,0.0,0.0,0.0,0.0,0.0,0.0,0.0,0.0,0.0,0.0,0.0,0.0,0.0,0.0,0.0,0.0,0.0,0.0,0.0,0.0,0.0,0.0,0.0,0.0,0.0,0.0,0.0,0.0,0.0,0.0,0.0,0.0,0.0,0.0,0.0,0.0,0.0,0.0,0.0,0.0,0.0,0.0,0.0,0.0,0.0,0.0,0.0,0.0,0.0,0.0,0.0,0.0,0.0,0.0,0.0,0.0,0.0,0.0,0.0,0.0,0.0,0.0,0.0,0.0,0.0,0.0,0.0,0.0,0.0,0.0,0.0,1.1208,1.5051,1.7347,1.6988,1.6992,1.5046,1.0442,0.0,0.0,0.0,0.0,0.0,0.0,0.0,0.0,0.0,0.0,0.0,0.0,0.0,0.0,0.0,0.0,0.0,0.0,0.0,0.0,0.0,0.0,0.0,0.0,0.0,0.0,0.0,0.0,0.0,0.0,0.0,0.0,0.0,0.0,0.0,0.0,0.0,0.0,0.0,0.0,0.0,0.0,0.0,0.0,0.0,0.0,0.0,0.0,0.0,0.0,0.0,0.0,0.0,0.0,0.0,0.0,0.0,0.0,0.0,0.0,0.0,0.0,0.0,0.0,0.0,0.0,0.0,0.0,0.0,0.0,0.0,0.0,0.0,0.0,0.0,0.0,0.0,0.0,0.0,0.0,0.0,0.0,0.0,0.0,0.0,0.0,0.0,0.0,0.0,0.0,0.0,0.0,0.0,0.0,0.0,0.0,0.0,0.0,0.0,0.0,0.0,0.0,0.0,0.0,1.0328,1.4478,1.6476,1.7177,1.6405,1.6496,1.4555,0.9757,0.0,0.0,0.0,0.0,0.0,0.0,0.0,0.0,0.0,0.0,0.0,0.0,0.0,0.0,0.0,0.0,0.0,0.0,0.0,0.0,0.0,0.0,0.0,0.0,0.0,0.0,0.0,0.0,0.0,0.0,0.0,0.0,0.0,0.0,0.0,0.0,0.0,0.0,0.0,0.0,0.0,0.0,0.0,0.0,0.0,0.0,0.0,0.0,0.0,0.0,0.0,0.0,0.0,0.0,0.0,0.0,0.0,0.0,0.0,0.0,0.0,0.0,0.0,0.0,0.0,0.0,0.0,0.0,0.0,0.0,0.0,0.0,0.0,0.0,0.0,0.0,0.0,0.0,0.0,0.0,0.0,0.0,0.0,0.0,0.0,0.0,0.0,0.0,0.0,0.0,0.0,0.0,0.0,0.0,0.0,0.0,0.0,0.0,0.0,0.0,0.0,0.0,0.0,0.91,1.1374,1.5139,1.6619,1.7069,1.6413,1.6254,1.4262,0.9793,0.9272,0.0,0.0,0.0,0.0,0.0,0.0,0.0,0.0,0.0,0.0,0.0,0.0,0.0,0.0,0.0,0.0,0.0,0.0,0.0,0.0,0.0,0.0,0.0,0.0,0.0,0.0,0.0,0.0,0.0,0.0,0.0,0.0,0.0,0.0,0.0,0.0,0.0,0.0,0.0,0.0,0.0,0.0,0.0,0.0,0.0,0.0,0.0,0.0,0.0,0.0,0.0,0.0,0.0,0.0,0.0,0.0,0.0,0.0,0.0,0.0,0.0,0.0,0.0,0.0,0.0,0.0,0.0,0.0,0.0,0.0,0.0,0.0,0.0,0.0,0.0,0.0,0.0,0.0,0.0,0.0,0.0,0.0,0.0,0.0,0.0,0.0,0.0,0.0,0.0,0.0,0.0,0.0,0.0,0.0,0.0,0.0,0.0,0.0,0.0,0.0,0.0,0.0,1.067,1.235,1.4787,1.6079,1.6545,1.6002,1.5489,1.3509,0.9564,0.8785,0.0,0.0,0.0,0.0,0.0,0.0,0.0,0.0,0.0,0.0,0.0,0.0,0.0,0.0,0.0,0.0,0.0,0.0,0.0,0.0,0.0,0.0,0.0,0.0,0.0,0.0,0.0,0.0,0.0,0.0,0.0,0.0,0.0,0.0,0.0,0.0,0.0,0.0,0.0,0.0,0.0,0.0,0.0,0.0,0.0,0.0,0.0,0.0,0.0,0.0,0.0,0.0,0.0,0.0,0.0,0.0,0.0,0.0,0.0,0.0,0.0,0.0,0.0,0.0,0.0,0.0,0.0,0.0,0.0,0.0,0.0,0.0,0.0,0.0,0.0,0.0,0.0,0.0,0.0,0.0,0.0,0.0,0.0,0.0,0.0,0.0,0.0,0.0,0.0,0.0,0.0,0.0,0.0,0.0,0.0,0.0,0.0,0.0,0.0,0.0,0.0,0.0,1.0681,1.3027,1.3911,1.4917,1.5206,1.4437,1.3588,1.1717,0.842,0.7362,0.0,0.0,0.0,0.0,0.0,0.0,0.0,0.0,0.0,0.0,0.0,0.0,0.0,0.0,0.0,0.0,0.0,0.0,0.0,0.0,0.0,0.0,0.0,0.0,0.0,0.0,0.0,0.0,0.0,0.0,0.0,0.0,0.0,0.0,0.0,0.0,0.0,0.0,0.0,0.0,0.0,0.0,0.0,0.0,0.0,0.0,0.0,0.0,0.0,0.0,0.0,0.0,0.0,0.0,0.0,0.0,0.0,0.0,0.0,0.0,0.0,0.0,0.0,0.0,0.0,0.0,0.0,0.0,0.0,0.0,0.0,0.0,0.0,0.0,0.0,0.0,0.0,0.0,0.0,0.0,0.0,0.0,0.0,0.0,0.0,0.0,0.0,0.0,0.0,0.0,0.0,0.0,0.0,0.0,0.0,0.0,0.0,0.0,0.0,0.0,0.0,0.0,1.0008,1.2268,0.0,1.4714,1.4977,1.4097,1.3525,1.1685,0.8076,0.0,0.0,0.0,0.0,0.0,0.0,0.0,0.0,0.0,0.0,0.0,0.0,0.0,0.0,0.0,0.0,0.0,0.0,0.0,0.0,0.0,0.0,0.0,0.0,0.0,0.0,0.0,0.0,0.0,0.0,0.0,0.0,0.0,0.0,0.0,0.0,0.0,0.0,0.0,0.0,0.0,0.0,0.0,0.0,0.0,0.0,0.0,0.0,0.0,0.0,0.0,0.0,0.0,0.0,0.0,0.0,0.0,0.0,0.0,0.0,0.0,0.0,0.0,0.0,0.0,0.0,0.0,0.0,0.0,0.0,0.0,0.0,0.0,0.0,0.0,0.0,0.0,0.0,0.0,0.0,0.0,0.0,0.0,0.0,0.0,0.0,0.0,0.0,0.0,0.0,0.0,0.0,0.0,0.0,0.0,0.0,0.0,0.0,0.0,0.0,0.0,0.0,0.7135,0.9736,1.1941,0.0,1.4068,1.4281,1.3494,1.2734,1.091,0.768,0.0,0.0,0.0,0.0,0.0,0.0,0.0,0.0,0.0,0.0,0.0,0.0,0.0,0.0,0.0,0.0,0.0,0.0,0.0,0.0,0.0,0.0,0.0,0.0,0.0,0.0,0.0,0.0,0.0,0.0,0.0,0.0,0.0,0.0,0.0,0.0,0.0,0.0,0.0,0.0,0.0,0.0,0.0,0.0,0.0,0.0,0.0,0.0,0.0,0.0,0.0,0.0,0.0,0.0,0.0,0.0,0.0,0.0,0.0,0.0,0.0,0.0,0.0,0.0,0.0,0.0,0.0,0.0,0.0,0.0,0.0,0.0,0.0,0.0,0.0,0.0,0.0,0.0,0.0,0.0,0.0,0.0,0.0,0.0,0.0,0.0,0.0,0.0,0.0,0.0,0.0,0.0,0.0,0.0,0.0,0.0,0.0,0.0,0.0,0.0,0.0,0.0,0.6804,1.0016,1.2307,1.2307,1.2779,1.2918,1.2446,1.0871,0.9075,0.0,0.0,0.0,0.0,0.0,0.0,0.0,0.0,0.0,0.0,0.0,0.0,0.0,0.0,0.0,0.0,0.0,0.0,0.0,0.0,0.0,0.0,0.0,0.0,0.0,0.0,0.0,0.0,0.0,0.0,0.0,0.0,0.0,0.0,0.0,0.0,0.0,0.0,0.0,0.0,0.0,0.0,0.0,0.0,0.0,0.0,0.0,0.0,0.0,0.0,0.0,0.0,0.0,0.0,0.0,0.0,0.0,0.0,0.0,0.0,0.0,0.0,0.0,0.0,0.0,0.0,0.0,0.0,0.0,0.0,0.0,0.0,0.0,0.0,0.0,0.0,0.0,0.0,0.0,0.0,0.0,0.0,0.0,0.0,0.0,0.0,0.0,0.0,0.0,0.0,0.0,0.0,0.0,0.0,0.0,0.0,0.0,0.0,0.0,0.0,0.0,0.0,0.0,0.6737,0.9991,1.2307,1.2307,1.2691,1.2785,1.2371,1.101,0.9248,0.7069,0.0,0.0,0.0,0.0,0.0,0.0,0.0,0.0,0.0,0.0,0.0,0.0,0.0,0.0,0.0,0.0,0.0,0.0,0.0,0.0,0.0,0.0,0.0,0.0,0.0,0.0,0.0,0.0,0.0,0.0,0.0,0.0,0.0,0.0,0.0,0.0,0.0,0.0,0.0,0.0,0.0,0.0,0.0,0.0,0.0,0.0,0.0,0.0,0.0,0.0,0.0,0.0,0.0,0.0,0.0,0.0,0.0,0.0,0.0,0.0,0.0,0.0,0.0,0.0,0.0,0.0,0.0,0.0,0.0,0.0,0.0,0.0,0.0,0.0,0.0,0.0,0.0,0.0,0.0,0.0,0.0,0.0,0.0,0.0,0.0,0.0,0.0,0.0,0.0,0.0,0.0,0.0,0.0,0.0,0.0,0.0,0.0,0.0,0.0,0.0,0.0,0.0,0.6625,0.9756,1.197,1.193,1.2008,1.196,1.1714,1.0547,0.9009,0.7101,0.0,0.0,0.0,0.0,0.0,0.0,0.0,0.0,0.0,0.0,0.0,0.0,0.0,0.0,0.0,0.0,0.0,0.0,0.0,0.0,0.0,0.0,0.0,0.0,0.0,0.0,0.0,0.0,0.0,0.0,0.0,0.0,0.0,0.0,0.0,0.0,0.0,0.0,0.0,0.0,0.0,0.0,0.0,0.0,0.0,0.0,0.0,0.0,0.0,0.0,0.0,0.0,0.0,0.0,0.0,0.0,0.0,0.0,0.0,0.0,0.0,0.0,0.0,0.0,0.0,0.0,0.0,0.0,0.0,0.0,0.0,0.0,0.0,0.0,0.0,0.0,0.0,0.0,0.0,0.0,0.0,0.0,0.0,0.0,0.0,0.0,0.0,0.0,0.0,0.0,0.0,0.0,0.0,0.0,0.0,0.0,0.0,0.0,0.0,0.0,0.0,0.0,0.6505,0.9384,1.1426,1.1402,1.1065,1.0841,1.0794,0.9775,0.8565,0.7228,0.0,0.0,0.0,0.0,0.0,0.0,0.0,0.0,0.0,0.0,0.0,0.0,0.0,0.0,0.0,0.0,0.0,0.0,0.0,0.0,0.0,0.0,0.0,0.0,0.0,0.0,0.0,0.0,0.0,0.0,0.0,0.0,0.0,0.0,0.0,0.0,0.0,0.0,0.0,0.0,0.0,0.0,0.0,0.0,0.0,0.0,0.0,0.0,0.0,0.0,0.0,0.0,0.0,0.0,0.0,0.0,0.0,0.0,0.0,0.0,0.821,0.0,0.0,0.0,0.0,0.0,0.0,0.0,0.0,0.0,0.0,0.0,0.0,0.0,0.0,0.0,0.0,0.0,0.0,0.0,0.0,0.0,0.0,0.0,0.0,0.0,0.0,0.0,0.0,0.0,0.0,0.0,0.0,0.0,0.0,0.0,0.0,0.0,0.0,0.0,0.0,0.0,0.6398,0.9068,1.1071,1.1378,1.1318,1.1138,1.0832,0.995,0.8865,0.7569,0.6684,0.0,0.0,0.0,0.0,0.0,0.0,0.0,0.0,0.0,0.0,0.0,0.0,0.0,0.0,0.0,0.0,0.0,0.0,0.0,0.0,0.0,0.0,0.0,0.0,0.0,0.0,0.0,0.0,0.0,0.0,0.0,0.0,0.0,0.0,0.0,0.0,0.0,0.0,0.0,0.0,0.0,0.0,0.0,0.0,0.0,0.0,0.0,0.0,0.0,0.0,0.0,0.0,0.0,0.0,0.0,0.0,0.0,0.0,0.0,0.0,0.8662,0.0,0.0,0.0,0.0,0.0,0.0,0.0,0.0,0.0,0.0,0.0,0.0,0.0,0.0,0.0,0.0,0.0,0.0,0.0,0.0,0.0,0.0,0.0,0.0,0.0,0.0,0.0,0.0,0.0,0.0,0.0,0.0,0.0,0.0,0.0,0.0,0.0,0.0,0.0,0.0,0.6532,0.8823,1.0562,1.0929,1.0781,1.0528,1.0157,0.9563,0.8771,0.776,0.7029,0.0,0.0,0.0,0.0,0.0,0.0,0.0,0.0,0.0,0.0,0.0,0.0,0.0,0.0,0.0,0.0,0.0,0.0,0.0,0.0,0.0,0.0,0.0,0.0,0.0,0.0,0.0,0.0,0.0,0.0,0.0,0.0,0.0,0.0,0.0,0.0,0.0,0.0,0.0,0.0,0.0,0.0,0.0,0.0,0.0,0.0,0.0,0.0,0.0,0.0,0.0,0.0,0.0,1.0878,1.1452,1.2701,1.2522,1.2838,1.3377,1.1368,1.0797,1.1168,0.9552,0.0,0.0,0.0,0.0,0.0,0.0,0.0,0.0,0.0,0.0,0.0,0.0,0.0,0.0,0.0,0.0,0.0,0.0,0.0,0.0,0.0,0.0,0.0,0.0,0.8975,0.9397,0.0,0.0,0.0,0.0,0.0,0.0,0.0,0.0,0.0,0.0,0.0,0.0,0.6881,0.8733,1.0111,1.0462,1.02,0.9862,0.9517,0.9239,0.8767,0.8043,0.7474,0.6811,0.0,0.0,0.0,0.0,0.0,0.0,0.0,0.0,0.0,0.0,0.0,0.0,0.0,0.0,0.0,0.0,0.0,0.0,0.0,0.0,0.0,0.0,0.0,0.0,0.0,0.0,0.0,0.0,0.0,0.0,0.0,0.0,0.6668,0.7552,0.0,0.0,0.0,0.0,0.0,0.0,0.0,0.0,0.0,0.0,0.0,0.0,0.0,0.955,1.0538,1.176,1.2678,1.3301,1.4452,1.4902,1.4719,1.4694,1.453,1.4223,1.3556,0.0,1.2042,1.1779,0.0,0.0,0.0,0.0,0.0,0.0,0.0,0.0,0.0,0.0,0.0,0.0,0.0,0.0,0.0,0.0,0.0,0.0,0.0,0.0,0.0,0.0,1.1348,1.0956,1.0972,1.0902,0.0,0.8673,0.7089,0.6332,0.5921,0.0,0.0,0.0,0.0,0.0,0.0,0.0,0.7544,0.8983,1.0059,1.0461,1.0456,1.026,0.987,0.9787,0.9478,0.8791,0.8409,0.7742,0.6713,0.5979,0.0,0.0,0.0,0.0,0.0,0.0,0.0,0.0,0.0,0.0,0.0,0.0,0.0,0.0,0.0,0.0,0.0,0.0,0.0,0.0,0.0,0.0,0.0,0.0,0.0,0.0,0.0,0.0,0.0,0.5736,0.6841,0.7511,0.7409,0.7101,0.0,0.0,0.0,0.0,0.0,0.0,0.0,0.0,0.0,1.1091,1.1539,1.2208,1.3099,1.3579,1.405,1.4545,1.5175,1.5516,1.5613,1.5613,1.5499,1.5281,1.5112,1.4483,1.3536,1.2676,1.1809,1.0911,0.0,0.0,0.0,0.0,0.8498,0.8566,0.9015,0.9173,0.0,0.8178,0.0,0.0,0.0,0.0,0.0,0.0,0.0,0.0,0.0,0.0,1.1162,1.1162,1.1151,1.1025,1.0668,0.9823,0.8763,0.0,0.7091,0.6482,0.4961,0.0,0.0,0.0,0.0,0.7458,0.8315,0.928,1.0028,1.0354,1.0393,1.0218,0.982,0.9723,0.9415,0.8831,0.8578,0.8074,0.7227,0.6556,0.569,0.0,0.0,0.0,0.0,0.0,0.0,0.0,0.0,0.0,0.0,0.0,0.0,0.0,0.0,0.0,0.0,0.0,0.0,0.0,0.0,0.0,0.0,0.0,0.0,0.0,0.0,0.0,0.0,0.6589,0.7682,0.8392,0.8792,0.8708,0.0,0.0,0.0,0.0,0.0,0.0,0.994,1.1654,1.2688,1.2755,1.3343,1.3936,1.4533,1.4463,1.4601,1.4946,1.5064,1.5315,1.5676,1.5676,1.5651,1.5604,1.5504,1.5155,1.4558,1.3441,1.2832,1.2505,1.1366,1.0695,1.0342,1.031,1.0309,1.0394,1.0994,1.1195,1.1029,0.9983,0.0,0.8901,0.7782,0.0,0.0,0.0,0.0,0.915,1.0069,1.0526,1.0822,1.1072,1.1135,1.1064,1.0814,1.0525,0.9962,0.0,0.8408,0.7788,0.607,0.0,0.0,0.0,0.0,0.8131,0.8674,0.9259,0.9665,0.978,0.979,0.9731,0.9585,0.9482,0.9198,0.8659,0.8532,0.8174,0.7502,0.6795,0.6122,0.5485,0.0,0.0,0.0,0.0,0.0,0.0,0.0,0.0,0.0,0.0,0.0,0.0,0.0,0.0,0.0,0.0,0.0,0.0,0.0,0.0,0.0,0.0,0.0,0.0,0.0,0.0,0.0,0.0,0.0,1.1795,1.1971,0.0,0.0,0.0,0.0,0.9905,1.0744,1.142,1.1831,1.3151,1.3778,1.3462,1.3491,1.3534,1.3572,1.3997,1.4232,1.4261,1.47,1.4863,1.4778,1.4778,1.4704,1.4547,1.4171,1.4201,1.4504,1.4562,1.4134,1.3373,1.2666,1.2382,1.2283,1.1649,1.143,1.1438,1.1472,1.1481,1.1473,1.1404,1.0599,0.9734,1.0154,0.9506,0.0,0.0,1.0373,1.0552,1.1239,1.1438,1.1453,1.1477,1.1477,1.1469,1.1453,1.0599,0.9941,0.0,1.0057,0.9557,0.8815,0.0,0.8125,0.7645,0.7968,0.8295,0.832,0.8634,0.8738,0.8435,0.8396,0.8626,0.917,0.9216,0.898,0.8452,0.8416,0.8104,0.744,0.664,0.6052,0.5687,0.4687,0.0,0.0,0.0,0.0,0.0,0.0,0.0,0.0,0.0,0.0,0.0,0.0,0.0,0.0,0.0,0.0,0.0,0.0,0.0,0.0,0.0,0.0,0.0,0.0,0.0,0.0,0.0,0.0,1.1418,1.2187,0.0,1.1197,1.1019,1.1068,1.1302,1.2476,1.3074,1.2845,1.4156,1.4625,1.4033,1.4425,1.4614,1.4535,1.4474,1.4463,1.4463,1.4631,1.4681,1.4647,1.4647,1.448,1.4254,1.4321,1.418,1.3949,1.4212,1.4274,1.4153,1.3712,1.3526,1.3479,1.3026,1.2853,1.2853,1.2853,1.2853,1.2711,1.195,1.0879,0.9931,1.0111,0.9871,0.9669,1.0313,1.0493,1.061,1.1055,1.1186,1.112,1.0909,1.0858,1.0799,1.0573,1.0221,0.991,0.9862,0.9461,0.8897,0.8185,0.8542,0.8622,0.7766,0.8341,0.8816,0.8642,0.8724,0.8639,0.8217,0.8178,0.8263,0.8481,0.8415,0.8178,0.7727,0.7611,0.7303,0.6713,0.6425,0.6124,0.5835,0.51,0.4225,0.0,0.0,0.0,0.0,0.0,0.0,0.0,0.0,0.0,0.0,0.0,0.0,0.0,0.0,0.0,0.0,0.0,0.0,0.0,0.0,0.0,0.0,0.0,0.0,0.0,0.0,1.1526,1.1362,1.2418,1.2776,1.1783,1.2079,1.2417,1.2627,1.348,1.3829,1.3421,1.4499,1.4855,1.4242,1.4765,1.5023,1.492,1.4709,1.4605,1.4605,1.4605,1.4605,1.4605,1.4605,1.4478,1.4282,1.4502,1.4361,1.3958,1.4179,1.4326,1.4397,1.4056,1.3924,1.3908,1.3684,1.3601,1.3568,1.3368,1.3159,1.2866,1.2055,1.1159,1.0407,1.0554,1.0424,1.0314,1.0696,1.0737,1.0725,1.0949,1.0998,1.0933,1.0725,1.0577,1.0446,1.0211,0.9881,0.9564,0.9343,0.9113,0.8754,0.8089,0.8563,0.8676,0.7593,0.8147,0.8482,0.7922,0.7999,0.7925,0.7511,0.7458,0.7538,0.7751,0.7471,0.7247,0.7144,0.6772,0.6456,0.6209,0.585,0.5634,0.5591,0.4913,0.4232,0.3569,0.0,0.0,0.0,0.0,0.0,0.0,0.0,0.0,0.0,0.0,0.0,0.0,0.0,0.0,0.0,0.0,0.0,0.0,0.0,0.0,0.0,0.0,0.0,0.9526,1.0284,1.1189,1.1966,1.2915,1.3594,1.3774,1.3321,1.3269,1.3855,1.3729,1.3625,1.3633,1.4258,1.4462,1.4139,1.4454,1.4637,1.4637,1.4637,1.4637,1.4637,1.4637,1.4637,1.4637,1.4637,1.4629,1.4621,1.4629,1.4629,1.4621,1.4629,1.4439,1.409,1.3742,1.3591,1.3584,1.3583,1.3583,1.3499,1.2912,1.2313,1.1782,1.1782,1.1474,1.1166,1.1614,1.1249,1.0787,1.1242,1.1175,1.0979,1.0979,1.0979,1.0956,1.0949,1.0692,1.0451,1.0436,0.9628,0.8874,0.8874,0.919,0.929,0.8755,0.867,0.8319,0.726,0.7443,0.0,0.6167,0.6418,0.6571,0.6223,0.6196,0.6422,0.7007,0.6465,0.6289,0.6726,0.5969,0.565,0.5968,0.4978,0.4615,0.5003,0.4168,0.3728,0.3724,0.0,0.0,0.0,0.0,0.0,0.0,0.0,0.0,0.0,0.0,0.0,0.0,0.0,0.0,0.0,0.0,0.0,0.0,0.0,0.0,0.0,0.0,1.0869,1.0781,1.2126,1.3114,1.3089,1.3551,1.3812,1.3667,1.3517,1.3599,1.401,1.3995,1.4077,1.4321,1.4784,1.499,1.4895,1.5213,1.5396,1.5396,1.5396,1.5396,1.5396,1.5396,1.5396,1.5396,1.5396,1.5261,1.5046,1.5292,1.5253,1.5054,1.5292,1.5069,1.4482,1.3942,1.3577,1.3291,1.3144,1.3089,1.3071,1.2892,1.2316,1.1656,1.1656,1.1144,1.0534,1.0667,1.0565,1.0441,1.0571,1.0555,1.0499,1.0499,1.0348,1.0132,0.9896,0.9614,0.9348,0.9097,0.8821,0.8531,0.8302,0.8329,0.8328,0.8028,0.798,0.7828,0.7387,0.7414,0.0,0.6593,0.6625,0.652,0.6041,0.5983,0.6049,0.6214,0.606,0.5942,0.5925,0.5711,0.5546,0.5495,0.5212,0.5109,0.5209,0.4702,0.4347,0.0,0.0,0.0,0.0,0.0,0.0,0.0,0.0,0.0,0.0,0.0,0.0,0.0,0.0,0.0,0.0,0.0,0.0,0.0,0.0,0.0,0.0,1.0972,1.1904,1.2217,1.305,1.3608,1.3548,1.3717,1.3884,1.4016,1.4029,1.4236,1.4728,1.4768,1.4855,1.5043,1.5419,1.561,1.561,1.5944,1.6118,1.6118,1.6118,1.6118,1.6118,1.6118,1.5901,1.5478,1.5294,1.4859,0.0,1.4275,1.4169,1.4004,1.4198,1.3958,0.0,0.0,0.0,0.0,0.0,1.2746,1.2526,1.2526,1.2027,1.1392,1.1392,1.105,1.0641,1.0641,1.0562,1.0472,1.0472,1.0277,1.0049,1.0049,0.98,0.9514,0.932,0.898,0.8646,0.8454,0.8233,0.8019,0.7836,0.7787,0.0,0.7638,0.7547,0.7355,0.6963,0.6964,0.6861,0.6418,0.6436,0.6365,0.6057,0.603,0.603,0.603,0.579,0.0,0.0,0.0,0.5292,0.518,0.5171,0.0,0.0,0.0,0.0,0.0,0.0,0.0,0.0,0.4328,0.4286,0.0,0.0,0.0,0.0,0.0,0.0,0.0,0.0,0.0,0.0,0.0,0.0,0.0,0.0,0.0,0.0,1.213,1.3052,1.3688,1.3561,1.3474,1.3696,1.3752,1.4029,1.4653,1.4724,1.5012,1.5709,1.5756,1.5772,1.5812,0.0,0.0,0.0,0.0,1.6689,1.6669,1.6669,1.6607,1.6476,1.6476,1.5945,1.4962,1.4543,1.3877,1.3015,1.2589,1.2403,1.2403,1.2403,1.2181,1.1945,1.3374,1.3532,1.2962,1.2723,1.2285,1.1807,1.1807,0.0,0.0,1.0962,1.0962,1.0962,1.0962,1.0801,1.0604,1.0604,1.0188,0.9721,0.9721,0.9441,0.9133,0.9097,0.8698,0.8319,0.8265,0.7871,0.7522,0.751,0.7505,0.7505,0.7505,0.7358,0.7028,0.6407,0.6473,0.6436,0.6021,0.612,0.6219,0.6172,0.0,0.0,0.6167,0.5679,0.5599,0.6134,0.55,0.5105,0.5105,0.5124,0.5128,0.5105,0.5124,0.5297,0.5634,0.5832,0.5841,0.5643,0.4689,0.4554,0.0,0.0,0.0,0.0,0.0,0.0,0.0,0.0,0.0,0.0,0.0,0.0,0.0,0.0,0.0,1.2536,1.3544,1.4369,1.4834,1.5064,1.499,1.448,1.4697,1.5049,1.5454,1.5494,1.565,1.6071,1.6103,1.623,1.6495,1.6575,1.6594,1.6594,1.6678,1.6628,1.6456,1.6456,1.5987,1.5081,0.0,0.0,1.3648,1.3565,1.3434,1.3236,1.3146,1.3111,1.3111,1.3111,1.2609,1.1854,1.1641,1.1343,1.1047,1.0982,1.0791,1.0559,1.0559,1.0373,1.0124,1.0124,1.0124,1.0124,1.0124,1.0091,0.0,1.0058,0.9969,0.9856,0.9856,0.9642,0.9352,0.9075,0.8781,0.8416,0.7981,0.7812,0.7698,0.7527,0.7505,0.7505,0.7505,0.7472,0.7353,0.7052,0.7043,0.6899,0.645,0.6417,0.6318,0.5992,0.5959,0.5959,0.5959,0.5846,0.5827,0.595,0.5808,0.5731,0.5731,0.5884,0.5893,0.5736,0.5889,0.5931,0.5837,0.604,0.612,0.6078,0.5876,0.5753,0.0,0.0,0.0,0.0,0.0,0.0,0.0,0.0,0.0,0.0,0.0,1.047,1.133,0.0,1.3092,1.3997,1.4577,1.5001,1.5263,1.5583,1.5637,1.5202,1.5324,1.5581,1.5931,1.5854,1.5937,1.6275,1.5764,1.5519,1.569,1.5379,1.5212,1.5212,1.5298,1.5297,1.5211,1.5211,1.4902,1.4339,1.4339,1.3877,1.2988,1.2772,1.2398,1.1933,1.174,1.1655,1.1655,1.1655,1.1369,1.0927,1.0575,1.0459,1.0506,1.0506,1.0446,1.0345,1.0345,1.021,1.005,1.005,0.9975,0.9903,0.9903,0.9903,0.9903,0.9903,0.9752,0.9601,0.9601,0.9348,0.9051,0.8884,0.8667,0.8432,0.8166,0.8026,0.7884,0.7693,0.765,0.7617,0.7508,0.7505,0.7472,0.7372,0.7272,0.7114,0.6885,0.6727,0.6539,0.6229,0.6205,0.6167,0.6063,0.6058,0.6058,0.6058,0.6058,0.6058,0.6058,0.6149,0.6153,0.6045,0.6149,0.6153,0.6058,0.6153,0.6205,0.6205,0.6205,0.6149,0.0,0.0,0.0,0.0,0.0,0.0,0.0,0.0,0.9513,1.0587,1.1552,1.2472,1.3354,1.3758,1.4247,1.5181,1.5153,1.5072,1.5237,1.534,1.534,1.5251,1.5568,1.5736,1.5642,1.5647,1.5693,1.5779,1.4992,1.4516,1.4516,1.4022,1.3762,1.3762,1.3916,1.3974,1.3923,1.3923,1.3816,1.359,1.359,1.3144,1.2276,1.1898,1.1329,1.0587,1.0224,1.0056,1.0056,1.0013,0.9994,0.9994,0.9994,1.0174,1.0393,1.0393,1.0372,1.033,1.033,1.0194,1.0036,1.0036,0.9884,0.972,0.972,0.9689,0.9671,0.9671,0.943,0.9189,0.9189,0.8937,0.8703,0.8703,0.8576,0.8448,0.8411,0.8264,0.8097,0.7894,0.7823,0.7728,0.7527,0.7472,0.7462,0.75,0.7367,0.7248,0.721,0.7012,0.6798,0.6586,0.6525,0.6421,0.6219,0.6205,0.6205,0.6205,0.6205,0.6205,0.6205,0.6205,0.6205,0.6205,0.6205,0.6205,0.6205,0.6243,0.6261,0.6261,0.629,0.6299,0.6442,0.6666,0.7492,0.8749,0.9083,0.9851,0.0,0.0,1.2495,1.3814,1.4448,1.4826,1.4945,1.5079,1.5342,1.5744,1.4961,1.4433,1.4724,1.4087,1.3591,1.3579,1.5036,1.5409,1.3786,1.4358,1.4497,1.3712,1.3754,1.3803,1.3803,1.3901,1.3969,1.3969,1.4,1.3878,1.3646,1.3646,1.3132,1.2118,1.2118,1.1673,1.0836,1.079,1.0707,1.0586,1.036,1.0262,1.0243,1.0075,0.9994,0.9994,0.9994,1.0031,1.0053,1.0053,0.9916,0.9695,0.9695,0.9572,0.9411,0.9411,0.9272,0.9105,0.9105,0.8971,0.8837,0.8837,0.8799,0.8761,0.8761,0.8737,0.8703,0.8703,0.8685,0.8618,0.8439,0.8382,0.8302,0.8102,0.7918,0.7728,0.7527,0.7358,0.7301,0.7481,0.7486,0.741,0.7229,0.7171,0.706,0.6792,0.66,0.6421,0.6219,0.6205,0.6205,0.6205,0.6205,0.6205,0.6205,0.6205,0.6205,0.6205,0.6205,0.6205,0.6205,0.6384,0.6468,0.6473,0.6651,0.6637,0.8696,0.9091,0.9739,0.0,1.1557,1.2249,1.3767,1.3934,1.3997,1.4792,1.5309,1.5618,1.5618,1.5264,1.5028,0.0,1.4345,1.3673,1.3714,1.3262,1.2702,1.2048,1.3139,1.3771,1.3341,1.3544,1.3593,1.3315,1.2794,1.252,1.2653,1.2355,1.2196,1.2196,1.2319,1.2318,1.2199,1.2199,1.1967,1.1502,1.1502,1.1248,1.0764,1.0764,1.0716,1.0593,1.0508,1.047,1.0456,1.027,1.0162,1.0148,1.0047,0.9994,0.9994,0.9994,0.9921,0.9823,0.9823,0.9686,0.947,0.947,0.9329,0.9156,0.9038,0.8944,0.8845,0.8737,0.8703,0.8703,0.8703,0.8703,0.8703,0.8703,0.8703,0.868,0.8595,0.8576,0.8514,0.8307,0.8116,0.7903,0.7717,0.7503,0.7367,0.7334,0.7329,0.7301,0.7215,0.731,0.7285,0.705,0.6812,0.659,0.6393,0.6379,0.6327,0.621,0.6205,0.6205,0.6205,0.6205,0.6257,0.6374,0.6379,0.6426,0.6553,0.6633,0.6675,0.668,0.6764,0.684,0.9934,1.0717,0.0,1.2487,1.3255,1.3838,1.414,1.4268,1.4373,1.4609,1.4947,1.517,1.5114,1.4626,1.4211,1.415,1.3366,1.2696,1.2553,1.2143,1.1572,1.0821,1.1255,1.1834,1.2331,1.2483,1.251,1.2473,1.1753,1.1401,1.1616,1.1214,1.0976,1.0976,1.1118,1.1194,1.1194,1.1194,1.1194,1.1194,1.1194,1.1118,1.0976,1.0976,1.0891,1.0763,1.0707,1.0688,1.0669,1.0465,1.038,1.0361,1.0165,1.0085,1.0075,1.0018,0.9994,0.9994,0.9994,0.9878,0.9708,0.9708,0.9566,0.9363,0.9202,0.9095,0.8972,0.8816,0.8751,0.8703,0.8703,0.8703,0.8703,0.8703,0.8703,0.8703,0.8703,0.8703,0.8661,0.851,0.8311,0.8102,0.7842,0.7636,0.7403,0.7127,0.7152,0.7205,0.7205,0.7381,0.7429,0.7229,0.7026,0.6821,0.6595,0.6576,0.6472,0.6197,0.6174,0.6174,0.6174,0.6033,0.6086,0.6383,0.6238,0.6236,0.6381,0.6439,0.6476,0.6476,0.6533,0.6661,0.9258,0.0,1.2147,1.2893,1.364,1.4244,1.4433,1.3993,1.3498,1.3384,1.337,1.3315,1.3116,1.3073,1.2997,1.2783,1.1976,1.1365,1.1343,1.0385,0.9783,1.0005,0.9831,0.9788,0.0,1.0852,1.1081,1.0433,1.0543,1.073,1.092,1.11,1.1184,1.1184,1.1194,1.1194,1.1194,1.1194,1.1194,1.1194,1.1194,1.1194,1.1184,1.1184,1.1184,1.1165,1.0972,1.0886,1.0868,1.0674,1.0588,1.0565,1.0366,1.0285,1.0262,1.007,0.9994,0.9994,0.9994,0.999,0.9985,0.9985,0.9804,0.9592,0.9587,0.9305,0.9,0.8996,0.8845,0.8703,0.8703,0.8703,0.8703,0.8703,0.8703,0.8703,0.8703,0.8703,0.8699,0.8694,0.8529,0.8264,0.7865,0.7636,0.734,0.6877,0.7031,0.7205,0.7205,0.7381,0.7429,0.7229,0.7201,0.7084,0.6816,0.6797,0.6598,0.6134,0.61,0.61,0.61,0.5608,0.5581,0.6093,0.56,0.5332,0.5339,0.5537,0.5643,0.5647,0.5831,0.5927,0.9673,0.0,1.1209,1.2292,1.2917,1.334,1.3643,1.3527,1.3313,1.3148,1.2688,1.2241,1.2035,1.1399,1.0897,1.0969,1.0673,1.0446,1.0446,1.0209,0.9984,0.975,0.9809,0.0,0.0,0.0,0.0,1.0303,1.0484,1.0692,1.0882,1.1085,1.1194,1.1194,1.1194,1.1194,1.1194,1.1194,1.1194,1.1194,1.1194,1.1194,1.1194,1.1194,1.1194,1.1189,1.1123,1.1094,1.1075,1.0872,1.0811,1.0792,1.0579,1.0413,1.0285,1.0214,1.0118,0.9994,0.9994,0.9994,0.9994,0.9994,0.9947,0.9823,0.9644,0.9507,0.9338,0.908,0.8953,0.8864,0.8737,0.8703,0.8703,0.8703,0.8703,0.8703,0.8703,0.8703,0.8703,0.8703,0.8538,0.8359,0.8217,0.8031,0.7752,0.7329,0.7221,0.7253,0.7386,0.7462,0.7481,0.7415,0.7405,0.7308,0.7089,0.707,0.6921,0.6586,0.6562,0.6422,0.6117,0.5921,0.5811,0.5771,0.5588,0.5565,0.5692,0.5764,0.5803,0.5806,0.5862,0.5905,0.9973,1.0682,1.1156,1.2215,1.255,1.2631,1.2717,1.2475,1.2128,1.1749,1.1097,1.0488,1.0137,0.9536,0.9146,0.9359,0.9582,0.9826,1.008,1.0209,1.0201,0.9981,1.0053,1.0063,0.0,0.0,0.0,1.0394,1.0598,1.0778,1.099,1.1127,1.1194,1.1194,1.1194,1.1194,1.1194,1.1194,1.1194,1.1194,1.1194,1.1194,1.1194,1.1194,1.1194,1.1194,1.1194,1.1194,1.1184,1.1057,1.1005,1.0981,1.0797,1.0636,1.0503,1.0352,1.0209,1.0099,1.0023,0.9994,0.9994,0.9994,0.9994,0.9971,0.9795,0.9684,0.955,0.9282,0.9118,0.8972,0.8835,0.876,0.8703,0.8703,0.8703,0.8703,0.8703,0.8703,0.8703,0.8703,0.8595,0.8486,0.8415,0.824,0.8007,0.7752,0.7607,0.7489,0.741,0.7462,0.7505,0.7505,0.7505,0.7453,0.7324,0.7315,0.7068,0.6519,0.648,0.6258,0.5771,0.5552,0.5443,0.5415,0.5229,0.5195,0.5329,0.5329,0.5329,0.5329,0.5329,0.5329,1.0066,1.0973,1.1838,1.2488,1.241,1.2089,1.1675,1.0905,1.006,0.9384,0.8741,0.8122,0.7555,0.0,0.7809,0.8045,0.8793,0.9573,1.0209,1.0323,1.0408,0.0,0.0,0.0,0.0,0.0,0.0,1.0612,0.0,1.0976,1.117,1.1189,1.1194,1.1194,1.1194,1.1194,1.1194,1.1194,1.1194,1.1194,1.1194,1.1194,1.1194,1.1194,1.1194,1.1194,1.1194,1.1194,1.1194,1.1194,1.1194,1.1175,1.0986,1.0905,1.0849,1.0475,1.0314,1.0266,1.008,1.0004,0.9994,0.9994,0.9994,0.9994,0.9994,0.9819,0.9616,0.9606,0.9319,0.9033,0.9024,0.8859,0.8718,0.8718,0.8689,0.8661,0.8661,0.8627,0.8604,0.8604,0.8604,0.8548,0.8356,0.8186,0.8063,0.8063,0.8085,0.7897,0.7299,0.7405,0.7519,0.7505,0.7505,0.7505,0.7505,0.7505,0.7048,0.6004,0.5971,0.5723,0.512,0.4647,0.4597,0.5054,0.4564,0.43,0.43,0.43,0.43,0.43,0.43,0.4303,0.9965,1.0274,1.0243,1.0623,1.066,1.0509,1.0195,0.9846,0.9378,0.876,0.7751,0.694,0.678,0.6794,0.0,0.7766,0.8964,0.0,1.0252,1.0692,0.0,1.0626,0.0,1.0716,1.0607,1.0745,0.0,0.0,1.0863,1.092,1.0967,1.1113,1.1194,1.1194,1.1194,1.1194,1.1194,1.1194,1.1194,1.1194,1.1194,1.1194,1.1194,1.1194,1.1194,1.1194,1.1194,1.1194,1.1194,1.1194,1.1194,1.1189,1.1137,1.1028,1.0882,1.0778,1.0565,1.029,1.0233,1.0132,0.9994,0.9994,0.9994,0.9994,0.9994,0.9961,0.9864,0.9649,0.9526,0.9409,0.9269,0.9076,0.8925,0.8925,0.8469,0.8031,0.8031,0.7668,0.7361,0.7361,0.7361,0.7349,0.7286,0.7488,0.766,0.766,0.791,0.7984,0.7676,0.7698,0.7669,0.7524,0.7505,0.7505,0.7505,0.7505,0.7211,0.6544,0.6872,0.649,0.5153,0.5355,0.5176,0.4514,0.4367,0.43,0.43,0.43,0.43,0.43,0.43,0.4346,0.9766,0.9914,0.9809,0.9966,0.9906,0.9715,0.9302,0.8977,0.8548,0.7727,0.686,0.6162,0.5889,0.6063,0.0,0.0,0.0,0.0,1.0214,1.0731,1.1009,0.0,1.0953,0.0,1.0882,1.0981,1.1028,0.0,1.1028,1.1028,1.1028,1.1132,1.1194,1.1194,1.1194,1.1194,1.1194,1.1194,1.1194,1.1194,1.1194,1.1194,1.1194,1.1194,1.1194,1.1194,0.0,1.1194,1.1194,1.1194,1.1194,1.1194,1.1194,1.1127,1.1014,1.0929,1.0768,1.0546,1.0361,1.0241,1.0123,1.0023,0.9994,0.9994,0.9994,0.9994,0.9971,0.9809,0.9693,0.9578,0.9456,0.9288,0.9113,0.9024,0.8461,0.7908,0.7819,0.7322,0.6903,0.6903,0.6903,0.6903,0.6903,0.7091,0.7236,0.7236,0.7426,0.7497,0.7296,0.7657,0.7846,0.7655,0.7631,0.7593,0.7515,0.7505,0.7277,0.6741,0.6757,0.6293,0.5153,0.516,0.4914,0.4317,0.43,0.43,0.43,0.43,0.4325,0.4393,0.4393,0.4453,0.9604,0.9819,0.9994,0.9994,0.9776,0.939,0.877,0.8296,0.7681,0.661,0.0,0.5604,0.5166,0.5509,0.6101,0.6811,0.0,0.9067,1.0148,1.0631,1.0938,1.1165,1.1194,1.1194,1.1194,1.1194,1.1194,1.1194,1.1194,1.1194,1.1194,1.1194,1.1194,1.1194,1.1194,1.1194,1.1194,1.1194,1.1194,1.1194,1.1194,1.1194,1.1194,1.1194,1.1194,1.1194,1.1194,0.0,1.1194,1.1194,1.1194,1.1194,1.1194,1.1194,1.1175,1.1,1.0867,1.0702,1.0457,1.0274,1.0122,1.0022,0.9994,0.9994,0.9994,0.9994,0.9994,0.9994,0.9823,0.9623,0.9538,0.9359,0.9139,0.8867,0.8325,0.7815,0.7607,0.7088,0.6653,0.6653,0.6653,0.6653,0.6653,0.671,0.6768,0.6768,0.6845,0.6832,0.6656,0.7381,0.7813,0.7616,0.7593,0.7524,0.734,0.7322,0.709,0.6564,0.6152,0.5667,0.5078,0.4664,0.4414,0.4346,0.4346,0.4346,0.4346,0.4346,0.4415,0.4528,0.4528,0.4597,0.9864,0.9966,0.9994,0.9994,0.9684,0.9151,0.8391,0.7769,0.0,0.0,0.5308,0.503,0.5424,0.5577,0.6091,0.7404,0.0,0.0,0.0,0.0,1.0792,0.0,0.0,0.0,0.0,0.0,0.0,0.0,0.0,1.1194,1.1194,1.1194,1.1194,1.1194,1.1194,1.1194,1.1194,1.1194,1.1194,1.1194,1.1194,1.1194,1.1194,1.1194,1.1194,1.1194,1.1194,0.0,1.1194,1.1194,1.1194,1.1194,1.1194,1.1194,1.1189,1.1156,1.0618,0.999,1.0598,1.014,0.9391,0.9842,0.9994,0.9994,0.9994,0.9994,0.9994,0.9994,0.9971,0.9791,0.9174,0.888,0.8565,0.7917,0.7176,0.6569,0.6428,0.5828,0.5326,0.5326,0.5326,0.5326,0.5326,0.5747,0.6073,0.6073,0.6537,0.6892,0.6847,0.6851,0.6756,0.6507,0.6488,0.6459,0.6428,0.6424,0.6195,0.5657,0.5951,0.5739,0.4802,0.5054,0.5018,0.4645,0.4627,0.4627,0.4627,0.4627,0.4638,0.4657,0.4657,0.4704,0.9916,0.9994,0.9994,0.9994,0.958,0.8901,0.7989,0.0,0.0,0.0,0.4741,0.4584,0.4737,0.5139,0.0,0.6516,0.0,0.0,0.0,0.0,0.0,0.0,0.0,0.0,0.0,0.0,0.0,0.0,0.0,1.1194,1.1194,1.1194,1.1194,1.1194,1.1194,1.1194,1.1194,1.1194,1.1194,1.1194,1.1194,1.1194,1.1194,1.1194,1.1194,1.1194,1.1194,0.0,1.1194,1.1194,1.1194,1.1194,1.1194,1.1194,1.1194,1.1194,1.064,0.9891,1.0178,0.9617,0.8807,0.8929,0.9438,0.9994,0.9994,0.9728,0.951,0.9886,0.944,0.8868,0.889,0.8544,0.8066,0.7614,0.6881,0.6177,0.5719,0.5362,0.5089,0.5009,0.4998,0.4998,0.4998,0.5249,0.544,0.544,0.5709,0.5902,0.5902,0.5825,0.5937,0.6357,0.6412,0.6357,0.6215,0.6208,0.6086,0.5835,0.58,0.5569,0.5087,0.5051,0.4924,0.4708,0.4708,0.4708,0.4708,0.4708,0.4723,0.4749,0.4749,0.4811,0.9826,0.9961,0.9994,0.9994,0.9471,0.868,0.7664,0.6724,0.0,0.0,0.4281,0.4214,0.4107,0.0,0.5132,0.0,0.6276,0.725,0.0,0.0,0.0,0.0,0.0,0.0,0.0,0.0,0.0,0.0,0.0,0.0,1.1194,1.1194,1.1194,1.1194,1.1194,1.1194,1.1194,1.1194,1.1194,1.1194,1.1194,1.1194,1.1194,1.1194,1.1194,1.1194,1.1194,0.0,0.0,1.1194,1.1194,1.1194,1.1194,1.1194,1.1194,1.1194,1.058,0.9747,0.9749,0.9087,0.8219,0.8134,0.8775,0.9587,0.9721,0.9244,0.8824,0.9554,0.8824,0.79,0.8342,0.8031,0.7515,0.7185,0.6614,0.5981,0.5387,0.5243,0.5212,0.5075,0.5034,0.5025,0.5001,0.4998,0.4998,0.4998,0.4998,0.4998,0.4998,0.4998,0.5327,0.6167,0.6266,0.6179,0.5959,0.5949,0.5949,0.5949,0.5554,0.5319,0.5319,0.495,0.4769,0.4769,0.4769,0.4769,0.4769,0.4769,0.48,0.4836,0.4836,0.4906,0.947,0.9809,0.9994,0.9994,0.9357,0.8458,0.7455,0.0,0.5351,0.4262,0.3887,0.389,0.4285,0.4231,0.4405,0.5279,0.5553,0.6269,0.0,0.0,0.0,0.0,0.0,0.0,0.0,0.0,0.0,0.0,0.0,0.0,1.1194,1.1194,1.1194,1.1194,1.1194,1.1194,1.1194,1.1194,1.1194,1.1194,1.1194,1.1194,1.1194,1.1194,1.1194,1.1194,1.1194,0.0,0.0,1.1194,1.1194,1.1194,1.1194,1.1194,1.1194,1.1194,1.0232,0.9019,0.9727,0.8856,0.7517,0.8226,0.8338,0.8279,0.8831,0.8496,0.8053,0.8803,0.8426,0.768,0.7129,0.6953,0.671,0.6027,0.5709,0.555,0.5478,0.5431,0.5337,0.5215,0.519,0.5137,0.5015,0.4998,0.4998,0.4998,0.4998,0.4998,0.4998,0.4998,0.5032,0.5137,0.5154,0.5132,0.5118,0.5118,0.5118,0.5118,0.506,0.504,0.504,0.5002,0.4963,0.4963,0.4963,0.4963,0.4963,0.4963,0.4969,0.4979,0.4979,0.4988,0.9264,0.9696,0.9966,0.98,0.9228,0.8429,0.7427,0.0,0.5337,0.4427,0.3952,0.3756,0.3946,0.3859,0.3909,0.436,0.4565,0.5076,0.6291,0.0,0.0,0.0,0.0,0.0,0.0,0.0,0.0,0.0,0.0,0.0,0.9764,1.0674,1.1194,1.1194,1.1194,1.1194,1.1194,1.1194,1.0949,1.0487,1.0487,1.0212,0.9764,0.9764,0.9764,0.9764,0.9764,0.0,0.0,0.9764,1.0035,1.0487,1.0487,1.0781,1.1145,1.0659,0.9768,0.8775,0.8598,0.7768,0.6799,0.7085,0.7027,0.7052,0.8057,0.7823,0.7349,0.8031,0.7419,0.6587,0.6757,0.6473,0.606,0.5777,0.565,0.5597,0.5524,0.547,0.5442,0.534,0.5316,0.5277,0.514,0.5118,0.5097,0.5006,0.4998,0.4998,0.4998,0.4998,0.4998,0.4998,0.4998,0.4998,0.4998,0.4998,0.4998,0.4998,0.4998,0.4998,0.4998,0.4998,0.4998,0.4998,0.4998,0.4998,0.4998,0.4998,0.4998,0.4998,0.4998,0.4998,0.8831,0.9308,0.9599,0.9533,0.892,0.8131,0.0,0.6218,0.5207,0.4437,0.397,0.3697,0.3697,0.3569,0.3493,0.363,0.3787,0.4173,0.4974,0.562,0.0,0.0,0.0,0.0,0.0,0.0,0.0,0.0,0.0,0.0,0.88,0.9862,1.0478,1.0478,1.0478,1.0478,1.0478,1.0478,1.0212,0.9645,0.9645,0.9348,0.88,0.88,0.88,0.88,0.88,0.0,0.0,0.88,0.9122,0.9645,0.9645,0.999,1.0429,0.9842,0.9147,0.8375,0.7804,0.7083,0.6398,0.6344,0.6263,0.6335,0.7223,0.7008,0.6628,0.7305,0.6631,0.5822,0.6343,0.6083,0.5688,0.5688,0.5688,0.5664,0.558,0.5561,0.5526,0.5445,0.5423,0.5385,0.528,0.5261,0.5234,0.5132,0.5121,0.5121,0.5121,0.5121,0.5121,0.5121,0.5089,0.5034,0.5001,0.4998,0.4998,0.4998,0.4998,0.4998,0.4998,0.4998,0.4998,0.4998,0.4998,0.4998,0.4998,0.4998,0.4998,0.4998,0.4998,0.5015,0.8114,0.8557,0.8812,0.9203,0.841,0.7394,0.6905,0.5879,0.481,0.4145,0.3845,0.3697,0.3697,0.3371,0.3148,0.3285,0.3368,0.3688,0.449,0.5303,0.0,0.0,0.0,0.0,0.0,0.0,0.0,0.0,0.0,0.0,0.88,0.8825,0.8821,0.8821,0.8821,0.8821,0.8821,0.8821,0.8825,0.88,0.88,0.88,0.88,0.88,0.88,0.0,0.0,0.0,0.0,0.88,0.88,0.88,0.88,0.8825,0.8825,0.8825,0.8301,0.7605,0.7605,0.7083,0.6412,0.6409,0.6358,0.629,0.6314,0.6039,0.5863,0.6605,0.6276,0.571,0.571,0.571,0.5688,0.5688,0.5688,0.5688,0.5688,0.5688,0.565,0.5529,0.5505,0.5467,0.5408,0.5389,0.5387,0.5387,0.5387,0.5387,0.5387,0.5387,0.5387,0.5387,0.5277,0.514,0.5006,0.4998,0.4998,0.4998,0.4998,0.4998,0.4998,0.4998,0.4998,0.4998,0.4998,0.4998,0.4998,0.4998,0.4998,0.4998,0.4998,0.5078,0.694,0.738,0.7624,0.7435,0.71,0.6629,0.5926,0.5372,0.4805,0.414,0.3845,0.3647,0.3459,0.3178,0.3054,0.332,0.3235,0.3339,0.3969,0.0,0.0,0.0,0.0,0.0,0.0,0.0,0.0,0.0,0.0,0.0,0.7157,0.7157,0.7655,0.8775,0.88,0.88,0.88,0.88,0.8528,0.7978,0.7978,0.7705,0.7157,0.7157,0.7157,0.0,0.0,0.0,0.0,0.7157,0.7481,0.7978,0.7978,0.8326,0.8726,0.8177,0.7829,0.7531,0.6983,0.6609,0.6412,0.6412,0.6361,0.6293,0.6293,0.6153,0.6002,0.6142,0.5947,0.5688,0.5688,0.5688,0.5688,0.5688,0.5688,0.5688,0.5688,0.5688,0.5677,0.564,0.5632,0.5594,0.5494,0.5472,0.5445,0.5403,0.5389,0.5389,0.5389,0.5389,0.5389,0.5389,0.5354,0.5283,0.5143,0.5061,0.4998,0.4998,0.4998,0.4998,0.4998,0.4998,0.4998,0.4998,0.5094,0.5132,0.5132,0.5237,0.5277,0.5277,0.5277,0.5299,0.5937,0.6374,0.6563,0.6417,0.6153,0.5774,0.5167,0.4736,0.4306,0.3704,0.3483,0.3344,0.3183,0.3015,0.297,0.3179,0.3132,0.3207,0.0,0.0,0.0,0.0,0.0,0.0,0.0,0.0,0.0,0.0,0.0,0.0,0.6412,0.6412,0.6858,0.7854,0.7904,0.7904,0.7904,0.7904,0.7655,0.7157,0.7157,0.6883,0.6412,0.6412,0.6412,0.0,0.0,0.0,0.0,0.6412,0.6684,0.7157,0.7157,0.7456,0.7829,0.7332,0.7157,0.7083,0.6584,0.6412,0.6412,0.6412,0.6363,0.6331,0.6331,0.6217,0.6062,0.5937,0.583,0.5765,0.5721,0.5688,0.5688,0.5688,0.5688,0.5688,0.5688,0.5688,0.5688,0.5688,0.5688,0.5664,0.5588,0.5575,0.5551,0.5518,0.5507,0.5507,0.5507,0.5507,0.5507,0.5507,0.5466,0.5407,0.531,0.5216,0.5148,0.5148,0.5148,0.5148,0.5148,0.5148,0.5148,0.5148,0.5239,0.5275,0.5275,0.5354,0.5389,0.5389,0.5389,0.5417,0.0,0.5441,0.5542,0.5887,0.5436,0.4823,0.4539,0.4013,0.0,0.2995,0.29,0.2895,0.2885,0.2884,0.2891,0.2918,0.3101,0.3293,0.0,0.0,0.0,0.0,0.0,0.0,0.0,0.0,0.0,0.0,0.0,0.0,0.6412,0.6412,0.6412,0.6412,0.6412,0.6412,0.6412,0.6412,0.6412,0.6412,0.6412,0.6412,0.6412,0.6412,0.6412,0.0,0.0,0.0,0.0,0.6412,0.6412,0.6412,0.6412,0.6412,0.6412,0.6412,0.6412,0.6412,0.6412,0.6412,0.6412,0.6412,0.6412,0.6412,0.6412,0.6276,0.6099,0.5961,0.5918,0.588,0.5751,0.5716,0.5688,0.5688,0.5688,0.5688,0.5688,0.5688,0.5688,0.5688,0.5688,0.5688,0.5688,0.5688,0.5688,0.5688,0.5688,0.5688,0.5688,0.5688,0.5688,0.5688,0.5588,0.5521,0.5521,0.5445,0.5389,0.5389,0.5389,0.5389,0.5389,0.5389,0.5389,0.5389,0.5398,0.5406,0.5417,0.5417,0.5417,0.5417,0.5417,0.5455,0.3555,0.0,0.4081,0.3818,0.3838,0.3821,0.0,0.3339,0.3283,0.2962,0.29,0.2865,0.2764,0.2745,0.2832,0.3092,0.3428,0.3764,0.0,0.0,0.0,0.0,0.0,0.0,0.0,0.0,0.0,0.0,0.0,0.6412,0.6412,0.6412,0.6412,0.6412,0.6412,0.6412,0.6412,0.6412,0.6412,0.6412,0.6412,0.6412,0.6412,0.6412,0.6412,0.0,0.0,0.0,0.6412,0.6412,0.6412,0.6412,0.6412,0.6412,0.6412,0.6412,0.6412,0.6412,0.6412,0.6412,0.6412,0.6412,0.6412,0.6412,0.6412,0.6339,0.6243,0.6216,0.6048,0.5896,0.5871,0.5775,0.5688,0.5688,0.5688,0.5688,0.5688,0.5688,0.5688,0.5688,0.5688,0.5688,0.5688,0.5688,0.5688,0.5688,0.5688,0.5688,0.5688,0.5688,0.5688,0.5688,0.5664,0.5645,0.5645,0.5494,0.5389,0.5389,0.5389,0.5389,0.5389,0.5389,0.5389,0.5389,0.5461,0.5532,0.5627,0.5627,0.5627,0.5627,0.5627,0.564,0.2797,0.3253,0.3604,0.3197,0.3344,0.3461,0.2924,0.2874,0.286,0.259,0.2578,0.2605,0.2531,0.2694,0.2884,0.3038,0.3558,0.0,0.0,0.0,0.0,0.0,0.0,0.0,0.0,0.0,0.0,0.0,0.0,0.6412,0.6412,0.6412,0.6412,0.6412,0.6412,0.6412,0.6412,0.6412,0.6412,0.6412,0.6412,0.6412,0.6412,0.6412,0.6412,0.0,0.0,0.0,0.6412,0.6412,0.6412,0.6412,0.6412,0.6412,0.6412,0.6412,0.6412,0.6412,0.6412,0.6412,0.6412,0.6412,0.6412,0.6412,0.6412,0.6368,0.6333,0.6306,0.6197,0.6045,0.5931,0.5835,0.5775,0.5724,0.5688,0.5688,0.5688,0.5688,0.5688,0.5688,0.5688,0.5688,0.5688,0.5688,0.5688,0.5688,0.5688,0.5688,0.5688,0.5688,0.5688,0.5688,0.5688,0.5688,0.5688,0.5591,0.5537,0.5537,0.5537,0.5537,0.5537,0.5537,0.5537,0.5537,0.5581,0.5623,0.5688,0.5688,0.5688,0.5688,0.5688,0.5688,0.2514,0.3089,0.3591,0.3188,0.3299,0.335,0.2797,0.2581,0.2432,0.218,0.2237,0.2343,0.239,0.273,0.0,0.0,0.0,0.0,0.0,0.0,0.0,0.0,0.0,0.0,0.0,0.0,0.0,0.0,0.0,0.6412,0.6412,0.6412,0.6412,0.6412,0.6412,0.6412,0.6412,0.6412,0.6412,0.6412,0.6412,0.6412,0.6412,0.6412,0.6412,0.6412,0.0,0.0,0.6412,0.6412,0.6412,0.6412,0.6412,0.6412,0.6412,0.6412,0.6412,0.6412,0.6412,0.6412,0.6412,0.6412,0.6412,0.6412,0.6412,0.6412,0.6393,0.6323,0.6306,0.6246,0.6013,0.5945,0.5901,0.5765,0.5738,0.5732,0.5694,0.5688,0.5688,0.5688,0.5688,0.5688,0.5688,0.5688,0.5688,0.5688,0.5688,0.5688,0.5688,0.5688,0.5688,0.5688,0.5688,0.5688,0.5688,0.5688,0.5688,0.5688,0.5688,0.5688,0.5688,0.5688,0.5688,0.5688,0.5688,0.5688,0.5688,0.5688,0.5688,0.5688,0.5688,0.5688,0.2567,0.3091,0.3454,0.2772,0.2812,0.2921,0.2601,0.2517,0.2457,0.2297,0.2376,0.2539,0.2767,0.2919,0.3158,0.0,0.0,0.0,0.0,0.0,0.0,0.0,0.0,0.0,0.0,0.0,0.0,0.0,0.0,0.6412,0.6412,0.6412,0.6412,0.6412,0.6412,0.6412,0.6412,0.6412,0.6412,0.6412,0.6412,0.6412,0.6412,0.6412,0.6412,0.6412,0.0,0.6412,0.6412,0.6412,0.6412,0.6412,0.6412,0.6412,0.6412,0.6412,0.6412,0.6412,0.6412,0.6412,0.6412,0.6412,0.6412,0.6412,0.6412,0.6412,0.6406,0.639,0.6342,0.6284,0.6246,0.6159,0.6026,0.5907,0.5877,0.5827,0.5732,0.5688,0.5688,0.5688,0.5688,0.5688,0.5688,0.5688,0.5688,0.5688,0.5688,0.5688,0.5688,0.5688,0.5688,0.5688,0.5688,0.5688,0.5688,0.5688,0.5688,0.5688,0.5688,0.5688,0.5688,0.5688,0.5688,0.5688,0.5688,0.5688,0.5688,0.5688,0.5688,0.5688,0.5688,0.5688,0.2495,0.2793,0.3054,0.2785,0.3079,0.334,0.2959,0.2878,0.2827,0.2658,0.2705,0.2829,0.0,0.0,0.3764,0.4631,0.0,0.0,0.0,0.0,0.0,0.0,0.0,0.0,0.0,0.0,0.0,0.0,0.0,0.0,0.6412,0.6412,0.6412,0.6412,0.6412,0.6412,0.6412,0.6412,0.6412,0.6412,0.6412,0.6412,0.6412,0.6412,0.6412,0.6412,0.0,0.6412,0.6412,0.6412,0.6412,0.6412,0.6412,0.6412,0.6412,0.6412,0.6412,0.6412,0.6412,0.6412,0.6412,0.6412,0.6412,0.6412,0.6412,0.6412,0.6412,0.6412,0.6374,0.6344,0.6309,0.6252,0.6178,0.6032,0.6002,0.5988,0.5934,0.5923,0.5923,0.5923,0.5849,0.5803,0.5803,0.5751,0.5688,0.5688,0.5688,0.5688,0.5688,0.5688,0.5688,0.5688,0.5688,0.5688,0.5688,0.5688,0.5688,0.5688,0.5688,0.5688,0.5688,0.5688,0.5688,0.5688,0.5688,0.5688,0.5688,0.5688,0.5688,0.5688,0.5688,0.5688,0.2385,0.2546,0.2752,0.2873,0.3295,0.364,0.3415,0.3352,0.3308,0.3198,0.3244,0.3321,0.0,0.3814,0.0,0.5284,0.0,0.0,0.0,0.0,0.0,0.0,0.0,0.0,0.0,0.0,0.0,0.0,0.0,0.0,0.6412,0.6412,0.6412,0.6412,0.6412,0.6412,0.6412,0.6412,0.6412,0.6412,0.6412,0.6412,0.6412,0.6412,0.6412,0.6412,0.6412,0.6412,0.6412,0.6412,0.6412,0.6412,0.6412,0.6412,0.6412,0.6412,0.6412,0.6412,0.6412,0.6412,0.6412,0.6412,0.6412,0.6412,0.6412,0.6412,0.6412,0.6412,0.6412,0.6393,0.6331,0.6333,0.6303,0.6181,0.6151,0.6145,0.6115,0.611,0.611,0.611,0.601,0.5945,0.5945,0.5874,0.5784,0.5754,0.5751,0.574,0.5713,0.5688,0.5721,0.5748,0.5727,0.5721,0.5748,0.5778,0.5794,0.5794,0.5743,0.5688,0.5688,0.5688,0.5688,0.5688,0.5688,0.5688,0.5688,0.5738,0.5751,0.5751,0.5781,0.5794,0.2294,0.2544,0.2808,0.2878,0.2977,0.3203,0.373,0.3797,0.3802,0.3985,0.4108,0.4178,0.0,0.4519,0.4979,0.5184,0.0,0.0,0.0,0.0,0.0,0.0,0.0,0.0,0.0,0.0,0.0,0.0,0.0,0.0,0.6412,0.6412,0.6412,0.6412,0.6412,0.6412,0.6412,0.6412,0.6412,0.6412,0.6412,0.6412,0.6412,0.6412,0.6412,0.6412,0.6412,0.6412,0.6412,0.6412,0.6412,0.6412,0.6412,0.6412,0.6412,0.6412,0.6412,0.6412,0.6412,0.6412,0.6412,0.6412,0.6412,0.6412,0.6412,0.6412,0.6412,0.6412,0.6412,0.6409,0.6401,0.6398,0.6371,0.6306,0.6282,0.6249,0.6134,0.611,0.611,0.611,0.6102,0.6096,0.6096,0.6091,0.6024,0.5909,0.589,0.5852,0.5724,0.5688,0.5751,0.588,0.5775,0.5754,0.5882,0.5996,0.6062,0.6062,0.5832,0.5688,0.5688,0.5688,0.5688,0.5688,0.5688,0.5688,0.5688,0.5816,0.589,0.5893,0.6007,0.6062,0.2076,0.2451,0.2868,0.2893,0.3237,0.3671,0.4062,0.4257,0.4394,0.4511,0.4539,0.45,0.4377,0.0,0.5429,0.0,0.0,0.0,0.0,0.0,0.0,0.0,0.0,0.0,0.0,0.0,0.0,0.0,0.0,0.0,0.6412,0.6412,0.6412,0.6412,0.6412,0.6412,0.6412,0.6412,0.6412,0.6412,0.6412,0.6412,0.6412,0.6412,0.6412,0.6412,0.6412,0.6412,0.6412,0.6412,0.6412,0.6412,0.6412,0.6412,0.6412,0.6412,0.6412,0.6412,0.6412,0.6412,0.6412,0.6412,0.6412,0.6412,0.6412,0.6412,0.6412,0.6412,0.6412,0.6412,0.6412,0.6412,0.6401,0.6358,0.6374,0.6336,0.629,0.6279,0.6279,0.6279,0.6246,0.6224,0.6224,0.6159,0.6093,0.6024,0.6015,0.6002,0.5958,0.5953,0.5969,0.6013,0.5977,0.5969,0.6013,0.6082,0.611,0.611,0.6002,0.5953,0.5953,0.5953,0.5953,0.5953,0.5953,0.5953,0.5953,0.5996,0.6015,0.6018,0.6064,0.611,0.2031,0.2409,0.287,0.3023,0.3477,0.4008,0.4419,0.4621,0.4816,0.5088,0.5035,0.4892,0.4807,0.0,0.0,0.0,0.0,0.0,0.0,0.0,0.0,0.0,0.0,0.0,0.0,0.0,0.0,0.0,0.0,0.0,0.0,0.6412,0.6412,0.6412,0.6412,0.6412,0.6412,0.6412,0.6412,0.6412,0.6412,0.6412,0.6412,0.6412,0.6412,0.6412,0.6412,0.6412,0.6412,0.6412,0.6412,0.6412,0.6412,0.6412,0.6412,0.6412,0.6412,0.6412,0.6412,0.6412,0.6412,0.6412,0.6412,0.6412,0.6412,0.6412,0.6412,0.6412,0.6412,0.6412,0.6412,0.6412,0.6412,0.6412,0.6412,0.6412,0.6412,0.6412,0.6412,0.6412,0.6374,0.6323,0.6323,0.6252,0.6184,0.6172,0.6167,0.6153,0.6115,0.611,0.611,0.611,0.6151,0.6181,0.617,0.6176,0.6198,0.6198,0.6198,0.6162,0.6112,0.611,0.611,0.611,0.611,0.611,0.611,0.6216,0.6283,0.6283,0.6394,0.6438,0.22,0.245,0.2816,0.3281,0.3658,0.41,0.4833,0.4906,0.5023,0.5757,0.5646,0.5398,0.5392,0.5395,0.0,0.0,0.0,0.0,0.0,0.0,0.0,0.0,0.0,0.0,0.0,0.0,0.0,0.0,0.0,0.0,0.0,0.6412,0.6412,0.6412,0.6412,0.6412,0.6412,0.6412,0.6412,0.6412,0.6412,0.6412,0.6412,0.6412,0.6412,0.6412,0.6412,0.6412,0.6412,0.6412,0.6412,0.6412,0.6412,0.6412,0.6412,0.6412,0.6412,0.6412,0.6412,0.6412,0.6412,0.6412,0.6412,0.6412,0.6412,0.6412,0.6412,0.6412,0.6412,0.6412,0.6412,0.6412,0.6412,0.6412,0.6412,0.6412,0.6412,0.6412,0.6412,0.6412,0.6412,0.6412,0.6412,0.6412,0.6374,0.6312,0.6295,0.6252,0.6129,0.6112,0.6112,0.6112,0.6274,0.6366,0.6303,0.6372,0.6412,0.6412,0.6412,0.6309,0.6123,0.6112,0.6112,0.6112,0.6112,0.6112,0.6112,0.6519,0.6703,0.6706,0.7053,0.7213,0.1973,0.2476,0.3081,0.3225,0.3895,0.4609,0.4928,0.5143,0.5427,0.5934,0.6039,0.5921,0.5537,0.5703,0.0,0.0,0.0,0.0,0.0,0.0,0.0,0.0,0.0,0.0,0.0,0.0,0.0,0.0,0.0,0.0,0.0,0.6412,0.6412,0.6412,0.6412,0.6412,0.6412,0.6412,0.6412,0.6412,0.6412,0.6412,0.6412,0.6412,0.6412,0.6412,0.6412,0.6412,0.6412,0.6412,0.6412,0.6412,0.6412,0.6412,0.6412,0.6412,0.6412,0.6412,0.6412,0.6412,0.6412,0.6412,0.6412,0.6412,0.6412,0.6412,0.6412,0.6412,0.6412,0.6412,0.6412,0.6412,0.6412,0.6412,0.6412,0.6412,0.6412,0.6412,0.6412,0.6412,0.6412,0.6412,0.6412,0.6412,0.6401,0.6366,0.636,0.6349,0.6312,0.6309,0.6309,0.6309,0.6368,0.6398,0.6363,0.6393,0.6412,0.6412,0.6412,0.6457,0.6588,0.6407,0.6481,0.6874,0.668,0.668,0.6874,0.6986,0.7053,0.7056,0.7145,0.7213,0.2351,0.2881,0.3501,0.3744,0.43,0.489,0.5266,0.5551,0.5803,0.604,0.617,0.6145,0.5857,0.5972,0.0,0.0,0.0,0.0,0.0,0.0,0.0,0.0,0.0,0.0,0.0,0.0,0.0,0.0,0.0,0.0,0.0,0.6412,0.6412,0.6412,0.6412,0.6412,0.6412,0.6412,0.6412,0.6412,0.6412,0.6412,0.6412,0.6412,0.6412,0.6412,0.6412,0.6412,0.6412,0.6412,0.6412,0.6412,0.6412,0.6412,0.6412,0.6412,0.6412,0.6412,0.6412,0.6412,0.6412,0.6412,0.6412,0.6412,0.6412,0.6412,0.6412,0.6412,0.6412,0.6412,0.6412,0.6412,0.6412,0.6412,0.6412,0.6412,0.6412,0.6412,0.6412,0.6412,0.6412,0.6412,0.6412,0.6412,0.6412,0.6412,0.6412,0.6412,0.6412,0.6412,0.6412,0.6412,0.6412,0.6412,0.6412,0.6487,0.6564,0.6564,0.6664,0.6839,0.7095,0.6767,0.6764,0.7188,0.7039,0.7039,0.7213,0.7316,0.7366,0.7366,0.7462,0.7512,0.3022,0.346,0.3941,0.454,0.4768,0.5033,0.5735,0.5983,0.6096,0.6107,0.0,0.6159,0.6271,0.6211,0.6178,0.0,0.0,0.0,0.0,0.0,0.0,0.0,0.0,0.0,0.0,0.0,0.0,0.0,0.0,0.0,0.0,0.6412,0.6412,0.6412,0.6412,0.6412,0.6412,0.6412,0.6412,0.6412,0.6412,0.6412,0.6412,0.6412,0.6412,0.6412,0.6412,0.6412,0.6412,0.6412,0.6412,0.6412,0.6412,0.6412,0.6412,0.6412,0.6412,0.6412,0.6412,0.6412,0.6412,0.6412,0.6412,0.6412,0.6412,0.6412,0.6412,0.6412,0.6412,0.6412,0.6412,0.6412,0.6412,0.6412,0.6412,0.6412,0.6412,0.6412,0.6412,0.6412,0.6412,0.6412,0.6412,0.6412,0.6412,0.6412,0.6412,0.6412,0.6412,0.6412,0.6412,0.6412,0.6412,0.6412,0.6412,0.6642,0.6795,0.6795,0.7042,0.7316,0.7596,0.7119,0.6967,0.7263,0.7238,0.7238,0.7263,0.7519,0.7646,0.7646,0.7892,0.7988,0.2629,0.3219,0.3921,0.4416,0.4958,0.5419,0.5692,0.5835,0.5969,0.6091,0.6186,0.6263,0.629,0.632,0.0,0.0,0.0,0.0,0.0,0.0,0.0,0.0,0.0,0.0,0.0,0.0,0.0,0.0,0.0,0.0,0.6412,0.6412,0.6412,0.6412,0.6412,0.6412,0.6412,0.6412,0.6412,0.0,0.6412,0.6412,0.6412,0.6412,0.6412,0.6412,0.6412,0.6412,0.6412,0.6412,0.6412,0.6412,0.6412,0.6412,0.6412,0.6412,0.6412,0.6412,0.6412,0.6412,0.6412,0.6412,0.6412,0.6412,0.6412,0.6412,0.6412,0.6412,0.6412,0.6412,0.6412,0.6412,0.6412,0.6412,0.6412,0.6412,0.6412,0.6412,0.6412,0.6412,0.6412,0.6412,0.6412,0.6412,0.6412,0.6412,0.6412,0.6412,0.6412,0.6412,0.6412,0.6412,0.6412,0.6412,0.6412,0.6642,0.6795,0.6795,0.7042,0.7316,0.7596,0.7291,0.7338,0.7814,0.7618,0.7618,0.7839,0.7889,0.7917,0.7917,0.7967,0.7988,0.2737,0.3333,0.4028,0.474,0.5227,0.554,0.5661,0.5757,0.5816,0.5904,0.6056,0.6205,0.6205,0.0,0.0,0.0,0.0,0.0,0.0,0.0,0.0,0.0,0.0,0.0,0.0,0.0,0.0,0.0,0.0,0.6412,0.6412,0.6412,0.6412,0.6412,0.6412,0.6412,0.6412,0.6412,0.6412,0.6412,0.6412,0.6412,0.6412,0.6412,0.6412,0.6412,0.6412,0.6412,0.6412,0.6412,0.6412,0.6412,0.6412,0.6412,0.6412,0.6412,0.6412,0.6412,0.6412,0.6412,0.6412,0.6412,0.6412,0.6412,0.6412,0.6412,0.6412,0.6412,0.6412,0.6412,0.6412,0.6412,0.6412,0.6412,0.6412,0.6412,0.6412,0.6412,0.6412,0.6412,0.6412,0.6412,0.6412,0.6412,0.6412,0.6412,0.6412,0.6412,0.6412,0.6412,0.6412,0.6412,0.6412,0.6462,0.6589,0.6839,0.7042,0.7169,0.7441,0.764,0.7793,0.7665,0.7715,0.7988,0.7867,0.7867,0.7988,0.7988,0.7988,0.7988,0.7988,0.7988,0.2824,0.3479,0.4186,0.5081,0.5394,0.5534,0.5634,0.5675,0.5688,0.5688,0.5904,0.6053,0.0,0.0,0.0,0.0,0.0,0.0,0.0,0.0,0.0,0.0,0.0,0.0,0.0,0.0,0.0,0.0,0.0,0.6412,0.6412,0.6412,0.6412,0.6412,0.6412,0.6412,0.6412,0.6412,0.6412,0.6412,0.6412,0.6412,0.6412,0.6412,0.6412,0.6412,0.6412,0.6412,0.6412,0.6412,0.6412,0.6412,0.6412,0.6412,0.6412,0.6412,0.6412,0.6412,0.6412,0.6412,0.6412,0.6412,0.6412,0.6412,0.6412,0.6412,0.6412,0.6412,0.6412,0.6412,0.6412,0.6412,0.6412,0.6412,0.6412,0.6412,0.6412,0.6412,0.6412,0.6412,0.6412,0.6412,0.6412,0.6412,0.6412,0.6412,0.6412,0.6412,0.6412,0.6412,0.6412,0.6412,0.6412,0.6487,0.6717,0.6964,0.7241,0.7519,0.7793,0.7939,0.7988,0.7988,0.7988,0.7988,0.7988,0.7988,0.7988,0.7988,0.7988,0.7988,0.7988,0.7988,0.217,0.3226,0.4357,0.4776,0.5189,0.551,0.0,0.0,0.5688,0.0,0.5813,0.0,0.0,0.0,0.0,0.0,0.0,0.0,0.0,0.0,0.0,0.0,0.0,0.0,0.0,0.0,0.0,0.0,0.6412,0.6412,0.6412,0.6412,0.6412,0.6412,0.6412,0.6412,0.6412,0.6412,0.6412,0.6412,0.6412,0.6412,0.6412,0.6412,0.6412,0.6412,0.6412,0.6412,0.6412,0.6412,0.6412,0.6412,0.6412,0.6412,0.6412,0.6412,0.6412,0.6412,0.6412,0.6412,0.6412,0.6412,0.6412,0.6412,0.6412,0.6412,0.6412,0.6412,0.6412,0.6412,0.6412,0.6412,0.6412,0.6412,0.6412,0.6412,0.6412,0.6412,0.6412,0.6412,0.6412,0.6412,0.6412,0.6412,0.6412,0.6412,0.6412,0.6412,0.6412,0.6412,0.6412,0.6412,0.6412,0.6412,0.6462,0.6689,0.6967,0.7238,0.7494,0.7768,0.7988,0.7988,0.7988,0.7988,0.7988,0.7988,0.7988,0.7988,0.7988,0.7988,0.7988,0.7988,0.2338,0.321,0.405,0.4657,0.4955,0.5162,0.5383,0.5524,0.5586,0.5586,0.5702,0.0,0.0,0.0,0.0,0.0,0.0,0.0,0.0,0.0,0.0,0.0,0.0,0.0,0.0,0.0,0.0,0.0,0.6412,0.6412,0.6412,0.6412,0.6412,0.6412,0.6412,0.6412,0.6412,0.6412,0.6412,0.6412,0.6412,0.6412,0.6412,0.6412,0.6412,0.6412,0.6412,0.6412,0.6412,0.6412,0.6412,0.6412,0.6412,0.6412,0.6412,0.6412,0.6412,0.6412,0.6412,0.6412,0.6412,0.6412,0.6412,0.6412,0.6412,0.6412,0.6412,0.6412,0.6412,0.6412,0.6412,0.6412,0.6412,0.6412,0.6412,0.6412,0.6412,0.6412,0.6412,0.6412,0.6412,0.6412,0.6412,0.6412,0.6412,0.6412,0.6412,0.6412,0.6412,0.6412,0.6412,0.6412,0.6412,0.6462,0.6614,0.6742,0.6917,0.7188,0.7316,0.7494,0.7768,0.7768,0.7842,0.7988,0.7988,0.7988,0.7988,0.7988,0.7988,0.7988,0.7988,0.7988,0.2351,0.3011,0.3588,0.4273,0.4589,0.4809,0.0,0.0,0.5432,0.0,0.0,0.0,0.0,0.0,0.0,0.0,0.0,0.0,0.0,0.0,0.0,0.0,0.0,0.0,0.0,0.0,0.0,0.0,0.6352,0.6368,0.6368,0.6396,0.6412,0.6412,0.6412,0.6412,0.6412,0.6412,0.6412,0.6412,0.6412,0.6412,0.6412,0.6412,0.6412,0.6412,0.6412,0.6412,0.6412,0.6412,0.6412,0.6412,0.6412,0.6412,0.6412,0.6412,0.6412,0.6412,0.6412,0.6412,0.6412,0.6412,0.6412,0.6412,0.6412,0.6412,0.6412,0.6412,0.6412,0.6412,0.6412,0.6412,0.6412,0.6412,0.6412,0.6412,0.6412,0.6412,0.6412,0.6412,0.6412,0.6412,0.6412,0.6412,0.6412,0.6412,0.6412,0.6412,0.6412,0.6412,0.6412,0.6412,0.6412,0.6487,0.6692,0.6692,0.6817,0.7089,0.7089,0.7216,0.7494,0.7572,0.7696,0.7892,0.7967,0.7988,0.7988,0.7988,0.7988,0.7988,0.7988,0.7988,0.1752,0.239,0.3021,0.3379,0.4,0.4571,0.0,0.0,0.0,0.0,0.0,0.0,0.0,0.0,0.0,0.0,0.0,0.0,0.0,0.0,0.0,0.0,0.0,0.0,0.0,0.0,0.0,0.0,0.6235,0.6301,0.6301,0.6355,0.6412,0.6412,0.6412,0.6412,0.6412,0.6412,0.6412,0.6412,0.6412,0.6412,0.6412,0.6412,0.6412,0.6412,0.6412,0.6412,0.6412,0.6412,0.6412,0.6412,0.6412,0.6412,0.6412,0.6412,0.6412,0.6412,0.6412,0.6412,0.6412,0.6412,0.6412,0.6412,0.6412,0.6412,0.6412,0.6412,0.6412,0.6412,0.6412,0.6412,0.6412,0.6412,0.6412,0.6412,0.6412,0.6412,0.6412,0.6412,0.6412,0.6412,0.6412,0.6412,0.6412,0.6412,0.6412,0.6412,0.6412,0.6412,0.6412,0.6412,0.6412,0.6412,0.6412,0.6412,0.6539,0.6795,0.6817,0.6942,0.7213,0.7469,0.7596,0.7621,0.7867,0.7988,0.7988,0.7988,0.7988,0.7988,0.7988,0.7988,0.1605,0.2025,0.2511,0.3023,0.3542,0.4,0.4286,0.4719,0.5082,0.0,0.0,0.0,0.0,0.0,0.0,0.0,0.0,0.0,0.0,0.0,0.0,0.0,0.0,0.0,0.0,0.0,0.0,0.0,0.0,0.6175,0.6175,0.6263,0.6328,0.6328,0.6374,0.6412,0.6412,0.6412,0.6412,0.6412,0.6412,0.6412,0.6412,0.6412,0.6412,0.6412,0.6412,0.6412,0.6412,0.6412,0.6412,0.6412,0.6412,0.6412,0.6412,0.6412,0.6412,0.6412,0.6412,0.6412,0.6412,0.6412,0.6412,0.6412,0.6412,0.6412,0.6412,0.6412,0.6412,0.6412,0.6412,0.6412,0.6412,0.6412,0.6412,0.6412,0.6412,0.6412,0.6412,0.6412,0.6412,0.6412,0.6412,0.6412,0.6412,0.6412,0.6412,0.6412,0.6412,0.6412,0.6412,0.6412,0.6412,0.6412,0.6412,0.6412,0.6437,0.6539,0.6539,0.6739,0.7188,0.7288,0.7515,0.7842,0.7939,0.7988,0.7988,0.7988,0.7988,0.7988,0.7988,0.7988,0.1394,0.0,0.0,0.0,0.3035,0.3419,0.3887,0.0,0.4692,0.0,0.0,0.0,0.0,0.0,0.0,0.0,0.0,0.0,0.0,0.0,0.0,0.0,0.0,0.0,0.0,0.0,0.0,0.0,0.0,0.0,0.6024,0.6164,0.6252,0.6293,0.6342,0.6374,0.6412,0.6412,0.6412,0.6412,0.6412,0.6412,0.6412,0.6412,0.6412,0.6412,0.6412,0.6412,0.6412,0.6412,0.6412,0.6412,0.6412,0.6412,0.6412,0.6412,0.6412,0.6412,0.6412,0.6412,0.6412,0.6412,0.6412,0.6412,0.6412,0.6412,0.6412,0.6412,0.6412,0.6412,0.6412,0.6412,0.6412,0.6412,0.6412,0.6412,0.6412,0.6412,0.6412,0.6412,0.6412,0.6412,0.6412,0.6412,0.6412,0.6412,0.6412,0.6412,0.6412,0.6412,0.6412,0.6412,0.6412,0.6412,0.6412,0.6412,0.6412,0.6412,0.6412,0.6612,0.7042,0.7163,0.7413,0.7867,0.7963,0.7988,0.7988,0.7988,0.7988,0.7988,0.7988,0.7988,0.0,0.0,0.0,0.0,0.0,0.0,0.3597,0.0,0.0,0.0,0.0,0.0,0.0,0.0,0.0,0.0,0.0,0.0,0.0,0.0,0.0,0.0,0.0,0.0,0.0,0.0,0.0,0.0,0.5813,0.5896,0.5896,0.6013,0.6162,0.6284,0.6293,0.632,0.6406,0.6409,0.6412,0.6412,0.6412,0.6412,0.6412,0.6412,0.6412,0.6412,0.6412,0.6412,0.6412,0.6412,0.6412,0.6412,0.6412,0.6412,0.6412,0.6412,0.6412,0.6412,0.6412,0.6412,0.6412,0.6412,0.6412,0.6412,0.6412,0.6412,0.6412,0.6412,0.6412,0.6412,0.6412,0.6412,0.6412,0.6412,0.6412,0.6412,0.6412,0.6412,0.6412,0.6412,0.6412,0.6412,0.6412,0.6412,0.6412,0.6412,0.6412,0.6412,0.6412,0.6412,0.6412,0.6412,0.6412,0.6412,0.6412,0.6412,0.6412,0.6412,0.6412,0.6514,0.6795,0.7064,0.7341,0.7596,0.7867,0.7988,0.7988,0.7988,0.7988,0.7988,0.7988,0.7988,0.1259,0.0,0.0,0.0,0.0,0.0,0.0,0.0,0.0,0.0,0.0,0.0,0.0,0.0,0.0,0.0,0.0,0.0,0.0,0.0,0.0,0.0,0.0,0.0,0.0,0.0,0.0,0.0,0.574,0.5757,0.5757,0.589,0.601,0.6156,0.6246,0.6309,0.6339,0.6371,0.6412,0.6412,0.6412,0.6412,0.6412,0.6412,0.6412,0.6412,0.6412,0.6412,0.6412,0.6412,0.6412,0.6412,0.6412,0.6412,0.6412,0.6412,0.6412,0.6412,0.6412,0.6412,0.6412,0.6412,0.6412,0.6412,0.6412,0.6412,0.6412,0.6412,0.6412,0.6412,0.6412,0.6412,0.6412,0.6412,0.6412,0.6412,0.6412,0.6412,0.6412,0.6412,0.6412,0.6412,0.6412,0.6412,0.6412,0.6412,0.6412,0.6412,0.6412,0.6412,0.6412,0.6412,0.6412,0.6412,0.6412,0.6412,0.6412,0.6412,0.6412,0.6612,0.7064,0.7163,0.7413,0.7892,0.7967,0.7988,0.7988,0.7988,0.7988,0.7988,0.7988,0.7988,0.0,0.0,0.0,0.0,0.0,0.0,0.0,0.3022,0.0,0.0,0.0,0.0,0.0,0.0,0.0,0.0,0.0,0.0,0.0,0.0,0.0,0.0,0.0,0.0,0.0,0.5659,0.5688,0.5688,0.5688,0.5688,0.5688,0.5773,0.5888,0.6005,0.6102,0.6189,0.6293,0.6333,0.6366,0.6412,0.6412,0.6412,0.6412,0.6412,0.6412,0.6412,0.6412,0.6412,0.6412,0.6412,0.6412,0.6412,0.6412,0.6412,0.6412,0.6412,0.6412,0.6412,0.6412,0.6412,0.6412,0.6412,0.6412,0.6412,0.6412,0.6412,0.6412,0.6412,0.6412,0.6412,0.6412,0.6412,0.6412,0.6412,0.6412,0.6412,0.6412,0.6412,0.6412,0.6412,0.6412,0.6412,0.6412,0.6412,0.6412,0.6412,0.6412,0.6412,0.6412,0.6412,0.6412,0.6412,0.6412,0.6412,0.6412,0.6412,0.6412,0.6412,0.6412,0.6637,0.7188,0.7213,0.7462,0.7988,0.7988,0.7988,0.7988,0.7988,0.7988,0.7988,0.7988,0.7988,0.1845,0.1939,0.0,0.0,0.0,0.0,0.294,0.3023,0.3123,0.0,0.0,0.0,0.0,0.0,0.0,0.0,0.0,0.0,0.0,0.0,0.0,0.0,0.0,0.0,0.5489,0.5597,0.5669,0.5669,0.5683,0.5688,0.5688,0.5688,0.5757,0.588,0.5896,0.6007,0.6252,0.6279,0.632,0.6393,0.6406,0.6412,0.6412,0.6412,0.6412,0.6412,0.6412,0.6412,0.6412,0.6412,0.6412,0.6412,0.6412,0.6412,0.6412,0.6412,0.6412,0.6412,0.6412,0.6412,0.6412,0.6412,0.6412,0.6412,0.6412,0.6412,0.6412,0.6412,0.6412,0.6412,0.6412,0.6412,0.6412,0.6412,0.6412,0.6412,0.6412,0.6412,0.6412,0.6412,0.6412,0.6412,0.6412,0.6412,0.6412,0.6412,0.6412,0.6412,0.6412,0.6412,0.6412,0.6412,0.6412,0.6412,0.6412,0.6412,0.6412,0.6412,0.6412,0.6637,0.7138,0.7188,0.7437,0.7939,0.7988,0.7988,0.7988,0.7988,0.7988,0.7988,0.7988,0.7988,0.213,0.2217,0.2368,0.2213,0.0,0.0,0.2355,0.2543,0.2786,0.0,0.0,0.0,0.0,0.0,0.0,0.0,0.0,0.0,0.0,0.0,0.0,0.0,0.0,0.0,0.5425,0.5494,0.5543,0.5543,0.5634,0.5688,0.5688,0.5688,0.5721,0.5743,0.5855,0.5926,0.5972,0.6194,0.6303,0.6325,0.6368,0.6412,0.6412,0.6412,0.6412,0.6412,0.6412,0.6412,0.6412,0.6412,0.6412,0.6412,0.6412,0.6412,0.6412,0.6412,0.6412,0.6412,0.6412,0.6412,0.6412,0.6412,0.6412,0.6412,0.6412,0.6412,0.6412,0.6412,0.6412,0.6412,0.6412,0.6412,0.6412,0.6412,0.6412,0.6412,0.6412,0.6412,0.6412,0.6412,0.6412,0.6412,0.6412,0.6412,0.6412,0.6412,0.6412,0.6412,0.6412,0.6412,0.6412,0.6412,0.6412,0.6412,0.6412,0.6412,0.6412,0.6412,0.6412,0.6537,0.6867,0.7089,0.7338,0.7671,0.7892,0.7988,0.7988,0.7988,0.7988,0.7988,0.7988,0.7988,0.2495,0.2494,0.2593,0.2556,0.0,0.0,0.0,0.2732,0.2849,0.3015,0.0,0.0,0.0,0.0,0.0,0.0,0.0,0.0,0.0,0.0,0.0,0.0,0.0,0.0,0.5186,0.5301,0.5372,0.5434,0.5551,0.5599,0.5599,0.5656,0.5688,0.5688,0.5765,0.5821,0.5904,0.6026,0.6172,0.6293,0.6325,0.6358,0.6412,0.6412,0.6412,0.6412,0.6412,0.6412,0.6412,0.6412,0.6412,0.6412,0.6412,0.6412,0.6412,0.6412,0.6412,0.6412,0.6412,0.6412,0.6412,0.6412,0.6412,0.6412,0.6412,0.6412,0.6412,0.6412,0.6412,0.6412,0.6412,0.6412,0.6412,0.6412,0.6412,0.6412,0.6412,0.6412,0.6412,0.6412,0.6412,0.6412,0.6412,0.6412,0.6412,0.6412,0.6412,0.6412,0.6412,0.6412,0.6412,0.6412,0.6412,0.6412,0.6412,0.6412,0.6412,0.6412,0.6412,0.6514,0.6795,0.7067,0.7388,0.7793,0.7942,0.7988,0.7988,0.7988,0.7988,0.7988,0.7988,0.7988,0.0,0.0,0.0,0.0,0.0,0.2914,0.0,0.0,0.0,0.3183,0.0,0.0,0.0,0.0,0.0,0.0,0.0,0.0,0.0,0.0,0.0,0.0,0.0,0.0,0.0,0.486,0.5058,0.5376,0.5291,0.5305,0.5481,0.5602,0.5664,0.571,0.5688,0.5754,0.5869,0.589,0.5909,0.5954,0.6198,0.6216,0.6103,0.6301,0.6412,0.6412,0.6412,0.6412,0.6412,0.6412,0.6412,0.6412,0.6412,0.6412,0.6412,0.6412,0.6412,0.6412,0.6412,0.6412,0.6412,0.6412,0.6412,0.6412,0.6412,0.6412,0.6412,0.6412,0.6412,0.6412,0.6412,0.6412,0.6412,0.6412,0.6412,0.6412,0.6412,0.6412,0.6412,0.6412,0.6412,0.6412,0.6412,0.6412,0.6412,0.6412,0.6412,0.6412,0.6412,0.6412,0.6412,0.6412,0.6412,0.6412,0.6412,0.6412,0.6412,0.6412,0.6412,0.6487,0.6717,0.7039,0.7462,0.7988,0.7988,0.7988,0.7988,0.7988,0.7988,0.7988,0.7988,0.7988,0.0,0.0,0.0,0.0,0.3255,0.0,0.0,0.0,0.2912,0.2654,0.0,0.0,0.0,0.0,0.0,0.0,0.0,0.0,0.0,0.0,0.0,0.0,0.0,0.0,0.0,0.3871,0.4352,0.5328,0.4686,0.4619,0.5462,0.5521,0.5578,0.5686,0.5688,0.5716,0.5732,0.5852,0.5499,0.4713,0.5779,0.5833,0.5012,0.5966,0.6412,0.6412,0.6412,0.6412,0.6412,0.6412,0.6412,0.6412,0.6412,0.6412,0.6412,0.6412,0.6412,0.6412,0.6412,0.6412,0.6412,0.6412,0.6412,0.6412,0.6412,0.6412,0.6412,0.6412,0.6412,0.6412,0.6412,0.6412,0.6412,0.6412,0.6412,0.6412,0.6412,0.6412,0.6412,0.6412,0.6412,0.6412,0.6412,0.6412,0.6412,0.6412,0.6412,0.6412,0.6412,0.6412,0.6412,0.6412,0.6412,0.6412,0.6412,0.6412,0.6412,0.6412,0.6412,0.6412,0.6437,0.6939,0.7462,0.7988,0.7988,0.7988,0.7988,0.7988,0.7988,0.7988,0.7988,0.7988,0.0,0.0,0.0,0.0,0.0,0.0,0.2961,0.0,0.2908,0.0,0.0,0.0,0.0,0.0,0.0,0.0,0.0,0.0,0.0,0.0,0.0,0.0,0.0,0.0,0.0,0.0,0.0,0.0,0.425,0.4268,0.5056,0.531,0.548,0.558,0.5653,0.5688,0.5688,0.5757,0.5358,0.4495,0.502,0.5098,0.4797,0.4612,0.5225,0.6337,0.5079,0.5256,0.6362,0.5734,0.5834,0.6412,0.6412,0.6412,0.6412,0.6412,0.6412,0.6412,0.6412,0.6412,0.6412,0.6412,0.6412,0.6412,0.6412,0.6412,0.6412,0.6412,0.6412,0.6412,0.6412,0.6412,0.6412,0.6412,0.6412,0.6412,0.6412,0.6412,0.6412,0.6412,0.6412,0.6412,0.6412,0.6412,0.6412,0.6412,0.6412,0.6412,0.6412,0.6412,0.6412,0.6412,0.6412,0.6412,0.6412,0.6412,0.6412,0.6412,0.6412,0.6462,0.6614,0.6842,0.7216,0.7768,0.7768,0.7842,0.7988,0.7988,0.7988,0.7988,0.7988,0.7988,0.3564,0.0,0.0,0.0,0.0,0.0,0.0,0.0,0.0,0.0,0.0,0.0,0.0,0.0,0.0,0.0,0.0,0.0,0.0,0.0,0.0,0.0,0.0,0.0,0.0,0.0,0.0,0.0,0.0,0.377,0.4755,0.5113,0.5358,0.5502,0.5381,0.5441,0.5688,0.5196,0.4645,0.407,0.407,0.4038,0.391,0.3418,0.4055,0.5432,0.3877,0.4076,0.5457,0.4682,0.4832,0.5532,0.5532,0.5532,0.5582,0.6184,0.6412,0.6412,0.6412,0.6412,0.6412,0.6412,0.6412,0.6412,0.6412,0.6412,0.6412,0.6412,0.6412,0.6412,0.6412,0.6412,0.6412,0.6412,0.6412,0.6412,0.6412,0.6412,0.6412,0.6412,0.6412,0.6412,0.6412,0.6412,0.6412,0.6412,0.6412,0.6412,0.6412,0.6412,0.6412,0.6412,0.6412,0.6412,0.6412,0.6412,0.6412,0.6412,0.6412,0.6514,0.6795,0.6795,0.7045,0.7596,0.7596,0.7721,0.7988,0.7988,0.7988,0.7988,0.7988,0.7988,0.0,0.0,0.0,0.3515,0.0,0.0,0.0,0.0,0.3133,0.0,0.0,0.0,0.0,0.0,0.0,0.0,0.0,0.0,0.0,0.0,0.0,0.0,0.0,0.0,0.0,0.0,0.0,0.0,0.0,0.0,0.4697,0.4939,0.5169,0.5497,0.4738,0.4792,0.5688,0.3896,0.298,0.296,0.3016,0.2565,0.1739,0.2743,0.324,0.3299,0.3224,0.3249,0.3299,0.3274,0.3274,0.3299,0.3299,0.3299,0.355,0.5632,0.6412,0.6412,0.6412,0.6412,0.6412,0.6412,0.6412,0.6412,0.6412,0.6412,0.6412,0.6412,0.6412,0.6412,0.6412,0.6412,0.6412,0.6412,0.6412,0.6412,0.6412,0.6412,0.6412,0.6412,0.6412,0.6412,0.6412,0.6412,0.6412,0.6412,0.6412,0.6412,0.6412,0.6412,0.6412,0.6412,0.6412,0.6412,0.6412,0.6412,0.6412,0.6412,0.6412,0.6514,0.6795,0.6795,0.7045,0.7596,0.7596,0.7721,0.7988,0.7988,0.7988,0.7988,0.7988,0.7988,0.0,0.0,0.4372,0.3802,0.0,0.0,0.0,0.0,0.0,0.0,0.0,0.0,0.0,0.0,0.0,0.0,0.0,0.0,0.0,0.0,0.0,0.0,0.0,0.0,0.0,0.0,0.0,0.0,0.2789,0.0,0.0,0.4682,0.5004,0.5301,0.4558,0.437,0.4768,0.3539,0.2576,0.1905,0.1941,0.183,0.1587,0.1238,0.1845,0.3117,0.1705,0.189,0.3148,0.2444,0.2569,0.3198,0.3198,0.3198,0.3374,0.4807,0.5334,0.5436,0.6162,0.6412,0.6412,0.6412,0.6412,0.6412,0.6412,0.6412,0.6412,0.6412,0.6412,0.6412,0.6412,0.6412,0.6412,0.6412,0.6412,0.6412,0.6412,0.6412,0.6412,0.6412,0.6412,0.6412,0.6412,0.6412,0.6412,0.6412,0.6412,0.6412,0.6412,0.6412,0.6412,0.6412,0.6412,0.6412,0.6412,0.6412,0.6412,0.6412,0.6412,0.6437,0.6539,0.6539,0.6714,0.707,0.7241,0.7466,0.7746,0.7917,0.7988,0.7988,0.7988,0.7988,0.4484,0.4587,0.0,0.4098,0.3974,0.0,0.3328,0.0,0.0,0.0,0.0,0.0,0.0,0.0,0.0,0.0,0.0,0.0,0.0,0.0,0.0,0.0,0.0,0.0,0.0,0.0,0.2138,0.2655,0.262,0.0,0.0,0.0,0.4852,0.5196,0.4491,0.4162,0.4297,0.3023,0.204,0.1391,0.1054,0.0952,0.1017,0.0307,0.0746,0.1986,0.0601,0.0782,0.2016,0.1311,0.1437,0.2066,0.2066,0.2066,0.2242,0.3701,0.4481,0.496,0.6037,0.6412,0.6412,0.6412,0.6412,0.6412,0.6412,0.6412,0.6412,0.6412,0.6412,0.6412,0.6412,0.6412,0.6412,0.6412,0.6412,0.6412,0.6412,0.6412,0.6412,0.6412,0.6412,0.6412,0.6412,0.6412,0.6412,0.6412,0.6412,0.6412,0.6412,0.6412,0.6412,0.6412,0.6412,0.6412,0.6412,0.6412,0.6412,0.6412,0.6412,0.6412,0.6412,0.6412,0.6539,0.6795,0.6967,0.7241,0.7596,0.7768,0.7917,0.7988,0.7988,0.7988]},{"header":{"parameterUnit":"m.s-1","parameterCategory":1,"la1":30.6,"la2":29.2853,"lo1":-89.7004,"lo2":-87.6739,"dy":0.0162,"dx":0.0183,"nx":112,"ny":82,"refTime":"2024-08-31T00:00:00:Z","depth":0,"parameterNumber":3,"parameterNumberName":"V-component_of_WINDS"},"data":[0.0,0.0,0.0,0.0,0.0,0.0,0.0,0.0,0.0,0.0,0.0,0.0,0.0,0.0,0.0,0.0,0.0,0.0,0.0,0.0,0.0,0.0,0.0,0.0,0.0,0.0,0.0,0.0,0.0,0.0,0.0,0.0,0.0,0.0,0.0,0.0,0.0,0.0,0.0,0.0,0.0,0.0,0.0,0.0,0.0,0.0,0.0,0.0,0.0,0.0,0.0,0.0,0.0,0.0,0.0,0.0,0.0,0.0,0.0,0.0,0.0,0.0,0.0,0.0,0.0,0.0,0.0,0.0,0.0,0.0,0.0,0.0,0.0,0.0,0.0,0.0,0.0,0.0,0.0,0.0,0.0,0.0,0.0,0.0,0.0,0.0,0.0,0.0,0.0,0.0,0.0,1.1901,1.5166,1.7234,1.7344,1.6284,1.3878,0.9823,0.0,0.0,0.0,0.0,0.0,0.0,0.0,0.0,0.0,0.0,0.0,0.0,0.0,0.0,0.0,0.0,0.0,0.0,0.0,0.0,0.0,0.0,0.0,0.0,0.0,0.0,0.0,0.0,0.0,0.0,0.0,0.0,0.0,0.0,0.0,0.0,0.0,0.0,0.0,0.0,0.0,0.0,0.0,0.0,0.0,0.0,0.0,0.0,0.0,0.0,0.0,0.0,0.0,0.0,0.0,0.0,0.0,0.0,0.0,0.0,0.0,0.0,0.0,0.0,0.0,0.0,0.0,0.0,0.0,0.0,0.0,0.0,0.0,0.0,0.0,0.0,0.0,0.0,0.0,0.0,0.0,0.0,0.0,0.0,0.0,0.0,0.0,0.0,0.0,0.0,0.0,0.0,0.0,0.0,0.0,0.0,0.0,0.0,0.0,0.0,0.0,0.0,0.0,0.0,1.1173,1.5714,1.7591,1.8003,1.6767,1.6317,1.4056,0.9239,0.0,0.0,0.0,0.0,0.0,0.0,0.0,0.0,0.0,0.0,0.0,0.0,0.0,0.0,0.0,0.0,0.0,0.0,0.0,0.0,0.0,0.0,0.0,0.0,0.0,0.0,0.0,0.0,0.0,0.0,0.0,0.0,0.0,0.0,0.0,0.0,0.0,0.0,0.0,0.0,0.0,0.0,0.0,0.0,0.0,0.0,0.0,0.0,0.0,0.0,0.0,0.0,0.0,0.0,0.0,0.0,0.0,0.0,0.0,0.0,0.0,0.0,0.0,0.0,0.0,0.0,0.0,0.0,0.0,0.0,0.0,0.0,0.0,0.0,0.0,0.0,0.0,0.0,0.0,0.0,0.0,0.0,0.0,0.0,0.0,0.0,0.0,0.0,0.0,0.0,0.0,0.0,0.0,0.0,0.0,0.0,0.0,0.0,0.0,0.0,0.0,0.0,0.0,1.0229,1.2729,1.6777,1.8256,1.8506,1.7409,1.6831,1.4545,0.9901,0.9262,0.0,0.0,0.0,0.0,0.0,0.0,0.0,0.0,0.0,0.0,0.0,0.0,0.0,0.0,0.0,0.0,0.0,0.0,0.0,0.0,0.0,0.0,0.0,0.0,0.0,0.0,0.0,0.0,0.0,0.0,0.0,0.0,0.0,0.0,0.0,0.0,0.0,0.0,0.0,0.0,0.0,0.0,0.0,0.0,0.0,0.0,0.0,0.0,0.0,0.0,0.0,0.0,0.0,0.0,0.0,0.0,0.0,0.0,0.0,0.0,0.0,0.0,0.0,0.0,0.0,0.0,0.0,0.0,0.0,0.0,0.0,0.0,0.0,0.0,0.0,0.0,0.0,0.0,0.0,0.0,0.0,0.0,0.0,0.0,0.0,0.0,0.0,0.0,0.0,0.0,0.0,0.0,0.0,0.0,0.0,0.0,0.0,0.0,0.0,0.0,0.0,0.0,1.2744,1.4751,1.7294,1.8682,1.9054,1.8127,1.7145,1.4775,1.0495,0.938,0.0,0.0,0.0,0.0,0.0,0.0,0.0,0.0,0.0,0.0,0.0,0.0,0.0,0.0,0.0,0.0,0.0,0.0,0.0,0.0,0.0,0.0,0.0,0.0,0.0,0.0,0.0,0.0,0.0,0.0,0.0,0.0,0.0,0.0,0.0,0.0,0.0,0.0,0.0,0.0,0.0,0.0,0.0,0.0,0.0,0.0,0.0,0.0,0.0,0.0,0.0,0.0,0.0,0.0,0.0,0.0,0.0,0.0,0.0,0.0,0.0,0.0,0.0,0.0,0.0,0.0,0.0,0.0,0.0,0.0,0.0,0.0,0.0,0.0,0.0,0.0,0.0,0.0,0.0,0.0,0.0,0.0,0.0,0.0,0.0,0.0,0.0,0.0,0.0,0.0,0.0,0.0,0.0,0.0,0.0,0.0,0.0,0.0,0.0,0.0,0.0,0.0,1.4401,1.7525,1.8252,1.9573,1.9795,1.8314,1.6818,1.4261,1.0271,0.8687,0.0,0.0,0.0,0.0,0.0,0.0,0.0,0.0,0.0,0.0,0.0,0.0,0.0,0.0,0.0,0.0,0.0,0.0,0.0,0.0,0.0,0.0,0.0,0.0,0.0,0.0,0.0,0.0,0.0,0.0,0.0,0.0,0.0,0.0,0.0,0.0,0.0,0.0,0.0,0.0,0.0,0.0,0.0,0.0,0.0,0.0,0.0,0.0,0.0,0.0,0.0,0.0,0.0,0.0,0.0,0.0,0.0,0.0,0.0,0.0,0.0,0.0,0.0,0.0,0.0,0.0,0.0,0.0,0.0,0.0,0.0,0.0,0.0,0.0,0.0,0.0,0.0,0.0,0.0,0.0,0.0,0.0,0.0,0.0,0.0,0.0,0.0,0.0,0.0,0.0,0.0,0.0,0.0,0.0,0.0,0.0,0.0,0.0,0.0,0.0,0.0,0.0,1.3901,1.6943,0.0,1.9726,1.9944,1.8455,1.7292,1.4789,1.0395,0.0,0.0,0.0,0.0,0.0,0.0,0.0,0.0,0.0,0.0,0.0,0.0,0.0,0.0,0.0,0.0,0.0,0.0,0.0,0.0,0.0,0.0,0.0,0.0,0.0,0.0,0.0,0.0,0.0,0.0,0.0,0.0,0.0,0.0,0.0,0.0,0.0,0.0,0.0,0.0,0.0,0.0,0.0,0.0,0.0,0.0,0.0,0.0,0.0,0.0,0.0,0.0,0.0,0.0,0.0,0.0,0.0,0.0,0.0,0.0,0.0,0.0,0.0,0.0,0.0,0.0,0.0,0.0,0.0,0.0,0.0,0.0,0.0,0.0,0.0,0.0,0.0,0.0,0.0,0.0,0.0,0.0,0.0,0.0,0.0,0.0,0.0,0.0,0.0,0.0,0.0,0.0,0.0,0.0,0.0,0.0,0.0,0.0,0.0,0.0,0.0,0.0,1.0382,1.4282,1.7436,0.0,1.9906,2.009,1.8852,1.7328,1.4693,1.0644,0.0,0.0,0.0,0.0,0.0,0.0,0.0,0.0,0.0,0.0,0.0,0.0,0.0,0.0,0.0,0.0,0.0,0.0,0.0,0.0,0.0,0.0,0.0,0.0,0.0,0.0,0.0,0.0,0.0,0.0,0.0,0.0,0.0,0.0,0.0,0.0,0.0,0.0,0.0,0.0,0.0,0.0,0.0,0.0,0.0,0.0,0.0,0.0,0.0,0.0,0.0,0.0,0.0,0.0,0.0,0.0,0.0,0.0,0.0,0.0,0.0,0.0,0.0,0.0,0.0,0.0,0.0,0.0,0.0,0.0,0.0,0.0,0.0,0.0,0.0,0.0,0.0,0.0,0.0,0.0,0.0,0.0,0.0,0.0,0.0,0.0,0.0,0.0,0.0,0.0,0.0,0.0,0.0,0.0,0.0,0.0,0.0,0.0,0.0,0.0,0.0,0.0,1.0902,1.5989,1.9601,1.9601,2.0204,2.0301,1.956,1.6741,1.3808,0.0,0.0,0.0,0.0,0.0,0.0,0.0,0.0,0.0,0.0,0.0,0.0,0.0,0.0,0.0,0.0,0.0,0.0,0.0,0.0,0.0,0.0,0.0,0.0,0.0,0.0,0.0,0.0,0.0,0.0,0.0,0.0,0.0,0.0,0.0,0.0,0.0,0.0,0.0,0.0,0.0,0.0,0.0,0.0,0.0,0.0,0.0,0.0,0.0,0.0,0.0,0.0,0.0,0.0,0.0,0.0,0.0,0.0,0.0,0.0,0.0,0.0,0.0,0.0,0.0,0.0,0.0,0.0,0.0,0.0,0.0,0.0,0.0,0.0,0.0,0.0,0.0,0.0,0.0,0.0,0.0,0.0,0.0,0.0,0.0,0.0,0.0,0.0,0.0,0.0,0.0,0.0,0.0,0.0,0.0,0.0,0.0,0.0,0.0,0.0,0.0,0.0,0.0,1.0967,1.6028,1.9601,1.9601,2.0236,2.0362,1.963,1.7325,1.4464,1.1082,0.0,0.0,0.0,0.0,0.0,0.0,0.0,0.0,0.0,0.0,0.0,0.0,0.0,0.0,0.0,0.0,0.0,0.0,0.0,0.0,0.0,0.0,0.0,0.0,0.0,0.0,0.0,0.0,0.0,0.0,0.0,0.0,0.0,0.0,0.0,0.0,0.0,0.0,0.0,0.0,0.0,0.0,0.0,0.0,0.0,0.0,0.0,0.0,0.0,0.0,0.0,0.0,0.0,0.0,0.0,0.0,0.0,0.0,0.0,0.0,0.0,0.0,0.0,0.0,0.0,0.0,0.0,0.0,0.0,0.0,0.0,0.0,0.0,0.0,0.0,0.0,0.0,0.0,0.0,0.0,0.0,0.0,0.0,0.0,0.0,0.0,0.0,0.0,0.0,0.0,0.0,0.0,0.0,0.0,0.0,0.0,0.0,0.0,0.0,0.0,0.0,0.0,1.1533,1.6399,1.9946,2.0355,2.0513,2.0406,1.9961,1.7861,1.5276,1.2206,0.0,0.0,0.0,0.0,0.0,0.0,0.0,0.0,0.0,0.0,0.0,0.0,0.0,0.0,0.0,0.0,0.0,0.0,0.0,0.0,0.0,0.0,0.0,0.0,0.0,0.0,0.0,0.0,0.0,0.0,0.0,0.0,0.0,0.0,0.0,0.0,0.0,0.0,0.0,0.0,0.0,0.0,0.0,0.0,0.0,0.0,0.0,0.0,0.0,0.0,0.0,0.0,0.0,0.0,0.0,0.0,0.0,0.0,0.0,0.0,0.0,0.0,0.0,0.0,0.0,0.0,0.0,0.0,0.0,0.0,0.0,0.0,0.0,0.0,0.0,0.0,0.0,0.0,0.0,0.0,0.0,0.0,0.0,0.0,0.0,0.0,0.0,0.0,0.0,0.0,0.0,0.0,0.0,0.0,0.0,0.0,0.0,0.0,0.0,0.0,0.0,0.0,1.238,1.6973,2.0508,2.15,2.0948,2.047,2.0407,1.8383,1.6173,1.3941,0.0,0.0,0.0,0.0,0.0,0.0,0.0,0.0,0.0,0.0,0.0,0.0,0.0,0.0,0.0,0.0,0.0,0.0,0.0,0.0,0.0,0.0,0.0,0.0,0.0,0.0,0.0,0.0,0.0,0.0,0.0,0.0,0.0,0.0,0.0,0.0,0.0,0.0,0.0,0.0,0.0,0.0,0.0,0.0,0.0,0.0,0.0,0.0,0.0,0.0,0.0,0.0,0.0,0.0,0.0,0.0,0.0,0.0,0.0,0.0,1.0663,0.0,0.0,0.0,0.0,0.0,0.0,0.0,0.0,0.0,0.0,0.0,0.0,0.0,0.0,0.0,0.0,0.0,0.0,0.0,0.0,0.0,0.0,0.0,0.0,0.0,0.0,0.0,0.0,0.0,0.0,0.0,0.0,0.0,0.0,0.0,0.0,0.0,0.0,0.0,0.0,0.0,1.2457,1.7122,2.0658,2.1512,2.1455,2.1087,2.0453,1.8887,1.7008,1.4776,1.3013,0.0,0.0,0.0,0.0,0.0,0.0,0.0,0.0,0.0,0.0,0.0,0.0,0.0,0.0,0.0,0.0,0.0,0.0,0.0,0.0,0.0,0.0,0.0,0.0,0.0,0.0,0.0,0.0,0.0,0.0,0.0,0.0,0.0,0.0,0.0,0.0,0.0,0.0,0.0,0.0,0.0,0.0,0.0,0.0,0.0,0.0,0.0,0.0,0.0,0.0,0.0,0.0,0.0,0.0,0.0,0.0,0.0,0.0,0.0,0.0,1.1813,0.0,0.0,0.0,0.0,0.0,0.0,0.0,0.0,0.0,0.0,0.0,0.0,0.0,0.0,0.0,0.0,0.0,0.0,0.0,0.0,0.0,0.0,0.0,0.0,0.0,0.0,0.0,0.0,0.0,0.0,0.0,0.0,0.0,0.0,0.0,0.0,0.0,0.0,0.0,0.0,1.3676,1.7818,2.1098,2.2376,2.2166,2.1615,2.0797,1.9717,1.8235,1.6315,1.4716,0.0,0.0,0.0,0.0,0.0,0.0,0.0,0.0,0.0,0.0,0.0,0.0,0.0,0.0,0.0,0.0,0.0,0.0,0.0,0.0,0.0,0.0,0.0,0.0,0.0,0.0,0.0,0.0,0.0,0.0,0.0,0.0,0.0,0.0,0.0,0.0,0.0,0.0,0.0,0.0,0.0,0.0,0.0,0.0,0.0,0.0,0.0,0.0,0.0,0.0,0.0,0.0,0.0,1.5392,1.611,1.7521,1.7698,1.8335,1.9149,1.6217,1.5401,1.6023,1.3626,0.0,0.0,0.0,0.0,0.0,0.0,0.0,0.0,0.0,0.0,0.0,0.0,0.0,0.0,0.0,0.0,0.0,0.0,0.0,0.0,0.0,0.0,0.0,0.0,1.7567,1.8052,0.0,0.0,0.0,0.0,0.0,0.0,0.0,0.0,0.0,0.0,0.0,0.0,1.5365,1.8836,2.1684,2.3328,2.291,2.2184,2.1375,2.0751,1.9721,1.8119,1.6641,1.5076,0.0,0.0,0.0,0.0,0.0,0.0,0.0,0.0,0.0,0.0,0.0,0.0,0.0,0.0,0.0,0.0,0.0,0.0,0.0,0.0,0.0,0.0,0.0,0.0,0.0,0.0,0.0,0.0,0.0,0.0,0.0,0.0,0.9326,1.0711,0.0,0.0,0.0,0.0,0.0,0.0,0.0,0.0,0.0,0.0,0.0,0.0,0.0,1.4125,1.5532,1.7394,1.873,1.9558,2.135,2.1989,2.1617,2.1657,2.1415,2.0962,2.0726,0.0,1.7769,1.7381,0.0,0.0,0.0,0.0,0.0,0.0,0.0,0.0,0.0,0.0,0.0,0.0,0.0,0.0,0.0,0.0,0.0,0.0,0.0,0.0,0.0,0.0,2.1484,2.0852,2.1591,2.2106,0.0,1.7587,1.4535,1.3425,1.2734,0.0,0.0,0.0,0.0,0.0,0.0,0.0,1.6994,2.0117,2.246,2.3392,2.3416,2.3011,2.2202,2.2046,2.135,1.9774,1.8833,1.7313,1.5077,1.3351,0.0,0.0,0.0,0.0,0.0,0.0,0.0,0.0,0.0,0.0,0.0,0.0,0.0,0.0,0.0,0.0,0.0,0.0,0.0,0.0,0.0,0.0,0.0,0.0,0.0,0.0,0.0,0.0,0.0,0.8144,0.9873,1.0954,1.0881,1.0405,0.0,0.0,0.0,0.0,0.0,0.0,0.0,0.0,0.0,1.7017,1.84,1.9824,2.1271,2.2852,2.4002,2.4754,2.5698,2.6177,2.621,2.621,2.6051,2.5748,2.5848,2.4835,2.2923,2.066,1.9037,1.787,0.0,0.0,0.0,0.0,1.6998,1.7204,1.8637,1.9125,0.0,1.7715,0.0,0.0,0.0,0.0,0.0,0.0,0.0,0.0,0.0,0.0,2.3174,2.3304,2.3677,2.3779,2.2976,2.1215,1.9037,0.0,1.5742,1.4453,1.1175,0.0,0.0,0.0,0.0,1.6776,1.8704,2.0904,2.2623,2.3461,2.3551,2.3222,2.2416,2.2394,2.1719,2.0099,1.9698,1.8681,1.6771,1.5167,1.3243,0.0,0.0,0.0,0.0,0.0,0.0,0.0,0.0,0.0,0.0,0.0,0.0,0.0,0.0,0.0,0.0,0.0,0.0,0.0,0.0,0.0,0.0,0.0,0.0,0.0,0.0,0.0,0.0,0.9644,1.1309,1.2456,1.3035,1.2926,0.0,0.0,0.0,0.0,0.0,0.0,1.622,1.8673,2.033,2.084,2.2651,2.4137,2.5235,2.6261,2.7031,2.7599,2.778,2.8133,2.8648,2.8648,2.8639,2.8665,2.8741,2.8241,2.7165,2.3879,2.2338,2.1963,2.1098,2.0437,2.0026,2.0765,2.1049,2.1311,2.3212,2.3872,2.3584,2.1937,0.0,2.0409,1.7402,0.0,0.0,0.0,0.0,2.0491,2.2648,2.3642,2.4236,2.4831,2.4974,2.4813,2.4219,2.3813,2.2674,0.0,1.894,1.757,1.3674,0.0,0.0,0.0,0.0,1.8869,2.0528,2.1913,2.3014,2.3685,2.3745,2.3494,2.2857,2.2857,2.2172,2.0492,2.0439,1.9763,1.8223,1.6845,1.5369,1.3793,0.0,0.0,0.0,0.0,0.0,0.0,0.0,0.0,0.0,0.0,0.0,0.0,0.0,0.0,0.0,0.0,0.0,0.0,0.0,0.0,0.0,0.0,0.0,0.0,0.0,0.0,0.0,0.0,0.0,1.7487,1.7769,0.0,0.0,0.0,0.0,1.733,1.9814,2.1534,2.2134,2.4285,2.5211,2.4538,2.4655,2.4766,2.4834,2.5514,2.5875,2.5927,2.6621,2.7022,2.7113,2.7113,2.7153,2.7215,2.7479,2.7946,2.8428,2.7208,2.5863,2.4631,2.4892,2.497,2.4975,2.5341,2.5484,2.5502,2.5615,2.5675,2.5657,2.5538,2.4633,2.3535,2.3144,2.2126,0.0,0.0,2.3196,2.363,2.5206,2.5651,2.5687,2.5741,2.5741,2.5723,2.5687,2.4633,2.3597,0.0,2.2589,2.1529,1.9828,0.0,1.8574,1.8629,1.9446,2.0726,2.2516,2.3482,2.4048,2.4155,2.4169,2.4109,2.3928,2.3931,2.3206,2.1525,2.1434,2.0738,1.9194,1.843,1.7271,1.5597,1.4084,0.0,0.0,0.0,0.0,0.0,0.0,0.0,0.0,0.0,0.0,0.0,0.0,0.0,0.0,0.0,0.0,0.0,0.0,0.0,0.0,0.0,0.0,0.0,0.0,0.0,0.0,0.0,0.0,1.8429,1.9814,0.0,1.9741,1.993,2.0305,2.0844,2.3007,2.4237,2.4095,2.614,2.7041,2.6427,2.8007,2.8876,2.8916,2.9882,3.0364,3.0364,3.063,3.0779,3.0795,3.0795,3.0529,3.0096,3.0712,3.054,2.9829,2.9964,2.9306,2.8233,2.8428,2.8517,2.8539,2.8749,2.8827,2.8827,2.8827,2.8827,2.8676,2.7815,2.6591,2.5456,2.5384,2.5018,2.4824,2.5851,2.6136,2.6384,2.7447,2.7731,2.761,2.7085,2.6958,2.6813,2.6294,2.5782,2.5443,2.5482,2.3941,2.2126,2.0581,2.1342,2.1647,2.0199,2.1484,2.2892,2.3584,2.3928,2.4145,2.4251,2.4264,2.4256,2.4201,2.4224,2.3542,2.1858,2.1795,2.1096,1.9461,1.9167,1.8505,1.7407,1.6393,1.4148,0.0,0.0,0.0,0.0,0.0,0.0,0.0,0.0,0.0,0.0,0.0,0.0,0.0,0.0,0.0,0.0,0.0,0.0,0.0,0.0,0.0,0.0,0.0,0.0,0.0,0.0,1.9278,2.0006,2.181,2.2842,2.2425,2.3328,2.4142,2.4715,2.6385,2.7215,2.6809,2.8649,2.9432,2.88,3.0696,3.172,3.1769,3.2511,3.29,3.29,3.29,3.29,3.29,3.29,3.2614,3.2125,3.2668,3.2303,3.135,3.1893,3.1527,3.0612,3.0447,3.0379,3.0386,3.0466,3.0504,3.0518,3.0606,3.0675,3.0588,2.9697,2.8834,2.8116,2.8041,2.7881,2.7817,2.8279,2.8201,2.8122,2.8663,2.8791,2.8669,2.8122,2.8011,2.7893,2.7356,2.7102,2.7009,2.7086,2.5469,2.3688,2.2413,2.3488,2.3717,2.1367,2.2807,2.3994,2.3547,2.3995,2.4389,2.452,2.4536,2.4512,2.4445,2.3694,2.2986,2.2445,2.1395,2.0553,2.0036,1.9248,1.8538,1.7938,1.6959,1.5102,1.2346,0.0,0.0,0.0,0.0,0.0,0.0,0.0,0.0,0.0,0.0,0.0,0.0,0.0,0.0,0.0,0.0,0.0,0.0,0.0,0.0,0.0,0.0,0.0,1.7185,1.9041,2.1126,2.2593,2.4035,2.5267,2.6145,2.6465,2.7319,2.8966,2.9996,3.0557,3.0575,3.2071,3.2579,3.1803,3.2561,3.2971,3.2971,3.2971,3.2971,3.2971,3.2971,3.2971,3.2971,3.2971,3.2953,3.2936,3.2953,3.2953,3.2936,3.2953,3.2525,3.174,3.0911,3.0572,3.0554,3.0597,3.0597,3.0634,3.0886,3.1109,3.1251,3.1251,3.1365,3.1477,3.1272,3.0803,3.0305,3.0119,2.9497,2.8882,2.8882,2.8882,2.887,2.8852,2.8885,2.8911,2.8917,2.8516,2.8146,2.8146,2.7365,2.6464,2.5698,2.5541,2.4773,2.2469,2.3518,0.0,2.2571,2.3798,2.4849,2.4959,2.4965,2.4888,2.4689,2.2406,2.1664,2.3266,2.0313,1.9267,2.0943,1.8825,1.7528,1.734,1.5868,1.5093,1.5074,0.0,0.0,0.0,0.0,0.0,0.0,0.0,0.0,0.0,0.0,0.0,0.0,0.0,0.0,0.0,0.0,0.0,0.0,0.0,0.0,0.0,0.0,2.247,2.0546,2.2685,2.4925,2.6145,2.718,2.8163,2.9185,2.9362,2.984,3.0876,3.1204,3.1617,3.2214,3.3205,3.3669,3.3455,3.4169,3.4579,3.4579,3.4579,3.4579,3.4579,3.4579,3.4579,3.4579,3.4579,3.4276,3.3794,3.4347,3.4258,3.3812,3.4347,3.4552,3.4379,3.2996,3.2132,3.1744,3.248,3.2755,3.2762,3.2833,3.2615,3.2297,3.2297,3.2023,3.1714,3.1649,3.1519,3.1375,3.131,3.1151,3.0984,3.0984,3.054,3.0119,3.0177,2.9755,2.9368,2.9468,2.9368,2.927,2.9316,2.9105,2.8455,2.6995,2.6725,2.6322,2.5087,2.5283,0.0,2.4236,2.4511,2.46,2.4118,2.4052,2.4036,2.3973,2.3327,2.2874,2.2757,2.1884,2.1301,2.1153,2.052,2.0164,2.0098,1.8514,1.7395,0.0,0.0,0.0,0.0,0.0,0.0,0.0,0.0,0.0,0.0,0.0,0.0,0.0,0.0,0.0,0.0,0.0,0.0,0.0,0.0,0.0,0.0,2.3868,2.5933,2.5398,2.6535,2.7784,2.8766,2.9291,3.0075,3.1388,3.151,3.1974,3.308,3.3169,3.3366,3.3838,3.4633,3.5061,3.5061,3.581,3.6203,3.6203,3.6203,3.6203,3.6203,3.6203,3.6085,3.5865,3.5922,3.5597,0.0,3.5499,3.5457,3.5102,3.553,3.5604,0.0,0.0,0.0,0.0,0.0,3.3643,3.3726,3.3726,3.3554,3.3321,3.3321,3.3086,3.281,3.281,3.2568,3.229,3.229,3.2106,3.1871,3.1871,3.156,3.124,3.1277,3.0685,3.0152,3.0227,3.0004,2.9799,2.9828,2.9841,0.0,2.8506,2.8045,2.7328,2.5816,2.5876,2.5661,2.4485,2.4662,2.4721,2.4295,2.4242,2.4242,2.4242,2.3275,0.0,0.0,0.0,2.1225,2.073,2.0692,0.0,0.0,0.0,0.0,0.0,0.0,0.0,0.0,1.7359,1.7189,0.0,0.0,0.0,0.0,0.0,0.0,0.0,0.0,0.0,0.0,0.0,0.0,0.0,0.0,0.0,0.0,2.7203,2.923,3.07,3.0414,3.0218,3.0718,3.0842,3.151,3.3007,3.3168,3.3766,3.5231,3.5338,3.5373,3.5463,0.0,0.0,0.0,0.0,3.7595,3.7604,3.7604,3.7631,3.7667,3.7667,3.745,3.7033,3.7158,3.6932,3.6499,3.6627,3.667,3.667,3.667,3.6209,3.5443,3.4783,3.4743,3.4959,3.4257,3.4042,3.4108,3.4108,0.0,0.0,3.4245,3.4245,3.4245,3.4245,3.3743,3.3191,3.3191,3.2749,3.2299,3.2299,3.226,3.2247,3.2257,3.1699,3.1114,3.1048,3.0505,3.0029,2.9911,2.9893,2.9893,2.9893,2.9305,2.8059,2.5758,2.6023,2.5872,2.4204,2.4662,2.506,2.4871,0.0,0.0,2.4852,2.2779,2.2457,2.4719,2.2059,2.0426,2.0426,2.0502,2.0521,2.0426,2.0502,2.1244,2.265,2.3446,2.3484,2.2687,1.894,1.835,0.0,0.0,0.0,0.0,0.0,0.0,0.0,0.0,0.0,0.0,0.0,0.0,0.0,0.0,0.0,2.8156,3.0465,3.2321,3.3268,3.3786,3.3669,3.2571,3.3009,3.375,3.466,3.4749,3.515,3.6096,3.6167,3.6453,3.7104,3.7282,3.7381,3.7381,3.7514,3.7622,3.7676,3.7676,3.7835,3.8163,0.0,0.0,3.8409,3.8438,3.8402,3.8305,3.8315,3.8348,3.8348,3.8348,3.796,3.7241,3.5894,3.5907,3.6632,3.6489,3.5995,3.5433,3.5433,3.5019,3.4523,3.4523,3.4523,3.4523,3.4523,3.441,0.0,3.4298,3.4202,3.4092,3.4092,3.3625,3.316,3.3216,3.2628,3.1897,3.1283,3.1044,3.073,3.0048,2.9893,2.9893,2.9893,2.976,2.9286,2.8154,2.8116,2.7608,2.5929,2.5856,2.5458,2.409,2.3957,2.3957,2.3957,2.3502,2.3427,2.3919,2.3351,2.2988,2.2988,2.3654,2.3692,2.3007,2.3673,2.3844,2.3465,2.434,2.4662,2.4491,2.3676,2.3183,0.0,0.0,0.0,0.0,0.0,0.0,0.0,0.0,0.0,0.0,0.0,2.3517,2.5485,0.0,2.9405,3.1439,3.2741,3.3793,3.4638,3.5415,3.5433,3.4195,3.4418,3.4945,3.573,3.5871,3.6219,3.6988,3.7251,3.7523,3.7938,3.8486,3.8804,3.8804,3.9211,3.9463,3.9496,3.9496,3.9593,3.98,3.98,3.9736,3.9604,3.9675,3.9547,3.9262,3.932,3.9345,3.9345,3.9345,3.9164,3.8824,3.805,3.7474,3.7096,3.7096,3.6808,3.6451,3.6451,3.5901,3.5195,3.5195,3.4932,3.4607,3.4607,3.4607,3.4607,3.4607,3.465,3.4692,3.4692,3.4437,3.4153,3.4197,3.3587,3.2901,3.2526,3.2118,3.1549,3.0711,3.0541,3.0408,2.9972,2.9893,2.976,2.9362,2.8964,2.84,2.7551,2.7107,2.6349,2.5098,2.4943,2.4791,2.4374,2.4355,2.4355,2.4355,2.4355,2.4355,2.4355,2.4776,2.4795,2.4359,2.4776,2.4795,2.4355,2.4795,2.5003,2.5003,2.5003,2.4776,0.0,0.0,0.0,0.0,0.0,0.0,0.0,0.0,2.1335,2.3849,2.5985,2.8013,2.9951,3.0947,3.214,3.4247,3.4643,3.4977,3.5841,3.6582,3.6751,3.5983,3.5805,3.603,3.6794,3.6919,3.7196,3.7859,3.8366,3.8632,3.8632,3.9665,4.0251,4.0251,4.0921,4.1314,4.1311,4.1311,4.1367,4.1442,4.1442,4.1217,4.079,4.0902,4.0678,4.0212,4.0164,4.0146,4.0146,3.9976,3.99,3.99,3.99,3.8987,3.7634,3.7634,3.7559,3.7408,3.7408,3.6838,3.6112,3.6112,3.5566,3.4902,3.4902,3.4789,3.4652,3.4652,3.4739,3.4824,3.4824,3.4869,3.4908,3.4908,3.4396,3.3884,3.3733,3.3145,3.2402,3.1587,3.1303,3.0924,3.0048,2.976,2.9722,2.9874,2.9343,2.887,2.8718,2.8123,2.7392,2.6539,2.6292,2.5875,2.506,2.5003,2.5003,2.5003,2.5003,2.5003,2.5003,2.5003,2.5003,2.5003,2.5003,2.5003,2.5003,2.5155,2.5231,2.5231,2.5405,2.5382,1.4342,1.4884,1.6804,1.9622,2.0371,2.2125,0.0,0.0,2.8024,3.1072,3.2499,3.3251,3.3518,3.427,3.5179,3.6154,3.657,3.7054,3.7863,3.8313,3.8512,3.8413,3.7929,3.7842,3.8463,3.8274,3.8264,3.8655,3.9386,3.9804,3.9804,4.0658,4.1151,4.1151,4.1243,4.1326,4.1382,4.1382,4.1569,4.1916,4.1916,4.2002,4.2185,4.2197,4.2158,4.2067,4.1359,4.1061,4.0986,4.0222,3.99,3.99,3.99,3.977,3.9583,3.9583,3.9134,3.8525,3.8525,3.7952,3.7227,3.7227,3.6678,3.6015,3.6015,3.5485,3.4874,3.4874,3.4884,3.4894,3.4894,3.4879,3.4908,3.4908,3.4832,3.4567,3.3847,3.3619,3.3297,3.2421,3.1682,3.0924,3.0048,2.9305,2.9078,2.9798,2.9817,2.9514,2.8794,2.8627,2.8252,2.7433,2.6656,2.5875,2.506,2.5003,2.5003,2.5003,2.5003,2.5003,2.5003,2.5003,2.5003,2.5003,2.5003,2.5003,2.5003,2.5724,2.6065,2.6084,2.6865,2.6808,1.9475,2.0389,2.1875,0.0,2.5919,2.7471,3.0921,3.1296,3.1439,3.3223,3.4639,3.5548,3.5548,3.6402,3.7196,0.0,3.7862,3.8213,3.8593,3.8379,3.8238,3.8429,3.8091,3.8095,3.8744,3.8715,3.8925,3.9578,4.0119,4.0634,4.1145,4.2132,4.2707,4.2707,4.3139,4.3403,4.3437,4.3437,4.3521,4.3687,4.3687,4.3491,4.317,4.317,4.288,4.2388,4.2047,4.1895,4.1838,4.0999,4.0663,4.0607,4.0108,3.99,3.99,3.99,3.9697,3.9399,3.9399,3.885,3.8159,3.8159,3.759,3.6808,3.6334,3.5955,3.5557,3.504,3.4908,3.4908,3.4908,3.4908,3.4908,3.4908,3.4908,3.4813,3.4472,3.4396,3.415,3.3316,3.2478,3.1625,3.0806,2.9953,2.9343,2.9211,2.9192,2.9078,2.8737,2.9116,2.9082,2.8275,2.7449,2.6618,2.5761,2.5705,2.5496,2.5022,2.5003,2.5003,2.5003,2.5003,2.5212,2.5686,2.5705,2.5955,2.6466,2.6789,2.6959,2.6978,2.732,2.7562,2.2344,2.407,0.0,2.8006,3.008,3.1872,3.2911,3.3664,3.4382,3.5215,3.6364,3.7138,3.6887,3.7733,3.8392,3.8164,3.8611,3.9001,3.9068,3.844,3.8147,3.861,3.8302,3.8332,3.9036,3.907,3.9451,4.0404,4.0903,4.155,4.2423,4.3459,4.4023,4.4023,4.4592,4.4895,4.4895,4.4895,4.4895,4.4895,4.4895,4.4592,4.4023,4.4023,4.3682,4.307,4.2842,4.2767,4.2691,4.1876,4.1535,4.1459,4.0582,4.026,4.0222,3.9995,3.99,3.99,3.99,3.9526,3.9025,3.9025,3.8457,3.7642,3.7078,3.6562,3.6069,3.5443,3.5097,3.4908,3.4908,3.4908,3.4908,3.4908,3.4908,3.4908,3.4908,3.4908,3.4737,3.4131,3.3335,3.2421,3.1379,3.0484,2.9556,2.8517,2.8551,2.8699,2.8699,2.94,2.9589,2.8794,2.818,2.7486,2.6637,2.6561,2.6325,2.5749,2.5715,2.5715,2.5715,2.5748,2.6036,2.6588,2.6623,2.6944,2.7572,2.7819,2.7911,2.7911,2.8158,2.857,2.1041,0.0,2.7324,2.8959,3.1893,3.4816,3.6466,3.7055,3.7529,3.846,3.8693,3.8464,3.7623,3.8237,3.8634,3.7861,3.8717,3.9471,3.9477,3.9012,3.8966,3.9757,3.9156,3.8985,0.0,3.9635,3.9957,4.1079,4.1897,4.2736,4.3594,4.4415,4.4857,4.4857,4.4895,4.4895,4.4895,4.4895,4.4895,4.4895,4.4895,4.4895,4.4857,4.4857,4.4857,4.4781,4.4004,4.3663,4.3587,4.271,4.2369,4.2274,4.1478,4.1156,4.1061,4.0203,3.99,3.99,3.99,3.9881,3.9862,3.9862,3.9323,3.8652,3.8633,3.7495,3.6182,3.6164,3.5557,3.4908,3.4908,3.4908,3.4908,3.4908,3.4908,3.4908,3.4908,3.4908,3.4889,3.487,3.4207,3.3145,3.1473,3.0484,2.937,2.7775,2.8199,2.8699,2.8699,2.94,2.9589,2.8794,2.868,2.8347,2.7528,2.7452,2.7481,2.7528,2.7515,2.7515,2.7515,2.764,2.7665,2.7557,2.7681,2.7754,2.7792,2.857,2.8947,2.8966,2.9826,3.0225,2.5241,0.0,3.0693,3.3375,3.5309,3.6839,3.7934,3.8265,3.8257,3.7984,3.6655,3.5301,3.4463,3.4761,3.5228,3.5533,3.7921,3.9764,3.9764,4.0108,4.0044,3.9196,3.9342,0.0,0.0,0.0,0.0,4.1132,4.1952,4.2786,4.3644,4.4459,4.4895,4.4895,4.4895,4.4895,4.4895,4.4895,4.4895,4.4895,4.4895,4.4895,4.4895,4.4895,4.4895,4.4876,4.4611,4.4497,4.4421,4.3606,4.3259,4.3184,4.2331,4.1668,4.1156,4.0872,4.0393,3.99,3.99,3.99,3.99,3.99,3.9711,3.9399,3.886,3.831,3.7628,3.6505,3.5993,3.5633,3.504,3.4908,3.4908,3.4908,3.4908,3.4908,3.4908,3.4908,3.4908,3.4908,3.4245,3.3524,3.2956,3.2137,3.1019,2.9393,2.8896,2.8889,2.9419,2.9722,2.9798,2.9533,2.9495,2.9177,2.8366,2.829,2.8085,2.7564,2.753,2.7542,2.7592,2.7634,2.7937,2.8524,2.858,2.8883,2.9455,2.9739,2.9851,2.9871,3.0158,3.0289,2.8708,3.1355,3.3524,3.6177,3.7507,3.8303,3.885,3.8826,3.8465,3.7622,3.5534,3.3391,3.1966,3.213,3.2771,3.3604,3.672,3.9318,4.0241,4.0853,4.0915,4.0125,4.0228,4.0265,0.0,0.0,0.0,4.1592,4.2407,4.3227,4.408,4.463,4.4895,4.4895,4.4895,4.4895,4.4895,4.4895,4.4895,4.4895,4.4895,4.4895,4.4895,4.4895,4.4895,4.4895,4.4895,4.4895,4.4857,4.4345,4.4137,4.4042,4.3202,4.2558,4.2028,4.1421,4.0853,4.0317,4.0014,3.99,3.99,3.99,3.99,3.9805,3.9286,3.8931,3.8481,3.7401,3.6656,3.6069,3.5519,3.5135,3.4908,3.4908,3.4908,3.4908,3.4908,3.4908,3.4908,3.4908,3.4472,3.4036,3.3752,3.297,3.2042,3.1019,3.037,2.9897,2.9514,2.9722,2.9893,2.9893,2.9893,2.9684,2.9173,2.9135,2.8954,2.8522,2.8491,2.8521,2.8603,2.8647,2.8926,2.9487,2.9561,2.9844,3.0416,3.0416,3.0416,3.0416,3.0416,3.0416,3.1271,3.3646,3.5768,3.7322,3.8478,3.9234,3.9258,3.883,3.821,3.7375,3.514,3.2577,3.0162,0.0,3.1246,3.2193,3.5268,3.8395,4.0853,4.1308,4.1649,0.0,0.0,0.0,0.0,0.0,0.0,4.2464,0.0,4.4023,4.48,4.4876,4.4895,4.4895,4.4895,4.4895,4.4895,4.4895,4.4895,4.4895,4.4895,4.4895,4.4895,4.4895,4.4895,4.4895,4.4895,4.4895,4.4895,4.4895,4.4895,4.4819,4.4061,4.3739,4.3512,4.1914,4.127,4.108,4.0241,3.9938,3.99,3.99,3.99,3.99,3.99,3.938,3.8746,3.8709,3.7552,3.6315,3.6277,3.5614,3.4965,3.4965,3.4932,3.4898,3.4898,3.4927,3.4912,3.4912,3.4912,3.4685,3.3907,3.3064,3.2491,3.2491,3.2425,3.1526,2.9139,2.9495,2.9949,2.9893,2.9893,2.9893,2.9893,2.9893,3.0004,3.027,3.0276,3.0324,3.0392,3.0527,3.0535,3.0403,3.054,3.0598,3.0598,3.0598,3.0598,3.0598,3.0598,3.0617,3.4752,3.6735,3.806,3.9049,3.9525,3.9566,3.8982,3.8245,3.7095,3.5055,3.116,2.79,2.7255,2.7312,0.0,3.1075,3.5869,0.0,4.1023,4.2786,0.0,4.252,0.0,4.288,4.2445,4.2994,0.0,0.0,4.3568,4.3796,4.3985,4.4573,4.4895,4.4895,4.4895,4.4895,4.4895,4.4895,4.4895,4.4895,4.4895,4.4895,4.4895,4.4895,4.4895,4.4895,4.4895,4.4895,4.4895,4.4895,4.4895,4.4876,4.4668,4.4232,4.3644,4.3227,4.2274,4.1175,4.0948,4.0449,3.99,3.99,3.99,3.99,3.99,3.9767,3.947,3.8879,3.8386,3.7912,3.7263,3.6486,3.5879,3.5879,3.5448,3.5049,3.5049,3.513,3.5195,3.5195,3.5195,3.5138,3.4932,3.4129,3.3511,3.3511,3.287,3.1947,3.0715,3.073,3.0617,2.9968,2.9893,2.9893,2.9893,2.9893,2.9965,3.0138,3.0064,3.0129,3.0386,3.0371,3.0422,3.0547,3.0588,3.0598,3.0598,3.0598,3.0598,3.0598,3.0598,3.0926,3.7095,3.851,3.9342,3.9786,3.964,3.8963,3.7395,3.6088,3.4282,3.1065,2.7578,2.4772,2.3673,2.4374,0.0,0.0,0.0,0.0,4.0872,4.3038,4.4156,0.0,4.3929,0.0,4.3544,4.3941,4.4232,0.0,4.4232,4.4232,4.4232,4.4649,4.4895,4.4895,4.4895,4.4895,4.4895,4.4895,4.4895,4.4895,4.4895,4.4895,4.4895,4.4895,4.4895,4.4895,0.0,4.4895,4.4895,4.4895,4.4895,4.4895,4.4895,4.463,4.4175,4.3834,4.3089,4.2198,4.1459,4.0885,4.0412,4.0014,3.99,3.99,3.99,3.99,3.9805,3.9342,3.8969,3.8595,3.8102,3.7339,3.6637,3.6277,3.5931,3.5577,3.5177,3.5203,3.5308,3.5308,3.5308,3.5308,3.5308,3.4852,3.4503,3.4503,3.4023,3.3387,3.2572,3.2047,3.1398,3.056,3.0465,3.0313,2.993,2.9893,2.9949,3.0094,3.009,3.0171,3.0386,3.0425,3.0485,3.0595,3.0598,3.0598,3.0598,3.0598,3.0772,3.1137,3.1137,3.1562,3.8609,3.938,3.99,3.99,3.921,3.7837,3.5173,3.3198,3.0734,2.6573,0.0,2.2476,2.0673,2.2097,2.4526,2.7509,0.0,3.6367,4.0607,4.2539,4.3872,4.4781,4.4895,4.4895,4.4895,4.4895,4.4895,4.4895,4.4895,4.4895,4.4895,4.4895,4.4895,4.4895,4.4895,4.4895,4.4895,4.4895,4.4895,4.4895,4.4895,4.4895,4.4895,4.4895,4.4895,4.4895,4.4895,0.0,4.4895,4.4895,4.4895,4.4895,4.4895,4.4895,4.4819,4.4118,4.3789,4.3528,4.2039,4.14,4.1076,4.0195,3.99,3.99,3.99,3.99,3.99,3.99,3.9399,3.8865,3.8886,3.8247,3.7436,3.6758,3.6604,3.6377,3.5503,3.5331,3.5356,3.5356,3.5356,3.5356,3.5356,3.5345,3.5334,3.5334,3.5319,3.5043,3.4341,3.3293,3.2311,3.1495,3.14,3.1115,3.0356,3.028,3.0335,3.0473,3.0579,3.0672,3.0755,3.086,3.0917,3.0926,3.0926,3.0926,3.0926,3.0926,3.1292,3.1966,3.1966,3.2449,3.947,3.9786,3.99,3.99,3.875,3.6789,3.3577,3.1014,0.0,0.0,2.1241,2.0083,2.1756,2.2422,2.4428,2.9696,0.0,0.0,0.0,0.0,4.3184,0.0,0.0,0.0,0.0,0.0,0.0,0.0,0.0,4.4895,4.4895,4.4895,4.4895,4.4895,4.4895,4.4895,4.4895,4.4895,4.4895,4.4895,4.4895,4.4895,4.4895,4.4895,4.4895,4.4895,4.4895,0.0,4.4895,4.4895,4.4895,4.4895,4.4895,4.4895,4.4876,4.4743,4.4332,4.3817,4.3413,4.2438,4.1189,4.022,3.99,3.99,3.99,3.99,3.99,3.99,3.9805,3.9729,3.9836,3.9242,3.8632,3.8591,3.8139,3.7495,3.6687,3.6036,3.5639,3.5639,3.5639,3.5639,3.5639,3.5534,3.546,3.546,3.5378,3.525,3.512,3.4343,3.3485,3.2619,3.2523,3.2469,3.2316,3.2297,3.2342,3.2499,3.2407,3.2445,3.2617,3.2599,3.2604,3.266,3.2662,3.2662,3.2662,3.2662,3.2739,3.2875,3.2875,3.3342,3.9678,3.99,3.99,3.99,3.8333,3.5784,3.1966,0.0,0.0,0.0,1.8927,1.8302,1.9089,2.0659,0.0,2.6133,0.0,0.0,0.0,0.0,0.0,0.0,0.0,0.0,0.0,0.0,0.0,0.0,0.0,4.4895,4.4895,4.4895,4.4895,4.4895,4.4895,4.4895,4.4895,4.4895,4.4895,4.4895,4.4895,4.4895,4.4895,4.4895,4.4895,4.4895,4.4895,0.0,4.4895,4.4895,4.4895,4.4895,4.4895,4.4895,4.4895,4.4895,4.4748,4.45,4.3974,4.338,4.2575,4.1232,4.0376,3.99,3.99,3.9946,3.9998,3.9927,3.9995,4.0105,4.0101,3.9876,3.9537,3.9169,3.8531,3.7799,3.7022,3.6562,3.6207,3.5784,3.5706,3.5706,3.5706,3.5651,3.5602,3.5602,3.554,3.5509,3.5509,3.5165,3.4552,3.3583,3.3473,3.3285,3.2835,3.2796,3.2839,3.2885,3.2891,3.2951,3.3048,3.3054,3.3073,3.3104,3.3104,3.3104,3.3104,3.3104,3.3339,3.3789,3.3789,3.4234,3.9318,3.9767,3.99,3.99,3.7897,3.4813,3.0598,2.6967,0.0,0.0,1.7089,1.6864,1.6549,0.0,2.0923,0.0,2.5529,2.9352,0.0,0.0,0.0,0.0,0.0,0.0,0.0,0.0,0.0,0.0,0.0,0.0,4.4895,4.4895,4.4895,4.4895,4.4895,4.4895,4.4895,4.4895,4.4895,4.4895,4.4895,4.4895,4.4895,4.4895,4.4895,4.4895,4.4895,0.0,0.0,4.4895,4.4895,4.4895,4.4895,4.4895,4.4895,4.4895,4.5043,4.5131,4.4431,4.4172,4.3945,4.2589,4.1285,4.0221,4.0008,4.004,4.0115,3.9988,4.0115,4.0287,4.0218,4.0261,4.0182,3.9607,3.8875,3.8167,3.7585,3.7309,3.6939,3.611,3.5958,3.59,3.5726,3.5706,3.5706,3.5706,3.5706,3.5706,3.5706,3.5706,3.5382,3.4532,3.4435,3.4172,3.3478,3.342,3.342,3.342,3.3527,3.3585,3.3585,3.3622,3.3668,3.3668,3.3668,3.3668,3.3668,3.3668,3.4018,3.4684,3.4684,3.5049,3.8159,3.9342,3.99,3.99,3.7442,3.3922,2.9764,0.0,2.1512,1.7215,1.5738,1.5677,1.7108,1.7624,1.9128,2.3036,2.3995,2.6756,0.0,0.0,0.0,0.0,0.0,0.0,0.0,0.0,0.0,0.0,0.0,0.0,4.4895,4.4895,4.4895,4.4895,4.4895,4.4895,4.4895,4.4895,4.4895,4.4895,4.4895,4.4895,4.4895,4.4895,4.4895,4.4895,4.4895,0.0,0.0,4.4895,4.4895,4.4895,4.4895,4.4895,4.4895,4.4895,4.5104,4.5342,4.5156,4.4777,4.4328,4.3983,4.2769,4.1268,4.0354,4.0186,4.0257,4.012,4.0181,4.033,4.0431,4.0462,4.0503,4.063,3.9985,3.9337,3.9288,3.8644,3.7828,3.6958,3.6784,3.6555,3.5823,3.5706,3.5706,3.5706,3.5706,3.5706,3.5706,3.5706,3.5662,3.5568,3.5546,3.553,3.5433,3.5433,3.5433,3.5433,3.5441,3.5444,3.5444,3.545,3.5455,3.5455,3.5455,3.5455,3.5455,3.5455,3.5494,3.5571,3.5571,3.5629,3.7244,3.8888,3.9786,3.9304,3.7011,3.3809,2.965,0.0,2.1455,1.7757,1.5923,1.5207,1.5864,1.6428,1.7498,1.9719,2.0914,2.3501,2.9053,0.0,0.0,0.0,0.0,0.0,0.0,0.0,0.0,0.0,0.0,0.0,4.5208,4.5001,4.4895,4.4895,4.4895,4.4895,4.4895,4.4895,4.4955,4.5085,4.5085,4.5129,4.5208,4.5208,4.5208,4.5208,4.5208,0.0,0.0,4.5208,4.5148,4.5085,4.5085,4.5016,4.4907,4.5045,4.5227,4.541,4.5424,4.5355,4.5155,4.4577,4.3597,4.2426,4.1331,4.072,4.0391,4.0261,4.0399,4.0582,4.0515,4.0581,4.0704,4.0784,4.0526,4.0139,3.9617,3.923,3.8721,3.7848,3.7674,3.7403,3.6574,3.6419,3.6265,3.5764,3.5706,3.5706,3.5706,3.5706,3.5706,3.5706,3.5706,3.5706,3.5706,3.5706,3.5706,3.5706,3.5706,3.5706,3.5706,3.5706,3.5706,3.5706,3.5706,3.5706,3.5706,3.5706,3.5706,3.5706,3.5706,3.5706,3.55,3.7334,3.8409,3.8324,3.586,3.2535,0.0,2.494,2.0884,1.7755,1.5999,1.5,1.5,1.5733,1.6609,1.7499,1.9041,2.1533,2.5516,2.8255,0.0,0.0,0.0,0.0,0.0,0.0,0.0,0.0,0.0,0.0,4.5405,4.5186,4.5047,4.5047,4.5047,4.5047,4.5047,4.5047,4.5129,4.5253,4.5253,4.5315,4.5405,4.5405,4.5405,4.5405,4.5405,0.0,0.0,4.5405,4.5341,4.5253,4.5253,4.5178,4.5059,4.5211,4.5336,4.5465,4.5567,4.5685,4.5707,4.5142,4.4384,4.3526,4.2734,4.1601,4.0556,4.0399,4.0575,4.0778,4.0621,4.07,4.0797,4.0797,4.0797,4.0623,4.0023,3.9887,3.9636,3.874,3.8586,3.8315,3.7422,3.7287,3.7093,3.6516,3.6439,3.6439,3.6439,3.6439,3.6439,3.6439,3.6207,3.5958,3.5726,3.5706,3.5706,3.5706,3.5706,3.5706,3.5706,3.5706,3.5706,3.5706,3.5706,3.5706,3.5706,3.5706,3.5706,3.5706,3.5706,3.5823,3.2619,3.432,3.5344,3.6997,3.3652,2.9518,2.7888,2.3635,1.9292,1.6741,1.5567,1.5,1.5,1.5777,1.6678,1.7566,1.9159,2.1463,2.4832,2.7441,0.0,0.0,0.0,0.0,0.0,0.0,0.0,0.0,0.0,0.0,4.5405,4.54,4.5381,4.5381,4.5381,4.5381,4.5381,4.5381,4.54,4.5405,4.5405,4.5405,4.5405,4.5405,4.5405,0.0,0.0,0.0,0.0,4.5405,4.5405,4.5405,4.5405,4.54,4.54,4.54,4.5479,4.56,4.56,4.5685,4.5803,4.5784,4.5239,4.4578,4.4574,4.2799,4.0752,4.0559,4.0631,4.0794,4.0794,4.0794,4.0797,4.0797,4.0797,4.0797,4.0797,4.0797,4.0526,3.9655,3.9481,3.921,3.8331,3.8196,3.8176,3.8176,3.8176,3.8176,3.8176,3.8176,3.8176,3.8176,3.7403,3.6574,3.5764,3.5706,3.5706,3.5706,3.5706,3.5706,3.5706,3.5706,3.5706,3.5706,3.5706,3.5706,3.5706,3.5706,3.5706,3.5706,3.5706,3.6129,2.79,2.9602,3.0507,2.989,2.8544,2.6649,2.3825,2.1547,1.9273,1.6722,1.5567,1.5012,1.5057,1.5318,1.6577,1.9841,2.0864,2.2428,2.579,0.0,0.0,0.0,0.0,0.0,0.0,0.0,0.0,0.0,0.0,0.0,4.5673,4.5673,4.5592,4.541,4.5405,4.5405,4.5405,4.5405,4.5457,4.5537,4.5537,4.5584,4.5673,4.5673,4.5673,0.0,0.0,0.0,0.0,4.5673,4.5621,4.5537,4.5537,4.5475,4.5419,4.5502,4.5563,4.5613,4.57,4.5756,4.5803,4.5803,4.5258,4.4597,4.4597,4.3611,4.237,4.1718,4.1174,4.0797,4.0797,4.0797,4.0797,4.0797,4.0797,4.0797,4.0797,4.0797,4.0719,4.0448,4.039,4.012,3.9246,3.9091,3.8898,3.8292,3.8196,3.8196,3.8196,3.8196,3.8196,3.8196,3.7944,3.7442,3.6593,3.6013,3.5706,3.5706,3.5706,3.5706,3.5706,3.5706,3.5706,3.5706,3.6245,3.6516,3.6516,3.7113,3.7403,3.7403,3.7403,3.7558,2.3923,2.5565,2.6263,2.5856,2.4795,2.3319,2.1216,1.9632,1.8068,1.6163,1.5392,1.5043,1.5098,1.565,1.7008,1.9726,2.1275,2.3,0.0,0.0,0.0,0.0,0.0,0.0,0.0,0.0,0.0,0.0,0.0,0.0,4.5803,4.5803,4.5719,4.5558,4.555,4.555,4.555,4.555,4.5592,4.5673,4.5673,4.5715,4.5803,4.5803,4.5803,0.0,0.0,0.0,0.0,4.5803,4.5745,4.5673,4.5673,4.5625,4.5563,4.5645,4.5673,4.5685,4.5759,4.5803,4.5803,4.5803,4.5455,4.5045,4.5045,4.4233,4.3131,4.2241,4.1645,4.118,4.0871,4.0797,4.0797,4.0797,4.0797,4.0797,4.0797,4.0797,4.0797,4.0797,4.0797,4.0623,4.0081,3.9984,3.981,3.9262,3.9185,3.9185,3.9185,3.9185,3.9185,3.9185,3.8895,3.847,3.7931,3.7116,3.6632,3.6632,3.6632,3.6632,3.6632,3.6632,3.6632,3.6632,3.7132,3.7384,3.7384,3.7944,3.8196,3.8196,3.8196,3.8389,0.0,2.1872,2.233,2.3834,2.1954,1.9711,1.9659,1.7915,0.0,1.5275,1.5095,1.5116,1.5197,1.6567,1.7814,1.8106,2.0983,2.3521,0.0,0.0,0.0,0.0,0.0,0.0,0.0,0.0,0.0,0.0,0.0,0.0,4.5803,4.5803,4.5803,4.5803,4.5803,4.5803,4.5803,4.5803,4.5803,4.5803,4.5803,4.5803,4.5803,4.5803,4.5803,0.0,0.0,0.0,0.0,4.5803,4.5803,4.5803,4.5803,4.5803,4.5803,4.5803,4.5803,4.5803,4.5803,4.5803,4.5803,4.5803,4.5803,4.5803,4.5803,4.4659,4.3224,4.2415,4.2106,4.1835,4.1084,4.0832,4.0797,4.0797,4.0797,4.0797,4.0797,4.0797,4.0797,4.0797,4.0797,4.0797,4.0797,4.0797,4.0797,4.0797,4.0797,4.0797,4.0797,4.0797,4.0797,4.0797,4.0081,3.9597,3.9597,3.874,3.8196,3.8196,3.8196,3.8196,3.8196,3.8196,3.8196,3.8196,3.8254,3.8312,3.8389,3.8389,3.8389,3.8389,3.8389,3.8818,1.4291,0.0,1.6716,1.6497,1.6793,1.7018,0.0,1.6322,1.6134,1.5282,1.5095,1.532,1.6033,1.6512,1.7883,2.1162,2.4014,2.6571,0.0,0.0,0.0,0.0,0.0,0.0,0.0,0.0,0.0,0.0,0.0,4.5803,4.5803,4.5803,4.5803,4.5803,4.5803,4.5803,4.5803,4.5803,4.5803,4.5803,4.5803,4.5803,4.5803,4.5803,4.5803,0.0,0.0,0.0,4.5803,4.5803,4.5803,4.5803,4.5803,4.5803,4.5803,4.5803,4.5803,4.5803,4.5803,4.5803,4.5803,4.5803,4.5803,4.5803,4.5803,4.5104,4.4249,4.4056,4.3034,4.1951,4.1777,4.1258,4.0797,4.0797,4.0797,4.0797,4.0797,4.0797,4.0797,4.0797,4.0797,4.0797,4.0797,4.0797,4.0797,4.0797,4.0797,4.0797,4.0797,4.0797,4.0797,4.0797,4.0623,4.0487,4.0487,3.9088,3.8196,3.8196,3.8196,3.8196,3.8196,3.8196,3.8196,3.8196,3.8856,3.9517,4.0194,4.0194,4.0194,4.0194,4.0194,4.0291,1.1219,1.3138,1.4902,1.4495,1.5363,1.6197,1.5826,1.5795,1.5718,1.527,1.551,1.5941,1.6447,1.7825,1.9515,2.1446,2.5219,0.0,0.0,0.0,0.0,0.0,0.0,0.0,0.0,0.0,0.0,0.0,0.0,4.5803,4.5803,4.5803,4.5803,4.5803,4.5803,4.5803,4.5803,4.5803,4.5803,4.5803,4.5803,4.5803,4.5803,4.5803,4.5803,0.0,0.0,0.0,4.5803,4.5803,4.5803,4.5803,4.5803,4.5803,4.5803,4.5803,4.5803,4.5803,4.5803,4.5803,4.5803,4.5803,4.5803,4.5803,4.5803,4.5494,4.5065,4.4694,4.392,4.3015,4.2202,4.1683,4.1258,4.089,4.0797,4.0797,4.0797,4.0797,4.0797,4.0797,4.0797,4.0797,4.0797,4.0797,4.0797,4.0797,4.0797,4.0797,4.0797,4.0797,4.0797,4.0797,4.0797,4.0797,4.0797,3.9942,3.9398,3.9398,3.9398,3.9398,3.9398,3.9398,3.9398,3.9398,3.9865,4.0332,4.0797,4.0797,4.0797,4.0797,4.0797,4.0797,1.0323,1.2837,1.5327,1.4997,1.5732,1.6559,1.6661,1.6123,1.5573,1.5512,1.6174,1.6869,1.7139,1.9655,0.0,0.0,0.0,0.0,0.0,0.0,0.0,0.0,0.0,0.0,0.0,0.0,0.0,0.0,0.0,4.5803,4.5803,4.5803,4.5803,4.5803,4.5803,4.5803,4.5803,4.5803,4.5803,4.5803,4.5803,4.5803,4.5803,4.5803,4.5803,4.5803,0.0,0.0,4.5803,4.5803,4.5803,4.5803,4.5803,4.5803,4.5803,4.5803,4.5803,4.5803,4.5803,4.5803,4.5803,4.5803,4.5803,4.5803,4.5803,4.5803,4.5668,4.4987,4.4694,4.4268,4.2783,4.2299,4.199,4.118,4.0987,4.0948,4.0835,4.0797,4.0797,4.0797,4.0797,4.0797,4.0797,4.0797,4.0797,4.0797,4.0797,4.0797,4.0797,4.0797,4.0797,4.0797,4.0797,4.0797,4.0797,4.0797,4.0797,4.0797,4.0797,4.0797,4.0797,4.0797,4.0797,4.0797,4.0797,4.0797,4.0797,4.0797,4.0797,4.0797,4.0797,4.0797,1.1794,1.4658,1.6697,1.4602,1.5846,1.7571,1.7602,1.7496,1.7208,1.654,1.7042,1.8065,1.9532,2.0851,2.2829,0.0,0.0,0.0,0.0,0.0,0.0,0.0,0.0,0.0,0.0,0.0,0.0,0.0,0.0,4.5803,4.5803,4.5803,4.5803,4.5803,4.5803,4.5803,4.5803,4.5803,4.5803,4.5803,4.5803,4.5803,4.5803,4.5803,4.5803,4.5803,0.0,4.5803,4.5803,4.5803,4.5803,4.5803,4.5803,4.5803,4.5803,4.5803,4.5803,4.5803,4.5803,4.5803,4.5803,4.5803,4.5803,4.5803,4.5803,4.5803,4.5765,4.5649,4.5123,4.4539,4.4268,4.365,4.2879,4.2028,4.1816,4.1625,4.0948,4.0797,4.0797,4.0797,4.0797,4.0797,4.0797,4.0797,4.0797,4.0797,4.0797,4.0797,4.0797,4.0797,4.0797,4.0797,4.0797,4.0797,4.0797,4.0797,4.0797,4.0797,4.0797,4.0797,4.0797,4.0797,4.0797,4.0797,4.0797,4.0797,4.0797,4.0797,4.0797,4.0797,4.0797,4.0797,1.155,1.4041,1.6378,1.6644,1.897,2.1085,2.0648,2.0561,2.0194,1.8916,1.9323,2.0292,0.0,0.0,2.7103,3.3214,0.0,0.0,0.0,0.0,0.0,0.0,0.0,0.0,0.0,0.0,0.0,0.0,0.0,0.0,4.5803,4.5803,4.5803,4.5803,4.5803,4.5803,4.5803,4.5803,4.5803,4.5803,4.5803,4.5803,4.5803,4.5803,4.5803,4.5803,0.0,4.5803,4.5803,4.5803,4.5803,4.5803,4.5803,4.5803,4.5803,4.5803,4.5803,4.5803,4.5803,4.5803,4.5803,4.5803,4.5803,4.5803,4.5803,4.5803,4.5803,4.5803,4.5533,4.5142,4.4713,4.4307,4.3785,4.2918,4.2705,4.2609,4.2222,4.2144,4.2144,4.2144,4.178,4.1451,4.1451,4.1084,4.0797,4.0797,4.0797,4.0797,4.0797,4.0797,4.0797,4.0797,4.0797,4.0797,4.0797,4.0797,4.0797,4.0797,4.0797,4.0797,4.0797,4.0797,4.0797,4.0797,4.0797,4.0797,4.0797,4.0797,4.0797,4.0797,4.0797,4.0797,1.1314,1.3651,1.6392,1.8805,2.1487,2.3647,2.4016,2.3946,2.3538,2.2666,2.3172,2.3911,0.0,2.7353,0.0,3.7895,0.0,0.0,0.0,0.0,0.0,0.0,0.0,0.0,0.0,0.0,0.0,0.0,0.0,0.0,4.5803,4.5803,4.5803,4.5803,4.5803,4.5803,4.5803,4.5803,4.5803,4.5803,4.5803,4.5803,4.5803,4.5803,4.5803,4.5803,4.5803,4.5803,4.5803,4.5803,4.5803,4.5803,4.5803,4.5803,4.5803,4.5803,4.5803,4.5803,4.5803,4.5803,4.5803,4.5803,4.5803,4.5803,4.5803,4.5803,4.5803,4.5803,4.5803,4.5668,4.5045,4.4887,4.4675,4.3804,4.3592,4.3553,4.334,4.3301,4.3301,4.3301,4.2763,4.2299,4.2299,4.1796,4.1316,4.1103,4.1084,4.1006,4.0813,4.0797,4.0871,4.1064,4.091,4.0871,4.1064,4.1277,4.1393,4.1393,4.1026,4.0797,4.0797,4.0797,4.0797,4.0797,4.0797,4.0797,4.0797,4.0987,4.1084,4.1084,4.1296,4.1393,1.2049,1.5001,1.8045,1.9851,2.11,2.2882,2.6753,2.702,2.6841,2.8354,2.9343,2.9727,0.0,3.2283,3.5571,3.6884,0.0,0.0,0.0,0.0,0.0,0.0,0.0,0.0,0.0,0.0,0.0,0.0,0.0,0.0,4.5803,4.5803,4.5803,4.5803,4.5803,4.5803,4.5803,4.5803,4.5803,4.5803,4.5803,4.5803,4.5803,4.5803,4.5803,4.5803,4.5803,4.5803,4.5803,4.5803,4.5803,4.5803,4.5803,4.5803,4.5803,4.5803,4.5803,4.5803,4.5803,4.5803,4.5803,4.5803,4.5803,4.5803,4.5803,4.5803,4.5803,4.5803,4.5803,4.5784,4.5726,4.5707,4.5513,4.4694,4.452,4.4288,4.3476,4.3301,4.3301,4.3301,4.3243,4.3205,4.3205,4.3166,4.286,4.2048,4.1912,4.1641,4.089,4.0797,4.1084,4.1835,4.1258,4.1103,4.1854,4.2667,4.3131,4.3131,4.1664,4.0797,4.0797,4.0797,4.0797,4.0797,4.0797,4.0797,4.0797,4.1548,4.1912,4.1932,4.2744,4.3131,1.1514,1.5155,1.8905,2.0105,2.3035,2.6327,2.9014,3.017,3.1018,3.2225,3.23,3.1891,3.1021,0.0,3.8782,0.0,0.0,0.0,0.0,0.0,0.0,0.0,0.0,0.0,0.0,0.0,0.0,0.0,0.0,0.0,4.5803,4.5803,4.5803,4.5803,4.5803,4.5803,4.5803,4.5803,4.5803,4.5803,4.5803,4.5803,4.5803,4.5803,4.5803,4.5803,4.5803,4.5803,4.5803,4.5803,4.5803,4.5803,4.5803,4.5803,4.5803,4.5803,4.5803,4.5803,4.5803,4.5803,4.5803,4.5803,4.5803,4.5803,4.5803,4.5803,4.5803,4.5803,4.5803,4.5803,4.5803,4.5803,4.5726,4.5416,4.5355,4.5262,4.4933,4.4856,4.4856,4.4856,4.4446,4.4114,4.4114,4.365,4.3185,4.286,4.2802,4.2705,4.2396,4.2357,4.2473,4.2783,4.2531,4.2473,4.2783,4.3108,4.3301,4.3301,4.2705,4.2357,4.2357,4.2357,4.2357,4.2357,4.2357,4.2357,4.2357,4.2667,4.2802,4.2821,4.315,4.3301,1.2057,1.5596,1.9497,2.1172,2.4836,2.8745,3.1567,3.288,3.4134,3.6345,3.5682,3.4538,3.3938,0.0,0.0,0.0,0.0,0.0,0.0,0.0,0.0,0.0,0.0,0.0,0.0,0.0,0.0,0.0,0.0,0.0,0.0,4.5803,4.5803,4.5803,4.5803,4.5803,4.5803,4.5803,4.5803,4.5803,4.5803,4.5803,4.5803,4.5803,4.5803,4.5803,4.5803,4.5803,4.5803,4.5803,4.5803,4.5803,4.5803,4.5803,4.5803,4.5803,4.5803,4.5803,4.5803,4.5803,4.5803,4.5803,4.5803,4.5803,4.5803,4.5803,4.5803,4.5803,4.5803,4.5803,4.5803,4.5803,4.5803,4.5803,4.5803,4.5803,4.5803,4.5803,4.5803,4.5803,4.5355,4.4987,4.4987,4.4485,4.4001,4.3746,4.3708,4.3611,4.334,4.3301,4.3301,4.3301,4.3769,4.3982,4.3727,4.3943,4.4098,4.4098,4.4098,4.3846,4.3321,4.3301,4.3301,4.3301,4.3301,4.3301,4.3301,4.3543,4.3671,4.3671,4.3932,4.4063,1.3988,1.6518,1.9959,2.3345,2.6132,2.9403,3.4527,3.5049,3.5881,4.0965,4.0014,3.8254,3.8215,3.8234,0.0,0.0,0.0,0.0,0.0,0.0,0.0,0.0,0.0,0.0,0.0,0.0,0.0,0.0,0.0,0.0,0.0,4.5803,4.5803,4.5803,4.5803,4.5803,4.5803,4.5803,4.5803,4.5803,4.5803,4.5803,4.5803,4.5803,4.5803,4.5803,4.5803,4.5803,4.5803,4.5803,4.5803,4.5803,4.5803,4.5803,4.5803,4.5803,4.5803,4.5803,4.5803,4.5803,4.5803,4.5803,4.5803,4.5803,4.5803,4.5803,4.5803,4.5803,4.5803,4.5803,4.5803,4.5803,4.5803,4.5803,4.5803,4.5803,4.5803,4.5803,4.5803,4.5803,4.5803,4.5803,4.5803,4.5803,4.5533,4.4733,4.4617,4.4307,4.3437,4.3321,4.3321,4.3321,4.4817,4.5474,4.4675,4.5336,4.5803,4.5803,4.5803,4.5068,4.3398,4.3321,4.3321,4.3321,4.3321,4.3321,4.3321,4.4111,4.4518,4.4537,4.5333,4.5704,1.3252,1.7344,2.2012,2.3037,2.7933,3.3059,3.5204,3.6889,3.892,4.2222,4.2799,4.1967,3.9556,4.0578,0.0,0.0,0.0,0.0,0.0,0.0,0.0,0.0,0.0,0.0,0.0,0.0,0.0,0.0,0.0,0.0,0.0,4.5803,4.5803,4.5803,4.5803,4.5803,4.5803,4.5803,4.5803,4.5803,4.5803,4.5803,4.5803,4.5803,4.5803,4.5803,4.5803,4.5803,4.5803,4.5803,4.5803,4.5803,4.5803,4.5803,4.5803,4.5803,4.5803,4.5803,4.5803,4.5803,4.5803,4.5803,4.5803,4.5803,4.5803,4.5803,4.5803,4.5803,4.5803,4.5803,4.5803,4.5803,4.5803,4.5803,4.5803,4.5803,4.5803,4.5803,4.5803,4.5803,4.5803,4.5803,4.5803,4.5803,4.5726,4.5474,4.5436,4.5358,4.5088,4.5068,4.5068,4.5068,4.5494,4.5707,4.5455,4.5668,4.5803,4.5803,4.5803,4.558,4.5088,4.5054,4.5044,4.4986,4.5034,4.5034,4.4986,4.5225,4.5333,4.5353,4.5596,4.5704,1.6533,2.0502,2.4813,2.6534,3.0716,3.5071,3.7621,3.9652,4.1451,4.2976,4.3727,4.3553,4.1838,4.2492,0.0,0.0,0.0,0.0,0.0,0.0,0.0,0.0,0.0,0.0,0.0,0.0,0.0,0.0,0.0,0.0,0.0,4.5803,4.5803,4.5803,4.5803,4.5803,4.5803,4.5803,4.5803,4.5803,4.5803,4.5803,4.5803,4.5803,4.5803,4.5803,4.5803,4.5803,4.5803,4.5803,4.5803,4.5803,4.5803,4.5803,4.5803,4.5803,4.5803,4.5803,4.5803,4.5803,4.5803,4.5803,4.5803,4.5803,4.5803,4.5803,4.5803,4.5803,4.5803,4.5803,4.5803,4.5803,4.5803,4.5803,4.5803,4.5803,4.5803,4.5803,4.5803,4.5803,4.5803,4.5803,4.5803,4.5803,4.5803,4.5803,4.5803,4.5803,4.5803,4.5803,4.5803,4.5803,4.5803,4.5803,4.5803,4.5793,4.5801,4.5801,4.5787,4.5761,4.5762,4.5792,4.5772,4.5708,4.5731,4.5731,4.5704,4.5707,4.5699,4.5699,4.5664,4.5656,2.1586,2.4523,2.7709,3.1925,3.3924,3.6096,4.081,4.257,4.3205,4.3282,0.0,4.365,4.4442,4.4017,4.3785,0.0,0.0,0.0,0.0,0.0,0.0,0.0,0.0,0.0,0.0,0.0,0.0,0.0,0.0,0.0,0.0,4.5803,4.5803,4.5803,4.5803,4.5803,4.5803,4.5803,4.5803,4.5803,4.5803,4.5803,4.5803,4.5803,4.5803,4.5803,4.5803,4.5803,4.5803,4.5803,4.5803,4.5803,4.5803,4.5803,4.5803,4.5803,4.5803,4.5803,4.5803,4.5803,4.5803,4.5803,4.5803,4.5803,4.5803,4.5803,4.5803,4.5803,4.5803,4.5803,4.5803,4.5803,4.5803,4.5803,4.5803,4.5803,4.5803,4.5803,4.5803,4.5803,4.5803,4.5803,4.5803,4.5803,4.5803,4.5803,4.5803,4.5803,4.5803,4.5803,4.5803,4.5803,4.5803,4.5803,4.5803,4.581,4.5807,4.5807,4.575,4.5707,4.5701,4.5758,4.5762,4.5696,4.57,4.57,4.5696,4.5694,4.5693,4.5693,4.5631,4.5594,1.8703,2.2722,2.7574,3.1173,3.5278,3.8862,4.0658,4.1683,4.2473,4.3166,4.3843,4.4384,4.4578,4.4968,0.0,0.0,0.0,0.0,0.0,0.0,0.0,0.0,0.0,0.0,0.0,0.0,0.0,0.0,0.0,0.0,4.5803,4.5803,4.5803,4.5803,4.5803,4.5803,4.5803,4.5803,4.5803,0.0,4.5803,4.5803,4.5803,4.5803,4.5803,4.5803,4.5803,4.5803,4.5803,4.5803,4.5803,4.5803,4.5803,4.5803,4.5803,4.5803,4.5803,4.5803,4.5803,4.5803,4.5803,4.5803,4.5803,4.5803,4.5803,4.5803,4.5803,4.5803,4.5803,4.5803,4.5803,4.5803,4.5803,4.5803,4.5803,4.5803,4.5803,4.5803,4.5803,4.5803,4.5803,4.5803,4.5803,4.5803,4.5803,4.5803,4.5803,4.5803,4.5803,4.5803,4.5803,4.5803,4.5803,4.5803,4.5803,4.581,4.5807,4.5807,4.575,4.5707,4.5701,4.5711,4.5684,4.5625,4.5678,4.5678,4.562,4.5612,4.5627,4.5627,4.5618,4.5594,1.9477,2.3712,2.8545,3.3593,3.7193,3.9733,4.0603,4.1122,4.1548,4.2009,4.3092,4.3978,4.3978,0.0,0.0,0.0,0.0,0.0,0.0,0.0,0.0,0.0,0.0,0.0,0.0,0.0,0.0,0.0,0.0,4.5803,4.5803,4.5803,4.5803,4.5803,4.5803,4.5803,4.5803,4.5803,4.5803,4.5803,4.5803,4.5803,4.5803,4.5803,4.5803,4.5803,4.5803,4.5803,4.5803,4.5803,4.5803,4.5803,4.5803,4.5803,4.5803,4.5803,4.5803,4.5803,4.5803,4.5803,4.5803,4.5803,4.5803,4.5803,4.5803,4.5803,4.5803,4.5803,4.5803,4.5803,4.5803,4.5803,4.5803,4.5803,4.5803,4.5803,4.5803,4.5803,4.5803,4.5803,4.5803,4.5803,4.5803,4.5803,4.5803,4.5803,4.5803,4.5803,4.5803,4.5803,4.5803,4.5803,4.5803,4.5796,4.5798,4.5761,4.575,4.575,4.5687,4.5654,4.5648,4.565,4.5642,4.5594,4.5635,4.5635,4.5594,4.5594,4.5594,4.5594,4.5594,4.5594,2.0174,2.4954,2.9904,3.601,3.853,3.9694,4.041,4.07,4.0797,4.0797,4.2009,4.3073,0.0,0.0,0.0,0.0,0.0,0.0,0.0,0.0,0.0,0.0,0.0,0.0,0.0,0.0,0.0,0.0,0.0,4.5803,4.5803,4.5803,4.5803,4.5803,4.5803,4.5803,4.5803,4.5803,4.5803,4.5803,4.5803,4.5803,4.5803,4.5803,4.5803,4.5803,4.5803,4.5803,4.5803,4.5803,4.5803,4.5803,4.5803,4.5803,4.5803,4.5803,4.5803,4.5803,4.5803,4.5803,4.5803,4.5803,4.5803,4.5803,4.5803,4.5803,4.5803,4.5803,4.5803,4.5803,4.5803,4.5803,4.5803,4.5803,4.5803,4.5803,4.5803,4.5803,4.5803,4.5803,4.5803,4.5803,4.5803,4.5803,4.5803,4.5803,4.5803,4.5803,4.5803,4.5803,4.5803,4.5803,4.5803,4.5793,4.5799,4.5742,4.5719,4.5694,4.5648,4.5603,4.5594,4.5594,4.5594,4.5594,4.5594,4.5594,4.5594,4.5594,4.5594,4.5594,4.5594,4.5594,1.569,2.3136,3.1004,3.412,3.7218,3.952,0.0,0.0,4.0797,0.0,4.1529,0.0,0.0,0.0,0.0,0.0,0.0,0.0,0.0,0.0,0.0,0.0,0.0,0.0,0.0,0.0,0.0,0.0,4.5803,4.5803,4.5803,4.5803,4.5803,4.5803,4.5803,4.5803,4.5803,4.5803,4.5803,4.5803,4.5803,4.5803,4.5803,4.5803,4.5803,4.5803,4.5803,4.5803,4.5803,4.5803,4.5803,4.5803,4.5803,4.5803,4.5803,4.5803,4.5803,4.5803,4.5803,4.5803,4.5803,4.5803,4.5803,4.5803,4.5803,4.5803,4.5803,4.5803,4.5803,4.5803,4.5803,4.5803,4.5803,4.5803,4.5803,4.5803,4.5803,4.5803,4.5803,4.5803,4.5803,4.5803,4.5803,4.5803,4.5803,4.5803,4.5803,4.5803,4.5803,4.5803,4.5803,4.5803,4.5803,4.5803,4.5796,4.5783,4.5762,4.57,4.5698,4.5652,4.5594,4.5594,4.5594,4.5594,4.5594,4.5594,4.5594,4.5594,4.5594,4.5594,4.5594,4.5594,1.6633,2.2842,2.8818,3.3269,3.5535,3.7025,3.8453,3.9459,4.0062,4.0062,4.0736,0.0,0.0,0.0,0.0,0.0,0.0,0.0,0.0,0.0,0.0,0.0,0.0,0.0,0.0,0.0,0.0,0.0,4.5803,4.5803,4.5803,4.5803,4.5803,4.5803,4.5803,4.5803,4.5803,4.5803,4.5803,4.5803,4.5803,4.5803,4.5803,4.5803,4.5803,4.5803,4.5803,4.5803,4.5803,4.5803,4.5803,4.5803,4.5803,4.5803,4.5803,4.5803,4.5803,4.5803,4.5803,4.5803,4.5803,4.5803,4.5803,4.5803,4.5803,4.5803,4.5803,4.5803,4.5803,4.5803,4.5803,4.5803,4.5803,4.5803,4.5803,4.5803,4.5803,4.5803,4.5803,4.5803,4.5803,4.5803,4.5803,4.5803,4.5803,4.5803,4.5803,4.5803,4.5803,4.5803,4.5803,4.5803,4.5803,4.5796,4.5794,4.5795,4.5769,4.5708,4.5707,4.5698,4.5652,4.5652,4.564,4.5594,4.5594,4.5594,4.5594,4.5594,4.5594,4.5594,4.5594,4.5594,1.6533,2.1253,2.5432,3.0523,3.2786,3.4352,0.0,0.0,3.8959,0.0,0.0,0.0,0.0,0.0,0.0,0.0,0.0,0.0,0.0,0.0,0.0,0.0,0.0,0.0,0.0,0.0,0.0,0.0,4.5378,4.5494,4.5494,4.5687,4.5803,4.5803,4.5803,4.5803,4.5803,4.5803,4.5803,4.5803,4.5803,4.5803,4.5803,4.5803,4.5803,4.5803,4.5803,4.5803,4.5803,4.5803,4.5803,4.5803,4.5803,4.5803,4.5803,4.5803,4.5803,4.5803,4.5803,4.5803,4.5803,4.5803,4.5803,4.5803,4.5803,4.5803,4.5803,4.5803,4.5803,4.5803,4.5803,4.5803,4.5803,4.5803,4.5803,4.5803,4.5803,4.5803,4.5803,4.5803,4.5803,4.5803,4.5803,4.5803,4.5803,4.5803,4.5803,4.5803,4.5803,4.5803,4.5803,4.5803,4.5803,4.5793,4.5803,4.5803,4.5784,4.5723,4.5723,4.5723,4.5698,4.5705,4.5684,4.5631,4.5618,4.5594,4.5594,4.5594,4.5594,4.5594,4.5594,4.5594,1.2317,1.6804,2.133,2.4041,2.8352,3.2394,0.0,0.0,0.0,0.0,0.0,0.0,0.0,0.0,0.0,0.0,0.0,0.0,0.0,0.0,0.0,0.0,0.0,0.0,0.0,0.0,0.0,0.0,4.4191,4.4655,4.4655,4.5397,4.5803,4.5803,4.5803,4.5803,4.5803,4.5803,4.5803,4.5803,4.5803,4.5803,4.5803,4.5803,4.5803,4.5803,4.5803,4.5803,4.5803,4.5803,4.5803,4.5803,4.5803,4.5803,4.5803,4.5803,4.5803,4.5803,4.5803,4.5803,4.5803,4.5803,4.5803,4.5803,4.5803,4.5803,4.5803,4.5803,4.5803,4.5803,4.5803,4.5803,4.5803,4.5803,4.5803,4.5803,4.5803,4.5803,4.5803,4.5803,4.5803,4.5803,4.5803,4.5803,4.5803,4.5803,4.5803,4.5803,4.5803,4.5803,4.5803,4.5803,4.5803,4.5803,4.5803,4.5803,4.5805,4.5807,4.5784,4.5765,4.5704,4.5702,4.5701,4.5697,4.5635,4.5594,4.5594,4.5594,4.5594,4.5594,4.5594,4.5594,1.1372,1.4468,1.8009,2.1685,2.5201,2.8352,3.0619,3.3714,3.6306,0.0,0.0,0.0,0.0,0.0,0.0,0.0,0.0,0.0,0.0,0.0,0.0,0.0,0.0,0.0,0.0,0.0,0.0,0.0,0.0,4.3766,4.3766,4.4562,4.5026,4.5026,4.5533,4.5803,4.5803,4.5803,4.5803,4.5803,4.5803,4.5803,4.5803,4.5803,4.5803,4.5803,4.5803,4.5803,4.5803,4.5803,4.5803,4.5803,4.5803,4.5803,4.5803,4.5803,4.5803,4.5803,4.5803,4.5803,4.5803,4.5803,4.5803,4.5803,4.5803,4.5803,4.5803,4.5803,4.5803,4.5803,4.5803,4.5803,4.5803,4.5803,4.5803,4.5803,4.5803,4.5803,4.5803,4.5803,4.5803,4.5803,4.5803,4.5803,4.5803,4.5803,4.5803,4.5803,4.5803,4.5803,4.5803,4.5803,4.5803,4.5803,4.5803,4.5803,4.58,4.5805,4.5805,4.5776,4.5708,4.5692,4.5675,4.564,4.5603,4.5594,4.5594,4.5594,4.5594,4.5594,4.5594,4.5594,0.9883,0.0,0.0,0.0,2.1683,2.4233,2.7658,0.0,3.3521,0.0,0.0,0.0,0.0,0.0,0.0,0.0,0.0,0.0,0.0,0.0,0.0,0.0,0.0,0.0,0.0,0.0,0.0,0.0,0.0,0.0,4.286,4.3688,4.4307,4.4597,4.5123,4.5533,4.5803,4.5803,4.5803,4.5803,4.5803,4.5803,4.5803,4.5803,4.5803,4.5803,4.5803,4.5803,4.5803,4.5803,4.5803,4.5803,4.5803,4.5803,4.5803,4.5803,4.5803,4.5803,4.5803,4.5803,4.5803,4.5803,4.5803,4.5803,4.5803,4.5803,4.5803,4.5803,4.5803,4.5803,4.5803,4.5803,4.5803,4.5803,4.5803,4.5803,4.5803,4.5803,4.5803,4.5803,4.5803,4.5803,4.5803,4.5803,4.5803,4.5803,4.5803,4.5803,4.5803,4.5803,4.5803,4.5803,4.5803,4.5803,4.5803,4.5803,4.5803,4.5803,4.5803,4.5775,4.575,4.5712,4.5672,4.5635,4.5599,4.5594,4.5594,4.5594,4.5594,4.5594,4.5594,4.5594,0.0,0.0,0.0,0.0,0.0,0.0,2.5292,0.0,0.0,0.0,0.0,0.0,0.0,0.0,0.0,0.0,0.0,0.0,0.0,0.0,0.0,0.0,0.0,0.0,0.0,0.0,0.0,0.0,4.1529,4.1951,4.1951,4.2783,4.3669,4.4539,4.4597,4.4968,4.5765,4.5784,4.5803,4.5803,4.5803,4.5803,4.5803,4.5803,4.5803,4.5803,4.5803,4.5803,4.5803,4.5803,4.5803,4.5803,4.5803,4.5803,4.5803,4.5803,4.5803,4.5803,4.5803,4.5803,4.5803,4.5803,4.5803,4.5803,4.5803,4.5803,4.5803,4.5803,4.5803,4.5803,4.5803,4.5803,4.5803,4.5803,4.5803,4.5803,4.5803,4.5803,4.5803,4.5803,4.5803,4.5803,4.5803,4.5803,4.5803,4.5803,4.5803,4.5803,4.5803,4.5803,4.5803,4.5803,4.5803,4.5803,4.5803,4.5803,4.5803,4.5803,4.5803,4.5809,4.5807,4.5727,4.5703,4.5701,4.5635,4.5594,4.5594,4.5594,4.5594,4.5594,4.5594,4.5594,0.8718,0.0,0.0,0.0,0.0,0.0,0.0,0.0,0.0,0.0,0.0,0.0,0.0,0.0,0.0,0.0,0.0,0.0,0.0,0.0,0.0,0.0,0.0,0.0,0.0,0.0,0.0,0.0,4.1006,4.1122,4.1122,4.1912,4.2763,4.363,4.4268,4.4713,4.4926,4.5513,4.5803,4.5803,4.5803,4.5803,4.5803,4.5803,4.5803,4.5803,4.5803,4.5803,4.5803,4.5803,4.5803,4.5803,4.5803,4.5803,4.5803,4.5803,4.5803,4.5803,4.5803,4.5803,4.5803,4.5803,4.5803,4.5803,4.5803,4.5803,4.5803,4.5803,4.5803,4.5803,4.5803,4.5803,4.5803,4.5803,4.5803,4.5803,4.5803,4.5803,4.5803,4.5803,4.5803,4.5803,4.5803,4.5803,4.5803,4.5803,4.5803,4.5803,4.5803,4.5803,4.5803,4.5803,4.5803,4.5803,4.5803,4.5803,4.5803,4.5803,4.5803,4.5775,4.5727,4.5712,4.5672,4.5631,4.5618,4.5594,4.5594,4.5594,4.5594,4.5594,4.5594,4.5594,0.0,0.0,0.0,0.0,0.0,0.0,0.0,2.1586,0.0,0.0,0.0,0.0,0.0,0.0,0.0,0.0,0.0,0.0,0.0,0.0,0.0,0.0,0.0,0.0,0.0,4.0584,4.0797,4.0797,4.0797,4.0797,4.0797,4.1238,4.1893,4.2725,4.3243,4.3862,4.4597,4.5065,4.5474,4.5803,4.5803,4.5803,4.5803,4.5803,4.5803,4.5803,4.5803,4.5803,4.5803,4.5803,4.5803,4.5803,4.5803,4.5803,4.5803,4.5803,4.5803,4.5803,4.5803,4.5803,4.5803,4.5803,4.5803,4.5803,4.5803,4.5803,4.5803,4.5803,4.5803,4.5803,4.5803,4.5803,4.5803,4.5803,4.5803,4.5803,4.5803,4.5803,4.5803,4.5803,4.5803,4.5803,4.5803,4.5803,4.5803,4.5803,4.5803,4.5803,4.5803,4.5803,4.5803,4.5803,4.5803,4.5803,4.5803,4.5803,4.5803,4.5803,4.5803,4.5771,4.5708,4.5704,4.5664,4.5594,4.5594,4.5594,4.5594,4.5594,4.5594,4.5594,4.5594,4.5594,1.3074,1.3691,0.0,0.0,0.0,0.0,2.1085,2.1685,2.24,0.0,0.0,0.0,0.0,0.0,0.0,0.0,0.0,0.0,0.0,0.0,0.0,0.0,0.0,0.0,3.9365,4.0139,4.0661,4.0661,4.0758,4.0797,4.0797,4.0797,4.1122,4.1835,4.1951,4.2744,4.4307,4.4501,4.4968,4.5668,4.5765,4.5803,4.5803,4.5803,4.5803,4.5803,4.5803,4.5803,4.5803,4.5803,4.5803,4.5803,4.5803,4.5803,4.5803,4.5803,4.5803,4.5803,4.5803,4.5803,4.5803,4.5803,4.5803,4.5803,4.5803,4.5803,4.5803,4.5803,4.5803,4.5803,4.5803,4.5803,4.5803,4.5803,4.5803,4.5803,4.5803,4.5803,4.5803,4.5803,4.5803,4.5803,4.5803,4.5803,4.5803,4.5803,4.5803,4.5803,4.5803,4.5803,4.5803,4.5803,4.5803,4.5803,4.5803,4.5803,4.5803,4.5803,4.5803,4.5771,4.5715,4.5708,4.5668,4.5603,4.5594,4.5594,4.5594,4.5594,4.5594,4.5594,4.5594,4.5594,1.5341,1.5901,1.6846,1.6,0.0,0.0,1.7025,1.8241,1.9825,0.0,0.0,0.0,0.0,0.0,0.0,0.0,0.0,0.0,0.0,0.0,0.0,0.0,0.0,0.0,3.8447,3.9246,3.9752,3.9752,4.041,4.0797,4.0797,4.0797,4.0871,4.1026,4.1661,4.2164,4.2492,4.3901,4.4675,4.4829,4.5494,4.5803,4.5803,4.5803,4.5803,4.5803,4.5803,4.5803,4.5803,4.5803,4.5803,4.5803,4.5803,4.5803,4.5803,4.5803,4.5803,4.5803,4.5803,4.5803,4.5803,4.5803,4.5803,4.5803,4.5803,4.5803,4.5803,4.5803,4.5803,4.5803,4.5803,4.5803,4.5803,4.5803,4.5803,4.5803,4.5803,4.5803,4.5803,4.5803,4.5803,4.5803,4.5803,4.5803,4.5803,4.5803,4.5803,4.5803,4.5803,4.5803,4.5803,4.5803,4.5803,4.5803,4.5803,4.5803,4.5803,4.5803,4.5803,4.5786,4.5777,4.5723,4.5684,4.5688,4.5631,4.5594,4.5594,4.5594,4.5594,4.5594,4.5594,4.5594,1.7893,1.7815,1.8451,1.8476,0.0,0.0,0.0,1.9438,2.0112,2.137,0.0,0.0,0.0,0.0,0.0,0.0,0.0,0.0,0.0,0.0,0.0,0.0,0.0,0.0,3.6903,3.7715,3.8376,3.8821,3.9652,4.0158,4.0158,4.0565,4.0797,4.0797,4.118,4.1587,4.2009,4.2879,4.3746,4.4597,4.5007,4.5416,4.5803,4.5803,4.5803,4.5803,4.5803,4.5803,4.5803,4.5803,4.5803,4.5803,4.5803,4.5803,4.5803,4.5803,4.5803,4.5803,4.5803,4.5803,4.5803,4.5803,4.5803,4.5803,4.5803,4.5803,4.5803,4.5803,4.5803,4.5803,4.5803,4.5803,4.5803,4.5803,4.5803,4.5803,4.5803,4.5803,4.5803,4.5803,4.5803,4.5803,4.5803,4.5803,4.5803,4.5803,4.5803,4.5803,4.5803,4.5803,4.5803,4.5803,4.5803,4.5803,4.5803,4.5803,4.5803,4.5803,4.5803,4.5809,4.5807,4.5746,4.5676,4.5648,4.5622,4.5594,4.5594,4.5594,4.5594,4.5594,4.5594,4.5594,0.0,0.0,0.0,0.0,0.0,2.0655,0.0,0.0,0.0,2.2648,0.0,0.0,0.0,0.0,0.0,0.0,0.0,0.0,0.0,0.0,0.0,0.0,0.0,0.0,0.0,3.5568,3.6566,3.8099,3.8407,3.8819,3.9465,4.0178,4.0623,4.0794,4.0797,4.1103,4.1757,4.1912,4.2718,4.4112,4.4453,4.4943,4.5589,4.574,4.5803,4.5803,4.5803,4.5803,4.5803,4.5803,4.5803,4.5803,4.5803,4.5803,4.5803,4.5803,4.5803,4.5803,4.5803,4.5803,4.5803,4.5803,4.5803,4.5803,4.5803,4.5803,4.5803,4.5803,4.5803,4.5803,4.5803,4.5803,4.5803,4.5803,4.5803,4.5803,4.5803,4.5803,4.5803,4.5803,4.5803,4.5803,4.5803,4.5803,4.5803,4.5803,4.5803,4.5803,4.5803,4.5803,4.5803,4.5803,4.5803,4.5803,4.5803,4.5803,4.5803,4.5803,4.5803,4.5793,4.5799,4.5731,4.5664,4.5594,4.5594,4.5594,4.5594,4.5594,4.5594,4.5594,4.5594,4.5594,0.0,0.0,0.0,0.0,2.325,0.0,0.0,0.0,2.0971,1.8956,0.0,0.0,0.0,0.0,0.0,0.0,0.0,0.0,0.0,0.0,0.0,0.0,0.0,0.0,0.0,3.2406,3.4059,3.7909,3.6202,3.6309,3.933,3.9597,4.0004,4.0777,4.0797,4.0832,4.0948,4.1641,4.2123,4.2395,4.3898,4.4679,4.4858,4.5509,4.5803,4.5803,4.5803,4.5803,4.5803,4.5803,4.5803,4.5803,4.5803,4.5803,4.5803,4.5803,4.5803,4.5803,4.5803,4.5803,4.5803,4.5803,4.5803,4.5803,4.5803,4.5803,4.5803,4.5803,4.5803,4.5803,4.5803,4.5803,4.5803,4.5803,4.5803,4.5803,4.5803,4.5803,4.5803,4.5803,4.5803,4.5803,4.5803,4.5803,4.5803,4.5803,4.5803,4.5803,4.5803,4.5803,4.5803,4.5803,4.5803,4.5803,4.5803,4.5803,4.5803,4.5803,4.5803,4.5803,4.58,4.5746,4.5664,4.5594,4.5594,4.5594,4.5594,4.5594,4.5594,4.5594,4.5594,4.5594,0.0,0.0,0.0,0.0,0.0,0.0,2.124,0.0,2.0774,0.0,0.0,0.0,0.0,0.0,0.0,0.0,0.0,0.0,0.0,0.0,0.0,0.0,0.0,0.0,0.0,0.0,0.0,0.0,3.3265,3.3991,3.6408,3.7931,3.9149,4.0023,4.0545,4.0797,4.0797,4.1122,4.157,4.2104,4.2812,4.3688,4.4704,4.5057,4.5423,4.5814,4.5911,4.5911,4.581,4.5873,4.5861,4.5803,4.5803,4.5803,4.5803,4.5803,4.5803,4.5803,4.5803,4.5803,4.5803,4.5803,4.5803,4.5803,4.5803,4.5803,4.5803,4.5803,4.5803,4.5803,4.5803,4.5803,4.5803,4.5803,4.5803,4.5803,4.5803,4.5803,4.5803,4.5803,4.5803,4.5803,4.5803,4.5803,4.5803,4.5803,4.5803,4.5803,4.5803,4.5803,4.5803,4.5803,4.5803,4.5803,4.5803,4.5803,4.5803,4.5803,4.5803,4.5796,4.5794,4.5781,4.5723,4.5652,4.5652,4.564,4.5594,4.5594,4.5594,4.5594,4.5594,4.5594,2.5356,0.0,0.0,0.0,0.0,0.0,0.0,0.0,0.0,0.0,0.0,0.0,0.0,0.0,0.0,0.0,0.0,0.0,0.0,0.0,0.0,0.0,0.0,0.0,0.0,0.0,0.0,0.0,0.0,3.1415,3.4242,3.6381,3.8121,3.9462,4.0365,4.0811,4.0797,4.0843,4.1164,4.1794,4.203,4.2916,4.4418,4.4674,4.5209,4.5891,4.6048,4.6011,4.5888,4.5993,4.5977,4.5879,4.5879,4.5879,4.5872,4.5815,4.5803,4.5803,4.5803,4.5803,4.5803,4.5803,4.5803,4.5803,4.5803,4.5803,4.5803,4.5803,4.5803,4.5803,4.5803,4.5803,4.5803,4.5803,4.5803,4.5803,4.5803,4.5803,4.5803,4.5803,4.5803,4.5803,4.5803,4.5803,4.5803,4.5803,4.5803,4.5803,4.5803,4.5803,4.5803,4.5803,4.5803,4.5803,4.5803,4.5803,4.5803,4.5803,4.5803,4.5809,4.5807,4.5807,4.577,4.5701,4.5701,4.568,4.5594,4.5594,4.5594,4.5594,4.5594,4.5594,0.0,0.0,0.0,2.5008,0.0,0.0,0.0,0.0,2.2379,0.0,0.0,0.0,0.0,0.0,0.0,0.0,0.0,0.0,0.0,0.0,0.0,0.0,0.0,0.0,0.0,0.0,0.0,0.0,0.0,0.0,3.4092,3.5281,3.6925,3.9423,4.0407,4.0872,4.0797,4.0928,4.1005,4.1046,4.1825,4.2696,4.3657,4.4447,4.5275,4.6093,4.6098,4.6096,4.6093,4.6095,4.6095,4.6093,4.6093,4.6093,4.6074,4.5866,4.5803,4.5803,4.5803,4.5803,4.5803,4.5803,4.5803,4.5803,4.5803,4.5803,4.5803,4.5803,4.5803,4.5803,4.5803,4.5803,4.5803,4.5803,4.5803,4.5803,4.5803,4.5803,4.5803,4.5803,4.5803,4.5803,4.5803,4.5803,4.5803,4.5803,4.5803,4.5803,4.5803,4.5803,4.5803,4.5803,4.5803,4.5803,4.5803,4.5803,4.5803,4.5803,4.5803,4.5809,4.5807,4.5807,4.577,4.5701,4.5701,4.568,4.5594,4.5594,4.5594,4.5594,4.5594,4.5594,0.0,0.0,3.0864,2.6841,0.0,0.0,0.0,0.0,0.0,0.0,0.0,0.0,0.0,0.0,0.0,0.0,0.0,0.0,0.0,0.0,0.0,0.0,0.0,0.0,0.0,0.0,0.0,0.0,2.5591,0.0,0.0,3.3443,3.5745,3.7715,3.9248,4.0311,4.0855,4.0961,4.1013,4.1069,4.1341,4.1913,4.2763,4.3654,4.4493,4.5283,4.5945,4.6172,4.6103,4.6146,4.6139,4.61,4.61,4.61,4.6087,4.598,4.5922,4.5929,4.5838,4.5803,4.5803,4.5803,4.5803,4.5803,4.5803,4.5803,4.5803,4.5803,4.5803,4.5803,4.5803,4.5803,4.5803,4.5803,4.5803,4.5803,4.5803,4.5803,4.5803,4.5803,4.5803,4.5803,4.5803,4.5803,4.5803,4.5803,4.5803,4.5803,4.5803,4.5803,4.5803,4.5803,4.5803,4.5803,4.5803,4.5803,4.5803,4.5803,4.5803,4.58,4.5805,4.5805,4.578,4.5766,4.5719,4.5683,4.5676,4.5627,4.5594,4.5594,4.5594,4.5594,3.2031,3.251,0.0,2.893,2.8277,0.0,2.3871,0.0,0.0,0.0,0.0,0.0,0.0,0.0,0.0,0.0,0.0,0.0,0.0,0.0,0.0,0.0,0.0,0.0,0.0,0.0,2.1829,2.2539,2.3802,0.0,0.0,0.0,3.4524,3.6823,3.8666,4.0018,4.0888,4.0982,4.1063,4.1109,4.1119,4.1551,4.2371,4.328,4.4134,4.4917,4.5875,4.6243,4.6167,4.6212,4.6208,4.6165,4.6165,4.6165,4.6156,4.6062,4.6013,4.5983,4.5854,4.5803,4.5803,4.5803,4.5803,4.5803,4.5803,4.5803,4.5803,4.5803,4.5803,4.5803,4.5803,4.5803,4.5803,4.5803,4.5803,4.5803,4.5803,4.5803,4.5803,4.5803,4.5803,4.5803,4.5803,4.5803,4.5803,4.5803,4.5803,4.5803,4.5803,4.5803,4.5803,4.5803,4.5803,4.5803,4.5803,4.5803,4.5803,4.5803,4.5803,4.5803,4.5803,4.5803,4.5805,4.5807,4.5762,4.5719,4.5701,4.5652,4.5627,4.5594,4.5594,4.5594]}]]